[[{"header":{"parameterUnit":"m.s-1","parameterCategory":1,"la1":30.6,"la2":29.2853,"lo1":-89.7004,"lo2":-87.6739,"dx":0.0162,"dy":0.0183,"nx":112,"ny":82,"refTime":"2022-12-10T18:00:00:Z","depth":0,"parameterNumber":2,"parameterNumberName":"U-component_of_WINDS"},"data":[0.0,0.0,0.0,0.0,0.0,0.0,0.0,0.0,0.0,0.0,0.0,0.0,0.0,0.0,0.0,0.0,0.0,0.0,0.0,0.0,0.0,0.0,0.0,0.0,0.0,0.0,0.0,0.0,0.0,0.0,0.0,0.0,0.0,0.0,0.0,0.0,0.0,0.0,0.0,0.0,0.0,0.0,0.0,0.0,0.0,0.0,0.0,0.0,0.0,0.0,0.0,0.0,0.0,0.0,0.0,0.0,0.0,0.0,0.0,0.0,0.0,0.0,0.0,0.0,0.0,0.0,0.0,0.0,0.0,0.0,0.0,0.0,0.0,0.0,0.0,0.0,0.0,0.0,0.0,0.0,0.0,0.0,0.0,0.0,0.0,0.0,0.0,0.0,0.0,0.0,4.5832,4.792,5.3818,5.7611,5.7741,5.651,5.2702,4.5734,0.0,0.0,0.0,0.0,0.0,0.0,0.0,0.0,0.0,0.0,0.0,0.0,0.0,0.0,0.0,0.0,0.0,0.0,0.0,0.0,0.0,0.0,0.0,0.0,0.0,0.0,0.0,0.0,0.0,0.0,0.0,0.0,0.0,0.0,0.0,0.0,0.0,0.0,0.0,0.0,0.0,0.0,0.0,0.0,0.0,0.0,0.0,0.0,0.0,0.0,0.0,0.0,0.0,0.0,0.0,0.0,0.0,0.0,0.0,0.0,0.0,0.0,0.0,0.0,0.0,0.0,0.0,0.0,0.0,0.0,0.0,0.0,0.0,0.0,0.0,0.0,0.0,0.0,0.0,0.0,0.0,0.0,0.0,0.0,0.0,0.0,0.0,0.0,0.0,0.0,0.0,0.0,0.0,0.0,0.0,0.0,0.0,0.0,0.0,0.0,0.0,0.0,0.0,0.0,4.8079,5.5912,5.7223,5.7806,5.8421,5.7709,5.4078,4.6551,0.0,0.0,0.0,0.0,0.0,0.0,0.0,0.0,0.0,0.0,0.0,0.0,0.0,0.0,0.0,0.0,0.0,0.0,0.0,0.0,0.0,0.0,0.0,0.0,0.0,0.0,0.0,0.0,0.0,0.0,0.0,0.0,0.0,0.0,0.0,0.0,0.0,0.0,0.0,0.0,0.0,0.0,0.0,0.0,0.0,0.0,0.0,0.0,0.0,0.0,0.0,0.0,0.0,0.0,0.0,0.0,0.0,0.0,0.0,0.0,0.0,0.0,0.0,0.0,0.0,0.0,0.0,0.0,0.0,0.0,0.0,0.0,0.0,0.0,0.0,0.0,0.0,0.0,0.0,0.0,0.0,0.0,0.0,0.0,0.0,0.0,0.0,0.0,0.0,0.0,0.0,0.0,0.0,0.0,0.0,0.0,0.0,0.0,0.0,0.0,0.0,0.0,0.0,4.5669,5.0196,5.8842,5.9166,5.8874,5.9198,5.8551,5.4875,4.7302,4.482,0.0,0.0,0.0,0.0,0.0,0.0,0.0,0.0,0.0,0.0,0.0,0.0,0.0,0.0,0.0,0.0,0.0,0.0,0.0,0.0,0.0,0.0,0.0,0.0,0.0,0.0,0.0,0.0,0.0,0.0,0.0,0.0,0.0,0.0,0.0,0.0,0.0,0.0,0.0,0.0,0.0,0.0,0.0,0.0,0.0,0.0,0.0,0.0,0.0,0.0,0.0,0.0,0.0,0.0,0.0,0.0,0.0,0.0,0.0,0.0,0.0,0.0,0.0,0.0,0.0,0.0,0.0,0.0,0.0,0.0,0.0,0.0,0.0,0.0,0.0,0.0,0.0,0.0,0.0,0.0,0.0,0.0,0.0,0.0,0.0,0.0,0.0,0.0,0.0,0.0,0.0,0.0,0.0,0.0,0.0,0.0,0.0,0.0,0.0,0.0,0.0,0.0,4.9975,5.3474,5.9846,6.004,5.9716,5.9716,5.9198,5.5621,4.8054,4.6192,0.0,0.0,0.0,0.0,0.0,0.0,0.0,0.0,0.0,0.0,0.0,0.0,0.0,0.0,0.0,0.0,0.0,0.0,0.0,0.0,0.0,0.0,0.0,0.0,0.0,0.0,0.0,0.0,0.0,0.0,0.0,0.0,0.0,0.0,0.0,0.0,0.0,0.0,0.0,0.0,0.0,0.0,0.0,0.0,0.0,0.0,0.0,0.0,0.0,0.0,0.0,0.0,0.0,0.0,0.0,0.0,0.0,0.0,0.0,0.0,0.0,0.0,0.0,0.0,0.0,0.0,0.0,0.0,0.0,0.0,0.0,0.0,0.0,0.0,0.0,0.0,0.0,0.0,0.0,0.0,0.0,0.0,0.0,0.0,0.0,0.0,0.0,0.0,0.0,0.0,0.0,0.0,0.0,0.0,0.0,0.0,0.0,0.0,0.0,0.0,0.0,0.0,5.4533,5.9134,5.9716,5.9749,5.9716,5.9716,5.9652,5.6449,4.8944,4.7043,0.0,0.0,0.0,0.0,0.0,0.0,0.0,0.0,0.0,0.0,0.0,0.0,0.0,0.0,0.0,0.0,0.0,0.0,0.0,0.0,0.0,0.0,0.0,0.0,0.0,0.0,0.0,0.0,0.0,0.0,0.0,0.0,0.0,0.0,0.0,0.0,0.0,0.0,0.0,0.0,0.0,0.0,0.0,0.0,0.0,0.0,0.0,0.0,0.0,0.0,0.0,0.0,0.0,0.0,0.0,0.0,0.0,0.0,0.0,0.0,0.0,0.0,0.0,0.0,0.0,0.0,0.0,0.0,0.0,0.0,0.0,0.0,0.0,0.0,0.0,0.0,0.0,0.0,0.0,0.0,0.0,0.0,0.0,0.0,0.0,0.0,0.0,0.0,0.0,0.0,0.0,0.0,0.0,0.0,0.0,0.0,0.0,0.0,0.0,0.0,0.0,0.0,5.4189,5.8637,6.0785,6.1012,6.085,6.0429,6.0397,5.7001,4.8973,0.0,0.0,0.0,0.0,0.0,0.0,0.0,0.0,0.0,0.0,0.0,0.0,0.0,0.0,0.0,0.0,0.0,0.0,0.0,0.0,0.0,0.0,0.0,0.0,0.0,0.0,0.0,0.0,0.0,0.0,0.0,0.0,0.0,0.0,0.0,0.0,0.0,0.0,0.0,0.0,0.0,0.0,0.0,0.0,0.0,0.0,0.0,0.0,0.0,0.0,0.0,0.0,0.0,0.0,0.0,0.0,0.0,0.0,0.0,0.0,0.0,0.0,0.0,0.0,0.0,0.0,0.0,0.0,0.0,0.0,0.0,0.0,0.0,0.0,0.0,0.0,0.0,0.0,0.0,0.0,0.0,0.0,0.0,0.0,0.0,0.0,0.0,0.0,0.0,0.0,0.0,0.0,0.0,0.0,0.0,0.0,0.0,0.0,0.0,0.0,0.0,0.0,4.9295,5.4775,5.9188,6.1562,6.1821,6.1627,6.1174,6.0915,5.7488,4.973,0.0,0.0,0.0,0.0,0.0,0.0,0.0,0.0,0.0,0.0,0.0,0.0,0.0,0.0,0.0,0.0,0.0,0.0,0.0,0.0,0.0,0.0,0.0,0.0,0.0,0.0,0.0,0.0,0.0,0.0,0.0,0.0,0.0,0.0,0.0,0.0,0.0,0.0,0.0,0.0,0.0,0.0,0.0,0.0,0.0,0.0,0.0,0.0,0.0,0.0,0.0,0.0,0.0,0.0,0.0,0.0,0.0,0.0,0.0,0.0,0.0,0.0,0.0,0.0,0.0,0.0,0.0,0.0,0.0,0.0,0.0,0.0,0.0,0.0,0.0,0.0,0.0,0.0,0.0,0.0,0.0,0.0,0.0,0.0,0.0,0.0,0.0,0.0,0.0,0.0,0.0,0.0,0.0,0.0,0.0,0.0,0.0,0.0,0.0,0.0,0.0,0.0,5.034,5.7131,6.1854,6.1854,6.1854,6.1821,6.1821,6.1206,5.7995,0.0,0.0,0.0,0.0,0.0,0.0,0.0,0.0,0.0,0.0,0.0,0.0,0.0,0.0,0.0,0.0,0.0,0.0,0.0,0.0,0.0,0.0,0.0,0.0,0.0,0.0,0.0,0.0,0.0,0.0,0.0,0.0,0.0,0.0,0.0,0.0,0.0,0.0,0.0,0.0,0.0,0.0,0.0,0.0,0.0,0.0,0.0,0.0,0.0,0.0,0.0,0.0,0.0,0.0,0.0,0.0,0.0,0.0,0.0,0.0,0.0,0.0,0.0,0.0,0.0,0.0,0.0,0.0,0.0,0.0,0.0,0.0,0.0,0.0,0.0,0.0,0.0,0.0,0.0,0.0,0.0,0.0,0.0,0.0,0.0,0.0,0.0,0.0,0.0,0.0,0.0,0.0,0.0,0.0,0.0,0.0,0.0,0.0,0.0,0.0,0.0,0.0,0.0,5.1222,5.8755,6.4088,6.4088,6.4088,6.3894,6.3408,6.3182,5.9534,5.1415,0.0,0.0,0.0,0.0,0.0,0.0,0.0,0.0,0.0,0.0,0.0,0.0,0.0,0.0,0.0,0.0,0.0,0.0,0.0,0.0,0.0,0.0,0.0,0.0,0.0,0.0,0.0,0.0,0.0,0.0,0.0,0.0,0.0,0.0,0.0,0.0,0.0,0.0,0.0,0.0,0.0,0.0,0.0,0.0,0.0,0.0,0.0,0.0,0.0,0.0,0.0,0.0,0.0,0.0,0.0,0.0,0.0,0.0,0.0,0.0,0.0,0.0,0.0,0.0,0.0,0.0,0.0,0.0,0.0,0.0,0.0,0.0,0.0,0.0,0.0,0.0,0.0,0.0,0.0,0.0,0.0,0.0,0.0,0.0,0.0,0.0,0.0,0.0,0.0,0.0,0.0,0.0,0.0,0.0,0.0,0.0,0.0,0.0,0.0,0.0,0.0,0.0,5.2398,6.0054,6.5578,6.5869,6.561,6.5287,6.4866,6.4347,6.128,5.481,0.0,0.0,0.0,0.0,0.0,0.0,0.0,0.0,0.0,0.0,0.0,0.0,0.0,0.0,0.0,0.0,0.0,0.0,0.0,0.0,0.0,0.0,0.0,0.0,0.0,0.0,0.0,0.0,0.0,0.0,0.0,0.0,0.0,0.0,0.0,0.0,0.0,0.0,0.0,0.0,0.0,0.0,0.0,0.0,0.0,0.0,0.0,0.0,0.0,0.0,0.0,0.0,0.0,0.0,0.0,0.0,0.0,0.0,0.0,0.0,0.0,0.0,0.0,0.0,0.0,0.0,0.0,0.0,0.0,0.0,0.0,0.0,0.0,0.0,0.0,0.0,0.0,0.0,0.0,0.0,0.0,0.0,0.0,0.0,0.0,0.0,0.0,0.0,0.0,0.0,0.0,0.0,0.0,0.0,0.0,0.0,0.0,0.0,0.0,0.0,0.0,0.0,5.3738,6.1093,6.6485,6.7197,6.6679,6.629,6.6226,6.5092,6.3069,6.0142,0.0,0.0,0.0,0.0,0.0,0.0,0.0,0.0,0.0,0.0,0.0,0.0,0.0,0.0,0.0,0.0,0.0,0.0,0.0,0.0,0.0,0.0,0.0,0.0,0.0,0.0,0.0,0.0,0.0,0.0,0.0,0.0,0.0,0.0,0.0,0.0,0.0,0.0,0.0,0.0,0.0,0.0,0.0,0.0,0.0,0.0,0.0,0.0,0.0,0.0,0.0,0.0,0.0,0.0,0.0,0.0,0.0,0.0,0.0,0.0,4.4079,3.9057,0.0,0.0,0.0,0.0,0.0,0.0,0.0,0.0,0.0,0.0,0.0,0.0,0.0,0.0,0.0,0.0,0.0,0.0,0.0,0.0,0.0,0.0,0.0,0.0,0.0,0.0,0.0,0.0,0.0,0.0,0.0,0.0,0.0,0.0,0.0,0.0,0.0,0.0,0.0,0.0,5.4587,6.1808,6.723,6.791,6.7845,6.7521,6.7003,6.7165,6.5478,6.1208,5.9043,0.0,0.0,0.0,0.0,0.0,0.0,0.0,0.0,0.0,0.0,0.0,0.0,0.0,0.0,0.0,0.0,0.0,0.0,0.0,0.0,0.0,0.0,0.0,0.0,0.0,0.0,0.0,0.0,0.0,0.0,0.0,0.0,0.0,0.0,0.0,0.0,0.0,0.0,0.0,0.0,0.0,0.0,0.0,0.0,0.0,0.0,0.0,0.0,0.0,0.0,0.0,0.0,0.0,0.0,0.0,0.0,0.0,0.0,0.0,4.9052,4.5771,0.0,0.0,0.0,0.0,0.0,0.0,0.0,0.0,0.0,0.0,0.0,0.0,0.0,0.0,0.0,0.0,0.0,0.0,0.0,0.0,0.0,0.0,0.0,0.0,0.0,0.0,0.0,0.0,0.0,0.0,0.0,0.0,0.0,0.0,0.0,0.0,0.0,0.0,0.0,0.0,5.6286,6.3302,6.859,6.9626,6.9464,6.9108,6.8752,6.8719,6.7654,6.5106,6.2501,0.0,0.0,0.0,0.0,0.0,0.0,0.0,0.0,0.0,0.0,0.0,0.0,0.0,0.0,0.0,0.0,0.0,0.0,0.0,0.0,0.0,0.0,0.0,0.0,0.0,0.0,0.0,0.0,0.0,0.0,0.0,0.0,0.0,0.0,0.0,0.0,0.0,0.0,0.0,0.0,0.0,0.0,0.0,0.0,0.0,0.0,0.0,0.0,0.0,0.0,0.0,0.0,0.0,5.1493,5.2235,5.3416,5.3484,5.5649,5.8964,5.4059,5.3213,5.4837,4.8003,0.0,0.0,0.0,0.0,0.0,0.0,0.0,0.0,0.0,0.0,0.0,0.0,0.0,0.0,0.0,0.0,0.0,0.0,0.0,0.0,0.0,0.0,5.3107,5.2425,5.5889,5.7642,5.1835,0.0,0.0,0.0,0.0,0.0,0.0,0.0,0.0,0.0,0.0,0.0,5.8899,6.5186,6.9917,7.1116,7.0857,7.0533,7.0403,6.995,6.957,6.9255,6.5633,6.2811,0.0,0.0,0.0,0.0,0.0,0.0,0.0,0.0,0.0,0.0,0.0,0.0,0.0,0.0,0.0,0.0,0.0,0.0,0.0,0.0,0.0,0.0,0.0,0.0,0.0,0.0,0.0,0.0,0.0,0.0,0.0,0.0,3.8975,3.9706,0.0,0.0,0.0,0.0,0.0,0.0,0.0,0.0,0.0,0.0,0.0,0.0,0.0,4.8509,5.0473,5.4532,5.6448,5.6426,6.057,6.238,6.2259,6.2662,6.3497,6.4613,6.3835,0.0,5.8355,5.7273,0.0,0.0,0.0,0.0,0.0,0.0,0.0,0.0,0.0,0.0,0.0,0.0,0.0,0.0,0.0,0.0,0.0,0.0,0.0,0.0,0.0,0.0,6.2656,6.2661,6.3561,6.3946,6.2223,5.7343,5.319,5.2719,5.3699,5.3318,0.0,0.0,0.0,0.0,0.0,0.0,6.2874,6.7393,7.0338,7.0533,7.0986,7.1051,7.0468,7.0857,7.0857,7.0247,6.908,6.6452,6.2264,6.1357,0.0,0.0,0.0,0.0,0.0,0.0,0.0,0.0,0.0,0.0,0.0,0.0,0.0,0.0,0.0,0.0,0.0,0.0,0.0,0.0,0.0,0.0,0.0,0.0,0.0,0.0,0.0,0.0,0.0,3.75,3.9574,4.0479,4.0588,3.9765,0.0,0.0,0.0,0.0,0.0,0.0,0.0,0.0,0.0,5.3856,5.419,5.5741,5.8693,6.0283,6.139,6.2076,6.4194,6.5546,6.6188,6.6829,6.7523,6.8199,6.8199,6.7354,6.5628,6.1873,5.8389,5.5209,0.0,0.0,0.0,0.0,5.1319,5.186,5.5581,5.69,5.6562,5.46,0.0,0.0,0.0,0.0,0.0,0.0,0.0,5.4821,5.8685,6.1534,6.3876,6.5542,6.6692,6.7283,6.6903,6.5089,6.2233,5.7675,5.7113,5.5864,5.1262,5.3395,0.0,0.0,0.0,6.2566,6.5118,6.8658,7.1116,7.1537,7.1861,7.1893,7.1601,7.1861,7.1731,7.1019,7.1051,6.9765,6.6835,6.4112,6.0304,0.0,0.0,0.0,0.0,0.0,0.0,0.0,0.0,0.0,0.0,0.0,0.0,0.0,0.0,0.0,0.0,0.0,0.0,0.0,0.0,0.0,0.0,0.0,0.0,0.0,0.0,0.0,0.0,4.0646,4.2142,4.2502,4.4156,4.3987,0.0,0.0,0.0,0.0,0.0,0.0,5.23,5.3518,5.6018,6.0047,6.0646,6.2471,6.573,6.5392,6.5764,6.6846,6.7218,6.7895,6.8808,6.9586,7.0229,7.0737,7.0737,7.1176,7.1447,6.6068,6.3294,6.2144,5.937,5.7679,5.6968,5.7915,5.8152,5.8524,6.2279,6.3328,6.2787,6.167,6.0655,5.9674,5.8592,0.0,0.0,0.0,0.0,5.8908,6.1767,6.3748,6.5588,6.7592,6.8987,6.9714,6.9616,6.9747,6.8273,6.2874,6.2035,6.0594,5.566,5.8412,0.0,5.7626,6.1611,6.5668,6.7687,7.015,7.1893,7.2443,7.2508,7.2508,7.2508,7.2508,7.2184,7.1472,7.1925,7.1649,7.0435,6.7129,6.4498,6.2775,0.0,0.0,0.0,0.0,0.0,0.0,0.0,0.0,0.0,0.0,0.0,0.0,0.0,0.0,0.0,0.0,0.0,0.0,0.0,0.0,0.0,0.0,0.0,0.0,0.0,0.0,0.0,0.0,0.0,4.8661,5.1211,0.0,0.0,0.0,0.0,5.2808,5.3179,5.4837,5.8389,5.8892,6.1346,6.6237,6.6069,6.6791,6.8842,6.9519,6.9891,6.9992,7.1379,7.1751,7.1176,7.1887,7.2259,7.2293,7.2293,7.2699,7.324,7.1515,6.8707,6.5459,6.5256,6.3024,6.0317,6.3869,6.4749,6.4681,6.8436,6.8774,6.688,6.2685,5.8896,5.7137,6.3328,6.2212,0.0,0.0,6.4824,6.5951,6.9132,7.0616,7.1218,7.1292,7.1546,7.1622,7.1158,6.8693,6.7306,6.9441,7.1271,7.1088,6.645,0.0,6.5996,6.5801,6.6061,6.7719,7.1634,7.2346,7.2443,7.2508,7.2508,7.2508,7.2508,7.2508,7.2184,7.1472,7.144,7.1324,7.1156,7.0861,6.8855,6.4972,6.4055,0.0,0.0,0.0,0.0,0.0,0.0,0.0,0.0,0.0,0.0,0.0,0.0,0.0,0.0,0.0,0.0,0.0,0.0,0.0,0.0,0.0,0.0,0.0,0.0,0.0,0.0,0.0,0.0,4.9891,5.339,0.0,5.2337,5.4022,5.598,5.7645,5.9539,6.1839,6.458,6.5294,6.6677,6.891,6.9275,6.9782,7.0534,7.0297,7.0432,7.0906,7.1447,7.1819,7.2022,7.2766,7.3105,7.3105,7.3105,7.324,7.3443,7.2935,7.1921,7.0669,7.0195,6.918,6.8132,6.8977,6.9147,6.9113,7.0466,7.0567,6.9925,6.8808,6.7861,6.759,6.9992,6.9586,6.8673,7.0085,7.0344,7.0373,7.1209,7.2204,7.2834,7.2118,7.268,7.3142,7.2634,7.2032,7.1825,7.2388,7.0908,6.9026,6.6744,6.8986,7.0085,6.7525,6.8953,7.0896,7.2314,7.2897,7.3026,7.2541,7.2897,7.2994,7.2541,7.3217,7.3396,7.2646,7.307,7.3192,7.2911,7.1844,7.1092,7.075,6.991,6.5897,0.0,0.0,0.0,0.0,0.0,0.0,0.0,0.0,0.0,0.0,0.0,0.0,0.0,0.0,0.0,0.0,0.0,0.0,0.0,0.0,0.0,0.0,0.0,0.0,0.0,5.1598,5.4845,5.1494,5.595,5.8394,5.5916,5.8477,6.1076,6.299,6.5222,6.7252,6.8977,7.0026,7.0669,7.0906,7.165,7.1921,7.1684,7.1413,7.1548,7.2056,7.2293,7.2665,7.3172,7.3916,7.4221,7.4221,7.4221,7.4221,7.4221,7.4221,7.4221,7.4119,7.3138,7.2766,7.2699,7.2225,7.1887,7.165,7.1413,7.1312,7.1481,7.2462,7.3105,7.3578,7.4086,7.4221,7.4289,7.4337,7.3951,7.3466,7.3673,7.3874,7.404,7.4172,7.4502,7.4665,7.4023,7.4399,7.4528,7.3782,7.1876,7.0131,6.9253,7.1779,7.2582,6.8699,7.0967,7.2767,7.1674,7.3004,7.3739,7.3253,7.3642,7.3739,7.3253,7.316,7.3306,7.369,7.3371,7.3496,7.4272,7.2109,7.1488,7.2673,7.2051,6.8558,6.2146,0.0,0.0,0.0,0.0,0.0,0.0,0.0,0.0,0.0,0.0,0.0,0.0,0.0,0.0,0.0,0.0,0.0,0.0,0.0,0.0,0.0,0.0,0.0,5.1048,5.5093,5.7406,5.4193,5.9476,6.3199,6.264,6.4102,6.6287,6.9045,6.9823,7.0567,7.1379,7.2732,7.3172,7.2496,7.3138,7.3172,7.2462,7.3172,7.3544,7.3578,7.4289,7.4627,7.4661,7.5371,7.5709,7.5709,7.5709,7.5709,7.5709,7.5709,7.5709,7.554,7.4086,7.3544,7.3544,7.3544,7.3105,7.2428,7.1718,7.1515,7.1751,7.3172,7.3612,7.3883,7.5337,7.5777,7.5817,7.6037,7.5538,7.5303,7.6777,7.5897,7.5016,7.7412,7.7178,7.6159,7.5463,7.533,7.5021,7.3923,7.484,7.5547,7.4588,7.4453,7.351,7.0043,7.2483,0.0,7.0257,7.2647,7.4646,7.4516,7.4516,7.4516,7.4484,7.2201,7.1916,7.4451,7.2266,7.2167,7.5165,7.1915,7.0169,7.0377,7.0297,6.9353,6.7719,0.0,0.0,0.0,0.0,0.0,0.0,0.0,0.0,0.0,0.0,0.0,0.0,0.0,0.0,0.0,0.0,0.0,0.0,0.0,0.0,0.0,5.6765,5.9268,5.619,5.9564,6.2173,6.1593,6.3817,6.588,6.71,6.7708,6.8992,7.1345,7.121,7.1785,7.3612,7.3578,7.3646,7.3984,7.4187,7.4221,7.4018,7.4221,7.4559,7.51,7.4762,7.4897,7.5405,7.5608,7.5709,7.5709,7.5709,7.5709,7.5709,7.5709,7.5709,7.5608,7.4661,7.4627,7.5033,7.4492,7.4897,7.5642,7.5439,7.5709,7.6217,7.6623,7.6758,7.6826,7.7232,7.7367,7.7401,7.7408,7.701,7.6643,7.7044,7.6808,7.6502,7.6954,7.7329,7.7637,7.7091,7.7369,7.7621,7.7401,7.8042,7.7767,7.5039,7.4561,7.4301,7.3315,7.4399,7.5067,7.4204,7.5682,7.5858,7.303,7.3054,7.3152,7.2842,7.2859,7.3711,7.5886,7.5756,7.5751,7.5955,7.4293,7.3567,7.3968,7.2042,7.0522,0.0,0.0,0.0,0.0,0.0,0.0,0.0,0.0,0.0,0.0,0.0,0.0,0.0,0.0,0.0,0.0,0.0,0.0,0.0,0.0,0.0,0.0,6.1637,6.4106,6.2787,6.457,6.6221,6.6474,6.7082,6.821,7.0297,7.0195,7.0804,7.2699,7.3037,7.3578,7.4559,7.4796,7.483,7.4627,7.4627,7.4627,7.4627,7.4627,7.483,7.5236,7.5473,7.5608,7.5709,7.6352,7.6657,7.6657,7.6657,7.6657,7.6657,7.6657,7.6657,7.6555,0.0,0.0,0.0,0.0,7.5642,7.6454,7.6792,7.7367,7.8044,7.8348,7.8653,7.8923,7.8923,7.872,7.8585,7.9194,7.8523,7.795,7.906,7.8752,7.8374,7.893,7.9341,7.9585,7.9015,7.9164,7.9353,7.8802,7.9051,0.0,7.6734,7.6618,7.6222,7.4398,7.5806,7.6491,7.5112,7.6961,7.7415,7.5245,7.5234,7.5222,7.5017,7.4588,0.0,0.0,0.0,7.607,7.4944,7.4006,0.0,0.0,0.0,7.2166,7.3376,7.0586,0.0,0.0,6.5837,6.4614,0.0,0.0,0.0,0.0,0.0,0.0,0.0,0.0,0.0,0.0,0.0,0.0,0.0,0.0,0.0,0.0,6.6542,6.9485,6.9586,6.9586,6.9519,6.9383,6.9417,7.0297,7.2428,7.2056,7.2259,7.3612,7.4965,7.5405,7.4762,7.5946,0.0,0.0,0.0,7.4864,7.4864,7.5033,7.5134,7.5134,7.6487,7.6826,7.6251,7.7604,7.828,7.8348,7.8348,7.8416,7.8483,7.8483,7.8483,7.8314,7.6724,7.6082,7.6082,7.6183,7.6217,7.6318,7.7029,0.0,0.0,7.916,7.987,8.0445,8.0445,8.0006,7.9735,8.1054,8.0173,7.9293,8.1797,8.1135,8.0408,8.2027,8.2018,8.1565,8.1029,8.0822,8.0501,7.9616,7.9313,7.9397,7.9477,7.9545,7.8494,7.4701,7.6939,7.7966,7.5006,7.722,7.8985,7.868,7.8647,0.0,7.8647,7.6424,7.6196,7.8823,7.6781,7.4984,7.3755,7.3135,7.2841,7.299,7.2843,7.4464,7.7938,7.8263,7.8584,7.8491,6.9074,6.714,0.0,0.0,0.0,0.0,0.0,0.0,0.0,0.0,0.0,0.0,0.0,0.0,0.0,0.0,0.0,6.4681,6.8842,7.1954,7.2563,7.2631,7.2191,7.1041,7.1413,7.2394,7.4018,7.4052,7.4322,7.5202,7.554,7.5642,7.5506,7.5202,7.5202,7.5473,7.6115,7.6454,7.6454,7.7638,7.8247,7.8247,7.8551,0.0,7.9329,7.9634,8.0107,8.0648,8.0648,8.0987,8.1562,8.1562,8.1562,8.1359,7.9261,7.845,7.8517,7.9126,7.9329,7.9363,7.9498,8.004,8.0682,8.0818,8.1359,8.1968,8.1968,8.1866,0.0,8.2103,8.1898,8.1763,8.2306,8.2098,8.1956,8.2483,8.2543,8.2594,8.3075,8.2855,8.2791,8.3615,8.3399,8.2995,8.3126,8.088,7.8827,7.7983,7.8971,7.9503,7.8939,7.9827,7.962,7.718,7.6743,7.6632,7.6887,7.6222,7.6911,7.9568,7.8694,7.8063,7.7771,7.8596,7.8668,7.8097,7.8497,7.9087,7.9665,7.8902,7.8902,7.9836,7.6871,7.5993,0.0,0.0,0.0,0.0,0.0,0.0,0.0,0.0,0.0,0.0,0.0,5.7273,6.0622,0.0,6.6136,6.9113,7.1785,7.351,7.3477,7.4458,7.4627,7.3138,7.3274,7.4086,7.5608,7.5405,7.5473,7.6251,7.6284,7.6284,7.6284,7.6657,7.686,7.6826,7.7604,7.801,7.801,7.8754,7.9295,7.9667,8.0006,8.0581,8.1325,8.1697,8.2035,8.2374,8.2374,8.2408,8.2441,8.2813,8.3186,8.3422,8.2306,8.1426,8.0818,8.119,8.1291,8.1291,8.1291,8.1765,8.2374,8.2374,8.2915,8.3524,8.3524,8.3524,8.3592,8.3998,8.4099,8.42,8.4573,8.4674,8.4635,8.479,8.4749,8.4842,8.5248,8.519,8.5064,8.5397,8.5268,8.492,8.4687,8.2917,8.1467,8.1467,8.1792,8.202,8.202,8.2107,8.1534,7.9983,7.9671,7.9671,7.9787,7.9671,8.0171,8.1479,8.1252,8.0701,7.9989,8.054,8.0361,7.9248,7.9471,7.9935,8.046,7.9787,8.0108,8.1291,8.0426,8.0014,0.0,0.0,0.0,0.0,0.0,0.0,0.0,5.2232,5.3315,5.8558,6.0182,6.2042,6.6406,6.7827,6.9519,7.3105,7.4322,7.4661,7.4221,7.5743,7.6487,7.5405,7.527,7.5709,7.6792,7.6454,7.642,7.7063,7.7096,7.7164,7.7333,7.8314,7.8686,7.8213,7.9058,7.96,7.9769,7.9904,8.0242,8.0851,8.1291,8.19,8.2644,8.3219,8.3659,8.393,8.4099,8.3828,8.3321,8.393,8.4505,8.508,8.508,8.4336,8.3253,8.2949,8.2847,8.2847,8.2847,8.3321,8.393,8.393,8.4471,8.508,8.508,8.508,8.5182,8.5824,8.5993,8.6129,8.6771,8.6907,8.6907,8.6907,8.6797,8.6721,8.6856,8.689,8.6701,8.6499,8.6273,8.5997,8.5782,8.5196,8.4588,8.4162,8.3977,8.3977,8.3977,8.3528,8.3227,8.3389,8.3389,8.3454,8.3584,8.3584,8.3584,8.3584,8.3584,8.3065,8.19,8.1945,8.1446,8.0191,8.0113,8.0624,8.1747,8.1503,8.1985,8.3084,8.2354,8.1922,4.32,4.5635,5.0101,5.3112,5.4363,5.6765,0.0,6.3768,6.3362,6.8605,7.0263,7.1142,7.2394,7.324,7.3916,7.4424,7.51,7.5811,7.642,7.6758,7.7063,7.7536,7.7604,7.7435,7.6961,7.7401,7.7773,7.7874,7.7874,7.8145,7.8822,7.8382,7.8382,7.8957,8.031,8.1359,8.2035,8.2678,8.305,8.3118,8.2543,8.2678,8.3389,8.3456,8.4234,8.5554,8.623,8.6467,8.6399,8.6501,8.6569,8.6636,8.6636,8.6535,8.623,8.4877,8.437,8.437,8.437,8.4877,8.552,8.552,8.6027,8.6636,8.6636,8.6636,8.667,8.6771,8.6771,8.6805,8.6907,8.6907,8.6907,8.6907,8.6432,8.6265,8.6868,8.6545,8.6547,8.7711,8.6991,8.659,8.7732,8.7436,8.6291,8.4391,8.3649,8.3317,8.3317,8.3195,8.3422,8.4037,8.4102,8.4361,8.5009,8.5041,8.5041,8.5041,8.5041,8.4976,8.4814,8.5265,8.5196,8.4435,8.4372,8.4621,8.5336,8.4105,8.4144,8.5384,8.4601,8.352,5.3721,5.3754,5.4532,5.8727,6.0351,6.1907,6.573,6.6,6.6779,7.1582,7.3172,7.3781,7.4086,7.4728,7.5236,7.5236,7.5879,7.6521,7.686,7.7638,7.8145,7.801,7.8754,7.8991,7.8247,7.845,7.8653,7.8653,7.8247,7.8314,7.9058,7.96,8.004,8.0378,8.1799,8.2509,8.2408,8.3118,8.3727,8.4167,8.4302,8.4979,8.6129,8.6129,8.6467,8.7076,8.6974,8.7144,8.755,8.755,8.7786,8.8158,8.8158,8.8158,8.7989,8.6501,8.596,8.596,8.596,8.6163,8.6433,8.6433,8.667,8.6907,8.6907,8.7211,8.755,8.755,8.7854,8.8158,8.8158,8.8158,8.8158,8.8158,8.8048,8.796,8.8261,8.8161,8.8204,8.9249,8.8961,8.8921,8.9927,8.9542,8.8762,8.7929,8.6928,8.6281,8.6281,8.5908,8.5753,8.6045,8.6077,8.6207,8.6498,8.6531,8.6531,8.6531,8.6531,8.6369,8.5948,8.6125,8.589,8.5187,8.514,8.5462,8.6059,8.5525,8.6063,8.7766,8.7089,8.7048,5.9066,5.9167,5.9066,6.3362,6.573,6.7184,6.7726,6.8571,7.0195,7.3443,7.4695,7.5303,7.5506,7.5811,7.6082,7.6284,7.6826,7.7198,7.7198,7.8111,7.8686,7.8348,7.9261,7.987,7.9735,7.9363,7.9295,7.9667,7.9025,7.9092,8.0242,8.1122,8.1697,8.19,8.3152,8.3761,8.3659,8.4167,8.4809,8.5554,8.5926,8.6771,8.7989,8.8192,8.8294,8.826,8.7753,8.782,8.8294,8.8294,8.8598,8.9072,8.9072,8.9072,8.897,8.7888,8.7516,8.7516,8.7516,8.7516,8.7516,8.7516,8.7516,8.7516,8.7516,8.8023,8.8598,8.8598,8.914,8.9681,8.9681,8.9681,8.9681,8.9681,8.9913,9.0103,9.0103,9.0453,9.088,9.1361,9.1528,9.171,9.2279,9.1735,9.1471,9.1722,9.0839,8.9825,8.8855,8.8441,8.8312,8.8312,8.8474,8.8603,8.8603,8.8603,8.8603,8.8603,8.8603,8.8376,8.7891,8.7793,8.7436,8.6757,8.6496,8.6743,8.7438,8.7045,8.7821,8.9835,8.936,8.9899,5.3788,5.7915,6.2042,6.5797,6.9992,7.324,7.324,7.439,7.5473,7.5608,7.6284,7.7063,7.7739,7.7333,7.7096,7.7807,7.7942,7.7942,7.7942,7.801,7.828,7.8991,7.9126,7.9701,8.1088,7.9938,7.9701,8.1122,8.0547,8.1088,8.3253,8.2746,8.2712,8.3422,8.42,8.5283,8.6771,8.6805,8.7177,8.7888,8.7211,8.7279,8.8023,8.8734,8.9038,8.9038,8.9038,8.9038,8.9038,8.9038,8.9072,8.9072,8.9072,8.9072,8.9072,8.9038,8.9004,8.9004,8.9004,8.9004,8.9004,8.9004,8.9004,8.9004,8.9004,8.9545,9.0154,9.0154,9.0662,9.1237,9.1237,9.1237,9.1237,9.1237,9.1812,9.2353,9.2353,9.3419,9.45,9.4586,9.4644,9.4623,9.4656,9.4123,9.3976,9.461,9.4676,9.3495,9.0032,9.0093,9.0514,9.0514,9.1162,9.1583,9.155,9.155,9.155,9.1583,9.155,9.155,9.1518,9.1501,9.1109,9.0417,8.9707,8.9731,9.0452,8.9043,8.9339,9.1375,9.1375,9.1375,5.8761,6.2651,6.6677,7.0939,7.3477,7.51,7.5642,7.6521,7.7232,7.7232,7.5067,7.3409,7.4153,7.368,7.3443,7.4153,7.6792,7.872,7.872,7.9566,7.9904,7.9194,8.0412,8.1291,8.1291,8.0851,8.0953,8.1968,8.1799,8.2205,8.3422,8.3727,8.4234,8.4979,8.5757,8.6399,8.6907,8.738,8.7753,8.7989,8.8226,8.8497,8.8734,8.897,8.9342,8.9816,8.9816,9.0121,9.056,9.056,9.056,9.056,9.056,9.056,9.0628,9.1102,9.1305,9.1237,9.0729,9.1203,9.2083,9.2083,9.1711,9.1305,9.1305,9.1474,9.1677,9.1677,9.2218,9.2928,9.3436,9.3199,9.3064,9.4045,9.4092,9.4018,9.4018,9.4422,9.4867,9.4769,9.5239,9.5494,9.5494,9.5803,9.5789,9.5635,9.5668,9.4847,9.2744,9.2677,9.2379,9.149,9.155,9.168,9.168,9.168,9.168,9.168,9.168,9.168,9.168,9.1721,9.1591,9.1323,9.1104,9.1107,9.1367,9.0879,9.1371,9.2968,9.2968,9.3488,6.3802,6.6914,6.9722,7.395,7.5337,7.5845,7.6352,7.7063,7.7604,7.7604,7.4255,7.1548,7.2259,7.2022,7.1515,7.0906,7.4559,7.7401,7.713,7.8145,7.9058,7.9464,8.1224,8.234,8.2103,8.2577,8.3084,8.3592,8.3355,8.3625,8.4674,8.5418,8.6061,8.6569,8.7313,8.7685,8.7685,8.8158,8.8531,8.8801,8.9782,9.029,9.029,9.056,9.0966,9.1406,9.1406,9.1677,9.2116,9.2116,9.2116,9.2116,9.2116,9.2286,9.2556,9.3064,9.374,9.418,9.2658,9.2759,9.3571,9.3571,9.3233,9.2827,9.2827,9.3199,9.3639,9.3639,9.4383,9.5263,9.577,9.533,9.4992,9.5973,9.6013,9.5934,9.5934,9.6691,9.7074,9.675,9.7312,9.7649,9.7144,9.7447,9.7623,9.7079,9.7054,9.6594,9.4815,9.4585,9.4255,9.3265,9.32,9.32,9.32,9.2965,9.2831,9.2831,9.256,9.2457,9.2457,9.2457,9.256,9.2831,9.257,9.2574,9.2841,9.2579,9.3073,9.4186,9.445,9.5074,6.8267,7.0297,7.1278,7.4864,7.5743,7.5709,7.5811,7.6454,7.6961,7.6724,7.368,7.1244,7.1751,7.1954,7.1142,6.8335,7.1819,7.4593,7.3916,7.4525,7.6318,7.9904,8.1663,8.2881,8.3592,8.4979,8.5892,8.5993,8.5215,8.5384,8.6907,8.7617,8.8023,8.8057,8.8734,8.9072,8.9072,8.9106,8.9512,9.029,9.1677,9.2421,9.2522,9.3233,9.3639,9.374,9.374,9.3774,9.3808,9.3808,9.3808,9.3808,9.3808,9.4248,9.489,9.4924,9.6244,9.7664,9.489,9.3909,9.3909,9.3909,9.3909,9.3876,9.3876,9.4823,9.5905,9.5905,9.6954,9.807,9.8104,9.7597,9.7056,9.7157,9.7664,9.8104,9.8104,9.9762,10.1014,10.0235,10.0709,10.0743,9.9322,9.8926,9.8893,9.9051,9.8993,9.8281,9.6265,9.5935,9.5935,9.5771,9.5771,9.5771,9.5771,9.5276,9.4874,9.4874,9.4229,9.3955,9.3817,9.3817,9.4229,9.4874,9.4219,9.4124,9.4779,9.4213,9.4103,9.4766,9.5468,9.5803,6.9654,7.1785,7.3984,7.6082,7.6149,7.598,7.713,7.801,7.7604,7.4255,7.0567,6.7184,6.4613,6.5933,6.7523,6.7861,7.3578,7.8077,7.845,7.96,8.0784,8.1731,8.3659,8.5215,8.596,8.6399,8.7313,8.897,8.738,8.6738,8.7685,8.7888,8.826,8.8801,8.897,8.9072,8.9072,8.9647,9.029,9.1034,9.1406,9.2184,9.33,9.3503,9.4485,9.6041,9.6041,9.6345,9.6886,9.6886,9.6886,9.6886,9.6886,9.6988,9.7225,9.7766,9.8341,9.8781,9.8612,9.8544,9.8544,9.8544,9.8138,9.7698,9.7698,9.7563,9.7461,9.7461,9.8104,9.895,9.9525,9.9525,9.966,10.0811,10.0303,9.966,9.966,9.966,9.9457,9.8713,9.8338,9.816,9.8294,9.7475,9.6945,9.7395,9.7563,9.7346,9.6829,9.6333,9.5599,9.4398,9.4333,9.4333,9.4333,9.474,9.4874,9.4874,9.5243,9.5109,9.4605,9.4605,9.4502,9.4092,9.3897,9.3936,9.4073,9.3877,9.3947,9.4049,9.4781,9.4847,7.1785,7.3578,7.5202,7.5777,7.5777,7.5506,7.4728,7.4897,7.4018,6.9823,6.6,6.2753,6.0689,6.326,6.5527,6.5087,7.1548,7.6893,7.7638,7.9025,8.0581,8.2205,8.4403,8.596,8.6366,8.7008,8.7888,8.914,8.8091,8.7854,8.8903,8.897,8.9004,8.9072,8.941,8.9579,8.9579,9.0662,9.1372,9.1812,9.3098,9.4045,9.4586,9.5567,9.6683,9.7867,9.7867,9.8273,9.8984,9.8984,9.8984,9.8984,9.8984,9.9187,9.9525,9.9965,10.0303,10.0675,10.1115,10.1216,10.1115,10.0438,9.9931,9.9593,9.9593,9.9525,9.9491,9.9491,9.9796,10.0202,10.0608,10.0202,9.9965,10.0811,10.0303,9.9728,9.9728,9.966,9.9231,9.8237,9.7201,9.6717,9.7117,9.6721,9.6583,9.7,9.7,9.7007,9.7021,9.6696,9.6135,9.5309,9.4874,9.4874,9.5142,9.5009,9.4874,9.4874,9.5009,9.4874,9.4469,9.4366,9.4333,9.4333,9.4605,9.4874,9.5142,9.5508,9.564,9.564,9.6066,9.6066,7.4052,7.5134,7.5439,7.4897,7.5236,7.4728,7.1041,7.0331,6.9214,6.4783,6.1366,5.8998,5.8389,6.1839,6.4208,6.2347,6.847,7.3916,7.5168,7.6724,7.8923,8.2171,8.4471,8.5858,8.6061,8.7245,8.8091,8.826,8.8192,8.87,8.9985,9.0053,8.9816,8.9241,8.9951,9.0459,9.0662,9.1812,9.2624,9.303,9.5432,9.6514,9.6447,9.8273,9.9254,9.9559,9.9559,9.9931,10.0506,10.0506,10.0506,10.0506,10.0405,10.0811,10.1386,10.1284,10.1622,10.2198,10.2198,10.2198,10.1995,10.0811,10.0405,10.0337,10.0235,10.0608,10.1081,10.1081,10.1081,10.1081,10.1081,10.0168,9.9254,9.9254,9.9153,9.9085,9.9085,9.9525,9.9476,9.8038,9.6725,9.5902,9.5902,9.6326,9.6745,9.7,9.7,9.7,9.7,9.6873,9.6745,9.6745,9.6033,9.5902,9.6617,9.5673,9.5009,9.5009,9.4469,9.4092,9.3955,9.3955,9.4229,9.474,9.5375,9.5902,9.6617,9.7094,9.7472,9.763,9.763,9.7755,7.5371,7.5168,7.4931,7.5405,7.5608,7.4728,7.1041,7.1142,6.9722,6.1637,5.9945,5.8795,5.5141,5.7577,6.1434,6.5256,7.0161,7.483,7.8686,8.1021,8.2577,8.3219,8.4776,8.6264,8.7482,8.7854,8.8497,8.9748,8.9241,8.9004,8.9275,8.9275,8.9512,8.9985,9.0729,9.1711,9.2996,9.2624,9.3673,9.6108,9.5398,9.6616,9.9457,9.9187,10.01,10.1893,10.1893,10.1995,10.2096,10.2096,10.2096,10.2028,10.1419,10.1284,10.1284,10.0709,10.0506,10.0608,10.0608,10.0608,10.0709,10.1081,10.1183,10.1081,10.0405,9.9863,9.9491,9.9491,9.9491,9.9491,9.9491,9.9762,10.0032,10.0032,9.9559,9.9085,9.9085,9.8713,9.7967,9.6492,9.6099,9.5902,9.5902,9.5541,9.5673,9.6873,9.7,9.7,9.7,9.5935,9.5276,9.5276,9.4605,9.4469,9.5142,9.5508,9.5771,9.5771,9.6196,9.5935,9.474,9.474,9.4469,9.3955,9.406,9.4197,9.4333,9.4469,9.4874,9.5408,9.6033,9.6292,7.5236,7.5168,7.5168,7.5134,7.5439,7.4221,6.8571,6.7827,6.6034,5.7848,5.6427,5.6021,5.389,5.6528,5.9945,6.2854,6.9045,7.4525,7.7435,8.1122,8.3625,8.4031,8.508,8.623,8.7313,8.7786,8.8463,8.9545,8.9275,8.9241,8.9647,8.9681,9.0019,9.0763,9.188,9.2827,9.3571,9.4349,9.5263,9.6311,9.7191,9.8104,9.9085,9.9931,10.0878,10.1893,10.1893,10.2096,10.2502,10.2096,10.1893,10.1893,10.1081,10.0811,10.0709,10.0337,10.0235,10.0235,10.0235,10.0235,10.0202,10.0202,10.0472,10.0709,10.0337,9.9965,9.966,9.966,9.939,9.9085,9.9085,9.9085,9.9085,9.9085,9.8781,9.8544,9.8544,9.7991,9.7254,9.6583,9.6163,9.5902,9.5902,9.5935,9.6196,9.6873,9.7254,9.738,9.7,9.6066,9.5375,9.5375,9.4469,9.4092,9.4874,9.5471,9.567,9.4874,9.5904,9.5804,9.4366,9.4366,9.4229,9.3817,9.4229,9.4366,9.4333,9.474,9.5109,9.5375,9.5771,9.5902,7.4796,7.527,7.5574,7.4999,7.5405,7.3916,6.6136,6.4478,6.2381,5.46,5.301,5.3078,5.3213,5.5615,5.8118,5.981,6.6305,7.2191,7.527,7.9498,8.2881,8.4437,8.5317,8.6095,8.6839,8.7583,8.8294,8.9038,8.9241,8.9579,9.0188,9.0662,9.1203,9.1778,9.3267,9.4214,9.4518,9.5939,9.6683,9.6785,9.8781,9.939,9.8781,10.0574,10.1487,10.1589,10.1589,10.1995,10.2401,10.169,10.1386,10.1284,10.0303,9.9965,9.9965,9.9796,9.9762,9.9762,9.9762,9.9762,9.966,9.9051,9.9356,9.9931,9.9796,9.9762,9.9762,9.9762,9.9322,9.8848,9.8848,9.8442,9.8003,9.8003,9.8003,9.8003,9.7755,9.7505,9.7127,9.6873,9.6455,9.6163,9.6163,9.6583,9.7,9.7127,9.763,9.7755,9.7254,9.6455,9.6033,9.6163,9.474,9.4092,9.4874,9.5399,9.5225,9.4125,9.516,9.5225,9.3849,9.3817,9.3817,9.3817,9.4366,9.4605,9.4605,9.5243,9.5508,9.564,9.564,9.5771,7.4695,7.5642,7.5676,7.5608,7.6183,7.4458,6.5628,6.414,6.211,5.3247,5.142,5.1623,5.23,5.2706,5.4499,5.9336,6.1975,6.6271,7.4525,7.7299,8.0006,8.4133,8.5317,8.6095,8.6839,8.7583,8.8294,8.9038,8.9715,9.0121,9.0222,9.215,9.33,9.3368,9.4823,9.6244,9.7597,9.648,9.7225,9.9796,9.8713,9.9221,10.1081,10.1284,10.1792,10.2401,10.2401,10.2401,10.2401,10.169,10.1386,10.1284,9.9762,9.9187,9.9119,9.8442,9.8206,9.8206,9.8206,9.8206,9.8206,9.8138,9.8612,9.9085,9.8409,9.8206,9.8206,9.8206,9.8172,9.8104,9.8104,9.807,9.8003,9.8003,9.8003,9.7879,9.7254,9.7505,9.7472,9.6292,9.6455,9.6873,9.6873,9.7,9.7254,9.7755,9.8003,9.8003,9.7879,9.6678,9.6163,9.6873,9.5009,9.4092,9.4874,9.494,9.494,9.4772,9.494,9.4703,9.3817,9.3817,9.3817,9.3817,9.3817,9.3955,9.3955,9.3955,9.4333,9.5009,9.5009,9.5276,7.4695,7.5709,7.5709,7.5709,7.395,7.0669,6.485,6.1637,5.8254,5.2401,5.1217,5.1319,5.1589,5.1995,5.2976,5.5074,5.8964,6.3294,6.7726,7.4322,7.9329,8.1088,8.5114,8.755,8.6974,8.7955,8.897,8.9715,9.0865,9.1744,9.2218,9.3098,9.418,9.5533,9.6582,9.7428,9.8003,9.8307,9.8815,9.9559,9.9863,10.0506,10.1386,10.1893,10.2198,10.2502,10.2502,10.2502,10.2401,10.169,10.1081,10.0608,9.9525,9.8815,9.8409,9.8104,9.8003,9.8003,9.8003,9.8003,9.8003,9.8003,9.8206,9.8375,9.8104,9.8003,9.8003,9.8003,9.8003,9.8003,9.8003,9.8003,9.8003,9.8003,9.8003,9.7879,9.763,9.7505,9.738,9.722,9.6712,9.6455,9.6873,9.7,9.7,9.6806,9.7094,9.7127,9.6196,9.564,9.5276,9.5142,9.4333,9.4092,9.4874,9.53,9.523,9.4229,9.5029,9.5062,9.3817,9.3817,9.3817,9.3817,9.3817,9.3817,9.3817,9.3817,9.3955,9.4229,9.4229,9.4333,7.3071,7.4864,7.5709,7.5709,7.236,6.8064,6.4072,5.9708,5.5344,5.1386,5.0574,5.0642,5.0845,5.1488,5.2063,5.2266,5.6258,6.0317,6.3125,7.0026,7.5574,7.7536,8.2137,8.5249,8.5554,8.7922,8.9715,9.0459,9.1711,9.2962,9.418,9.4451,9.5364,9.7157,9.8172,9.8781,9.9018,9.9829,10.01,9.9796,10.0878,10.1386,10.1386,10.2198,10.2502,10.2502,10.2502,10.2401,10.2096,10.1386,10.0608,9.9829,9.9051,9.8476,9.8003,9.8003,9.8003,9.8003,9.8003,9.8003,9.8003,9.8003,9.8003,9.8003,9.8003,9.8003,9.8003,9.8003,9.8003,9.8003,9.8003,9.8003,9.8003,9.8003,9.8003,9.8003,9.8003,9.763,9.738,9.763,9.6967,9.6292,9.6583,9.6712,9.6455,9.6033,9.6326,9.6326,9.5276,9.5009,9.474,9.4469,9.4092,9.3955,9.4469,9.5095,9.4887,9.3849,9.4822,9.4887,9.3817,9.3817,9.3817,9.3817,9.3817,9.3817,9.3817,9.3817,9.3817,9.3817,9.3817,9.3817,6.9214,7.2902,7.5709,7.5709,7.236,6.7929,6.3429,5.893,5.4465,4.9965,4.9018,4.9255,4.9965,5.071,5.1454,5.2198,5.3619,5.6731,6.2685,6.4241,6.7218,7.3883,7.5337,7.757,8.2035,8.7144,9.0493,9.1237,9.1981,9.3402,9.5669,9.6447,9.7191,9.7969,9.9424,10.0608,10.1386,10.0608,10.0608,10.1386,10.1386,10.1386,10.1386,10.2198,10.2502,10.2502,10.2502,10.2096,10.1284,10.0506,9.9796,9.9051,9.8307,9.8003,9.8003,9.8003,9.8003,9.8003,9.8003,9.8003,9.8003,9.8003,9.8003,9.8003,9.8003,9.8003,9.8003,9.8003,9.8003,9.8003,9.8003,9.8003,9.8003,9.8003,9.8003,9.8003,9.8003,9.8003,9.7755,9.7127,9.7,9.6745,9.6033,9.5902,9.5902,9.5902,9.5902,9.5902,9.5902,9.5243,9.5142,9.5771,9.4572,9.3817,9.3817,9.3817,9.3817,9.3817,9.3817,9.3817,9.3817,9.3817,9.3817,9.3817,9.3817,9.3817,9.3817,9.3817,9.3817,9.3817,9.3817,9.3817,6.3835,6.5696,6.6609,6.6609,6.326,5.9573,5.8152,5.3957,5.0135,4.9187,4.8612,4.8477,4.9221,5.0371,5.1285,5.1522,5.3281,5.5446,5.7848,6.4952,7.0534,7.2157,7.8855,8.4505,8.7448,8.9681,9.1271,9.2015,9.2793,9.3977,9.5702,9.6988,9.824,9.9491,9.9965,10.0608,10.1386,10.0608,10.0608,10.1386,10.1386,10.169,10.2198,10.2401,10.2198,10.169,10.169,10.1284,10.0608,10.0303,9.9762,9.9085,9.8848,9.8442,9.8003,9.8003,9.8003,9.8003,9.8003,9.8003,9.8003,9.8003,9.8003,9.8003,9.8003,9.8003,9.8003,9.8003,9.8003,9.8003,9.8003,9.8003,9.8003,9.8003,9.8003,9.8003,9.8003,9.763,9.738,9.763,9.6967,9.6292,9.6583,9.6163,9.5771,9.5276,9.5276,9.5009,9.4605,9.4333,9.4197,9.4469,9.4092,9.3955,9.4469,9.4092,9.3817,9.3817,9.3817,9.3817,9.3817,9.3817,9.3817,9.3817,9.3817,9.3817,9.3817,9.3817,9.3817,9.3817,9.3817,9.3817,5.9032,6.1298,6.2381,6.2381,5.9032,5.5716,5.5716,5.1894,4.8477,4.8917,4.8646,4.8545,4.9289,5.0405,5.1319,5.1589,5.3281,5.5547,5.8287,6.4884,7.0331,7.2699,8.0445,8.6264,8.7955,9.0053,9.1609,9.2353,9.3131,9.4214,9.5702,9.7191,9.8679,10.0202,10.0811,10.1318,10.1792,10.1318,10.1318,10.1792,10.1792,10.2096,10.2502,10.2198,10.1792,10.1386,10.1081,10.0506,0.0,9.9796,9.9356,9.8679,9.8679,9.8409,9.8003,9.8003,9.8003,9.8003,9.8003,9.8003,9.8003,9.8003,9.8003,9.8003,9.8003,9.8003,9.8003,9.8003,9.8003,9.8003,9.8003,9.8003,9.8003,9.8003,9.8003,9.8003,9.8003,9.763,9.738,9.763,9.6967,9.6326,9.6583,9.6163,9.5771,9.5375,9.5276,9.5142,9.4605,9.4333,9.4229,9.4229,9.3955,9.3955,9.4502,9.4092,9.3817,9.3817,9.3817,9.3817,9.3817,9.3817,9.3817,9.3817,9.3817,9.3817,9.3817,9.3817,9.3817,9.3817,9.3817,9.3817,0.0,5.8761,6.1434,6.1434,5.8321,5.5243,5.5243,5.1961,0.0,4.8984,4.9018,4.9221,4.9965,5.0744,5.1522,5.2198,5.3653,5.6731,6.2618,6.4715,6.8233,7.527,8.0682,8.4065,8.464,8.87,9.1643,9.2455,9.3165,9.4214,9.5702,9.7191,9.8679,10.0202,10.1622,10.2434,10.2502,10.2401,10.2401,10.2502,10.2502,10.2502,10.2401,10.169,10.1284,10.1183,10.0405,9.9728,9.9018,9.9018,9.8612,9.8003,9.8003,9.8003,9.8003,9.8003,9.8003,9.8003,9.8003,9.8003,9.8003,9.8003,9.8003,9.8003,9.8003,9.8003,9.8003,9.8003,9.8003,9.8003,9.8003,9.8003,9.8003,9.8003,9.8003,9.8003,9.8003,9.8003,9.7755,9.7127,9.7127,9.6873,9.6163,9.6033,9.6033,9.6033,9.5902,9.5902,9.5902,9.5243,9.4874,9.4874,9.4229,9.3817,9.3817,9.3817,9.3817,9.3817,9.3817,9.3817,9.3817,9.3817,9.3817,9.3817,9.3817,9.3817,9.3817,9.3817,9.3817,9.3817,9.3817,9.3817,4.9627,0.0,5.2164,5.2164,5.1352,5.0574,0.0,4.9323,4.8342,4.8883,4.9018,4.9221,4.9965,5.115,5.2097,5.2266,5.4059,5.7137,6.1975,7.0195,7.6758,7.9634,8.4099,8.6569,8.5587,8.9004,9.1846,9.3199,9.347,9.4214,9.5702,9.7191,9.8679,10.0202,10.1115,10.1893,10.2502,10.1318,10.1318,10.2502,10.2502,10.2198,10.169,10.1487,10.0777,9.9627,9.9424,9.895,9.8273,9.8273,9.8172,9.8003,9.8003,9.8003,9.8003,9.8003,9.8003,9.8003,9.8003,9.8003,9.8003,9.8003,9.8003,9.8003,9.8003,9.8003,9.8003,9.8003,9.8003,9.8003,9.8003,9.8003,9.8003,9.8003,9.8003,9.8003,9.8003,9.8003,9.8003,9.7755,9.7755,9.7755,9.7472,9.7094,9.6745,9.6745,9.6292,9.5902,9.5902,9.5243,9.4874,9.4874,9.4229,9.3817,9.3817,9.3817,9.3817,9.3817,9.3817,9.3817,9.3817,9.3817,9.3817,9.3817,9.3817,9.3817,9.3817,9.3817,9.3817,9.3817,9.3817,9.3817,4.7733,4.8443,4.9018,4.9018,4.9018,4.9018,4.9018,4.8714,4.8612,4.9357,4.9492,4.983,5.0913,5.345,5.4938,5.3585,5.8118,6.3159,6.6948,7.3612,7.9025,8.1494,8.4539,8.6941,8.8192,9.0425,9.2286,9.3503,9.3571,9.4214,9.5702,9.6886,9.8341,10.0134,10.0303,10.0878,10.1995,10.0811,10.0811,10.1995,10.1622,10.1419,10.1386,10.0675,9.9897,9.9085,9.8747,9.8375,9.8003,9.8003,9.78,9.7529,9.7867,9.78,9.7529,9.7867,9.8003,9.8003,9.8003,9.8003,9.8003,9.8003,9.8003,9.8003,9.8003,9.8003,9.8003,9.8003,9.8003,9.8003,9.8003,9.8003,9.8003,9.8003,9.8003,9.8003,9.8003,9.8003,9.8003,9.8003,9.8003,9.8003,9.8003,9.7755,9.7505,9.7505,9.7094,9.6806,9.6806,9.6326,9.5673,9.5375,9.474,9.4229,9.3817,9.3817,9.3817,9.3817,9.3817,9.3817,9.3817,9.3817,9.3817,9.3817,9.3817,9.3817,9.3817,9.3817,9.3817,9.3817,9.3817,9.3817,4.7361,4.8849,4.9864,4.9187,4.9018,4.9052,4.9154,4.9187,4.939,5.0101,5.0338,5.1014,5.2976,5.6089,5.7746,5.5919,6.3396,7.0601,7.3883,7.6792,7.9532,8.2103,8.4234,8.6771,9.0121,9.1643,9.2759,9.3537,9.3571,9.4282,9.5872,9.665,9.807,10.0303,9.9796,10.0066,10.1386,10.0608,10.0506,10.1183,10.0709,10.0608,10.098,9.9694,9.9051,9.8882,9.8273,9.8003,9.8003,9.7867,9.7461,9.692,9.7461,9.736,9.6954,9.7597,9.7901,9.8003,9.8003,9.8003,9.8003,9.8003,9.8003,9.8003,9.8003,9.8003,9.8003,9.8003,9.8003,9.8003,9.8003,9.8003,9.8003,9.8003,9.8003,9.8003,9.8003,9.8003,9.8003,9.8003,9.8003,9.8003,9.8003,9.8003,9.8003,9.8003,9.8003,9.8037,9.8172,9.7548,9.6945,9.6331,9.5605,9.4964,9.4141,9.4141,9.4141,9.4141,9.3947,9.3817,9.3817,9.3817,9.3817,9.3817,9.3817,9.3817,9.3817,9.3817,9.3817,9.3817,9.3817,9.3817,4.6752,5.0744,5.3788,4.9965,4.9018,4.9154,4.9796,4.9932,5.0135,5.0879,5.1522,5.3179,5.7239,5.6494,5.6359,5.9742,6.6305,7.2665,7.757,8.2881,8.5317,8.2712,8.6535,8.8632,8.6805,9.0154,9.2759,9.3537,9.3571,9.4518,9.6616,9.7428,9.8882,10.1115,10.1081,10.1183,10.1386,10.0608,10.0303,10.0405,10.0912,10.0574,9.9457,9.9187,9.8747,9.8172,9.807,9.8003,9.7969,9.7326,9.6988,9.6819,9.6345,9.6447,9.6886,9.7022,9.7461,9.8003,9.8003,9.8003,9.8003,9.8003,9.8003,9.8003,9.8003,9.8003,9.8003,9.8003,9.8003,9.8003,9.8003,9.8003,9.8003,9.8003,9.8003,9.8003,9.8003,9.8003,9.8003,9.8003,9.8003,9.8003,9.8003,9.8003,9.8003,9.8003,9.8003,9.824,9.8848,9.8287,9.7881,9.7824,9.7118,9.6467,9.5771,9.5631,9.5631,9.5631,9.4497,9.3817,9.3817,9.3817,9.3817,9.3817,9.3817,9.3817,9.3817,9.3817,9.3817,9.3817,9.3817,9.3817,4.6583,4.9086,5.1792,5.2942,5.5344,5.7509,5.7848,5.7949,5.7442,5.5784,5.5683,5.6833,5.9708,6.1095,6.4309,7.2022,7.2834,7.4322,7.9532,8.1291,8.2238,8.2915,8.5858,8.8057,8.87,9.1372,9.3199,9.3571,9.3571,9.4214,9.5635,9.6413,9.7664,9.9491,9.9931,10.0168,10.0168,10.0202,10.0235,10.0235,9.9762,9.939,9.9085,9.8679,9.8307,9.8003,9.8003,9.7766,9.736,9.7022,9.6413,9.5702,9.577,9.6007,9.6379,9.7191,9.7698,9.8003,9.8003,9.8003,9.8003,9.8003,9.8003,9.8003,9.8003,9.8003,9.8003,9.8003,9.8003,9.8003,9.8003,9.8003,9.8003,9.8003,9.8003,9.8003,9.8003,9.8003,9.8003,9.8003,9.8341,9.8578,9.8578,9.8916,9.9221,9.9221,9.9221,9.9322,9.966,9.9442,9.9067,9.8751,9.8122,9.7311,9.6655,9.6268,9.5987,9.5987,9.5339,9.4821,9.44,9.44,9.4206,9.3817,9.3817,9.3817,9.3817,9.3817,9.3817,9.3817,9.3817,9.4011,4.6583,4.8376,5.115,5.5886,5.9133,6.1839,6.4309,6.4063,6.2897,6.1129,6.0842,6.1333,6.2629,6.5899,7.121,7.9769,7.7739,7.6893,8.2103,8.1054,8.1088,8.464,8.6264,8.826,9.1271,9.2793,9.3571,9.3571,9.3571,9.4045,9.5161,9.5736,9.6886,9.8747,9.9153,9.9457,9.9627,9.9863,9.9863,9.9694,9.8713,9.8375,9.8578,9.8172,9.7901,9.7766,9.7935,9.7563,9.6853,9.6683,9.5872,9.4755,9.5127,9.5398,9.5702,9.7191,9.7732,9.7766,9.7935,9.8003,9.8003,9.8003,9.8003,9.8003,9.8003,9.8003,9.8003,9.8003,9.8003,9.8003,9.8003,9.8003,9.8003,9.8003,9.8138,9.8273,9.8273,9.8409,9.8544,9.8544,9.8984,9.9356,9.9356,9.9829,10.0235,10.0235,10.0109,10.0049,10.0438,10.0345,10.003,9.9679,9.9152,9.8484,9.7699,9.7004,9.6756,9.6473,9.6149,9.5728,9.5177,9.5145,9.4886,9.4335,9.4335,9.4335,9.4335,9.4335,9.4335,9.4335,9.4335,9.4627,4.6583,5.1386,5.6427,5.7543,5.4465,5.3687,6.3396,6.2569,6.0908,6.5318,6.6394,6.672,6.7319,6.8842,7.0939,7.3747,7.7299,8.1528,8.6771,8.7922,8.8598,8.9613,9.0425,9.1271,9.2252,9.3098,9.3571,9.3571,9.3571,9.4518,9.6616,9.6785,9.8138,10.1081,10.0506,10.0506,10.1183,9.9863,9.8848,9.8172,9.8747,9.8307,9.7056,9.7698,9.7631,9.6988,9.7698,9.7563,9.6819,9.6142,9.5398,9.4654,9.3977,9.418,9.4958,9.6413,9.6954,9.7056,9.7766,9.8003,9.8003,9.8003,9.8003,9.8003,9.8003,9.8003,9.8003,9.8003,9.8003,9.8003,9.8003,9.8003,9.8003,9.8003,9.851,9.9018,9.9018,9.9559,10.0032,10.0032,10.01,10.0134,10.0134,10.0202,10.0235,10.0235,9.9659,9.9671,10.1055,10.0736,10.0449,10.1186,10.1219,10.055,9.9175,9.9035,9.8645,9.7962,9.6699,9.5954,9.589,9.589,9.589,9.5825,9.5825,9.5825,9.5825,9.5825,9.5825,9.5825,9.5825,9.5857,4.7293,5.2063,5.7103,5.8287,5.7426,5.8798,6.8353,6.8982,6.7482,6.7472,6.9522,7.1063,7.0305,7.5126,7.8822,7.7807,8.1426,8.5215,8.7651,8.9038,8.9884,9.0188,9.1271,9.2116,9.2387,9.3131,9.3571,9.3571,9.3571,9.4146,9.5466,9.5973,9.692,9.8544,9.9187,9.9457,9.9288,9.8713,9.8273,9.8003,9.78,9.7664,9.7563,9.7394,9.7394,9.7597,9.7867,9.7326,9.6176,9.5905,9.5093,9.4011,9.4214,9.4451,9.489,9.6345,9.6582,9.6379,9.7597,9.7698,9.7394,9.7867,9.8003,9.8003,9.8003,9.8307,9.8679,9.8679,9.9018,9.9288,9.8815,9.8679,9.8815,9.9288,9.9593,9.9796,9.9796,9.9999,10.0235,10.0235,10.0608,10.0912,10.0912,10.1318,10.1622,10.1622,10.1365,10.1467,10.2028,10.177,10.1809,10.2079,10.1685,10.0986,10.0034,9.9896,9.9757,9.9479,9.8144,9.7088,9.6634,9.6602,9.6408,9.5987,9.5987,9.5987,9.5987,9.5987,9.5987,9.5987,9.5987,9.6213,5.0351,5.3821,5.778,6.0452,6.0557,6.246,7.181,7.2376,7.1285,7.2049,7.4013,7.5206,7.386,7.9331,8.3296,8.0953,8.4302,8.7516,8.8226,8.941,9.029,9.0527,9.1643,9.2522,9.2759,9.3267,9.3571,9.3571,9.3571,9.4011,9.4992,9.5533,9.6345,9.7529,9.8341,9.8612,9.8341,9.8138,9.8003,9.8003,9.7225,9.7157,9.7631,9.736,9.7394,9.7664,9.7664,9.6954,9.577,9.5533,9.4857,9.4011,9.4755,9.506,9.5195,9.6413,9.6582,9.6311,9.7563,9.7664,9.736,9.8104,9.8341,9.8409,9.8645,9.9051,9.9457,9.9457,9.9829,10.0134,9.9897,9.9627,9.9559,10.01,10.0405,10.0608,10.0608,10.0811,10.0912,10.0912,10.1386,10.169,10.169,10.2198,10.2502,10.2502,10.2373,10.2209,10.2536,10.2373,10.2209,10.2536,10.2045,10.1353,10.0716,10.0547,10.0547,10.0308,9.9058,9.8295,9.7775,9.749,9.712,9.6667,9.6634,9.6634,9.6634,9.6634,9.6634,9.6634,9.6634,9.6894,5.5924,5.7225,5.9201,6.4343,6.2922,6.2829,7.2621,7.135,7.0686,7.9787,8.0582,7.9235,7.8269,8.0755,8.2618,8.1495,8.508,8.826,8.9004,8.9748,9.0493,9.1203,9.1981,9.2725,9.3503,9.3571,9.3571,9.3571,9.3605,9.4248,9.5702,9.5804,9.6819,9.9018,9.8375,9.8341,9.9051,9.8341,9.8003,9.8003,9.7225,9.6886,9.692,9.7664,9.7597,9.6886,9.6886,9.648,9.5736,9.4992,9.4721,9.4789,9.5499,9.5804,9.5872,9.6616,9.6886,9.6988,9.7766,9.8003,9.8138,9.8848,9.9119,9.9254,9.9999,10.0235,10.0235,10.0235,10.0235,10.0405,10.1183,10.0811,10.0235,10.0235,10.0811,10.1386,10.1386,10.1995,10.2502,10.2502,10.2502,10.2502,10.2502,10.2502,10.2502,10.2502,10.1948,10.1685,10.2373,10.185,10.1685,10.2373,10.2502,10.2209,10.1553,10.1387,10.112,10.0341,9.9618,9.9199,9.9199,9.8523,9.8124,9.8124,9.8124,9.8124,9.8124,9.8124,9.8124,9.8124,9.8124,9.8124,5.0827,5.7179,6.3125,6.2009,6.6446,7.1645,7.4292,7.4322,7.5721,8.2796,8.177,7.9592,7.9711,8.261,8.4316,8.2443,8.5418,8.8429,8.9715,9.0527,9.1237,9.2015,9.2759,9.3334,9.3571,9.3571,9.3571,9.3571,9.4079,9.4789,9.5736,9.6277,9.7089,9.8307,9.8104,9.7867,9.7529,9.7326,9.7225,9.7225,9.6988,9.7157,9.7664,9.736,9.7089,9.6886,9.6886,9.6176,9.5026,9.4789,9.5026,9.5499,9.5702,9.5804,9.5872,9.6616,9.6548,9.6379,9.8138,9.8442,9.8206,9.9491,9.9897,9.9931,10.0134,10.0608,10.1014,10.1014,10.1419,10.1893,10.2096,10.1995,10.1825,10.1825,10.1995,10.2198,10.2198,10.2299,10.2502,10.2502,10.2502,10.2502,10.2502,10.2502,10.2502,10.2502,10.2373,10.2277,10.2536,10.2373,10.2277,10.2536,10.2502,10.2373,10.2243,10.2243,10.2112,10.185,10.1153,10.0308,9.9199,9.8523,9.8124,9.8124,9.8124,9.8124,9.8124,9.8124,9.8124,9.8124,9.8124,9.8124,5.6643,6.1698,6.573,6.7624,7.1702,7.5937,7.8775,7.9039,7.9822,8.3409,8.3555,8.3018,8.2638,8.5685,8.7381,8.5052,8.6771,8.8835,9.0053,9.0831,9.1575,9.2319,9.3098,9.3571,9.3571,9.3571,9.3571,9.3571,9.4282,9.5026,9.577,9.621,9.692,9.7969,9.7428,9.7191,9.7326,9.7022,9.7022,9.7326,9.7326,9.7563,9.7969,9.7225,9.6886,9.6886,9.6886,9.621,9.5161,9.5466,9.5838,9.6244,9.6548,9.6683,9.6717,9.7157,9.7056,9.692,9.8544,9.8815,9.8679,10.0202,10.0709,10.0709,10.1014,10.1487,10.1792,10.1792,10.2198,10.2502,10.2502,10.2502,10.2502,10.2502,10.2502,10.2502,10.2502,10.2502,10.2502,10.2502,10.2502,10.2502,10.2502,10.2502,10.2502,10.2502,10.2502,10.2502,10.2502,10.2502,10.2502,10.2502,10.2502,10.2502,10.2502,10.2502,10.2373,10.2112,10.1618,10.0683,9.9339,9.8775,9.838,9.8124,9.8124,9.8124,9.8124,9.8124,9.8124,9.8124,9.8124,9.8124,6.7557,6.8046,6.7624,7.7198,7.7333,7.6979,8.4102,8.4161,8.2732,8.2785,8.5823,8.7917,8.6175,8.9038,9.0799,8.8515,8.87,8.9444,9.0222,9.0932,9.1677,9.2421,9.3165,9.3571,9.3571,9.3571,9.3571,9.3571,9.4282,9.5026,9.577,9.5804,9.648,9.7969,9.6616,9.6548,9.7901,9.7292,9.7292,9.7901,9.7969,9.7969,9.7867,9.7258,9.6954,9.6886,9.6819,9.6447,9.5939,9.6616,9.692,9.7056,9.7732,9.8003,9.8003,9.8003,9.8003,9.8138,9.8916,9.9187,9.9457,10.098,10.1487,10.1589,10.2299,10.2502,10.2502,10.2502,10.2502,10.2502,10.2502,10.2502,10.2502,10.2502,10.2502,10.2502,10.2502,10.2502,10.2502,10.2502,10.2502,10.2502,10.2502,10.2502,10.2502,10.2502,10.2502,10.2502,10.2502,10.2502,10.2502,10.2502,10.2502,10.2502,10.2502,10.2502,10.2209,10.1486,10.1353,10.0851,9.9339,9.9199,9.8775,9.8124,9.8124,9.8124,9.8124,9.8124,9.8124,9.8124,9.8124,9.8124,5.8027,6.483,7.1413,7.4221,7.6961,7.9632,8.18,8.2446,8.316,8.5753,8.6986,8.7401,8.6786,8.7871,8.8863,8.8913,8.9478,9.0222,9.0966,9.1711,9.2455,9.3233,9.347,9.3571,9.3571,9.3571,9.3571,9.3571,9.4282,9.5026,9.577,9.5804,9.648,9.7969,9.7123,9.6819,9.7123,9.7563,9.7563,9.7123,9.7732,9.7698,9.7123,9.7563,9.7428,9.6853,9.6277,9.6277,9.665,9.6819,9.7225,9.7766,9.7935,9.8003,9.8003,9.8003,9.8003,9.8206,9.9525,9.9965,10.0202,10.1792,10.2299,10.2299,10.2502,10.2502,10.2502,10.2502,10.2502,10.2502,10.2502,10.2502,10.2502,10.2502,10.2502,10.2502,10.2502,10.2502,10.2502,10.2502,10.2502,10.2502,10.2502,10.2502,10.2502,10.2502,10.2502,10.2502,10.2502,10.2502,10.2502,10.2502,10.2502,10.2502,10.2502,10.2502,10.2339,10.2243,10.1651,10.0986,10.0034,9.9479,9.8775,9.8124,9.8124,9.8124,9.8124,9.8124,9.8124,9.8124,9.8124,9.8124,6.0182,6.5595,6.9958,7.5337,7.845,8.0378,8.1122,8.1866,8.3021,8.5104,8.63,8.7045,8.6948,8.7786,8.8632,8.9038,8.9715,9.0459,9.1203,9.1947,9.2725,9.347,9.3571,9.3571,9.3571,9.3571,9.3571,9.3571,9.4282,9.5026,9.577,9.5804,9.648,9.7969,9.692,9.6683,9.7428,9.7461,9.7461,9.7428,9.7834,9.78,9.7428,9.7461,9.7258,9.6886,9.6853,9.7056,9.7428,9.7428,9.7664,9.8003,9.8003,9.8003,9.8003,9.8003,9.8003,9.8206,9.9694,10.0235,10.0506,10.2028,10.2502,10.2502,10.2502,10.2502,10.2502,10.2502,10.2502,10.2502,10.2502,10.2502,10.2502,10.2502,10.2502,10.2502,10.2502,10.2502,10.2502,10.2502,10.2502,10.2502,10.2502,10.2502,10.2502,10.2502,10.2502,10.2502,10.2502,10.2502,10.2502,10.2502,10.2502,10.2502,10.2502,10.2502,10.2339,10.1948,10.1914,10.1287,9.9896,9.9757,9.9199,9.8124,9.8124,9.8124,9.8124,9.8124,9.8124,9.8124,9.8124,9.8124,6.3666,6.6745,6.8233,7.7807,8.0209,8.0378,8.1122,8.1866,8.2611,8.3355,8.5317,8.6907,8.6907,8.8091,8.914,8.9241,8.9918,9.0662,9.1372,9.215,9.2861,9.3503,9.3571,9.3571,9.3571,9.3571,9.3571,9.3571,9.4282,9.5026,9.577,9.5905,9.6616,9.7969,9.6819,9.6785,9.8003,9.7394,9.7394,9.8003,9.8003,9.8003,9.8003,9.736,9.7089,9.7089,9.7732,9.8003,9.8003,9.8003,9.8003,9.8003,9.8003,9.8003,9.8003,9.8003,9.8003,9.8206,9.9694,10.0235,10.0506,10.2028,10.2502,10.2502,10.2502,10.2502,10.2502,10.2502,10.2502,10.2502,10.2502,10.2502,10.2502,10.2502,10.2502,10.2502,10.2502,10.2502,10.2502,10.2502,10.2502,10.2502,10.2502,10.2502,10.2502,10.2502,10.2502,10.2502,10.2502,10.2502,10.2502,10.2502,10.2502,10.2502,10.2502,10.2502,10.2209,10.1651,10.2045,10.1387,9.9479,9.9896,9.9479,9.8124,9.8124,9.8124,9.8124,9.8124,9.8124,9.8124,9.8124,9.8124,5.5378,6.3869,7.2766,7.872,8.0209,8.0378,8.1122,8.1866,8.2611,8.3355,8.5317,8.6907,8.6907,8.8091,8.9309,8.9951,9.0662,9.1406,9.215,9.2928,9.347,9.3571,9.3571,9.3571,9.3571,9.3571,9.3571,9.3571,9.4282,9.5026,9.577,9.6379,9.7123,9.7969,9.7834,9.78,9.8003,9.7901,9.7901,9.8003,9.8003,9.8003,9.8003,9.7901,9.7867,9.7867,9.7969,9.8003,9.8003,9.8003,9.8003,9.8003,9.8003,9.8003,9.8003,9.8003,9.8003,9.8206,9.9694,10.0235,10.0506,10.2028,10.2502,10.2502,10.2502,10.2502,10.2502,10.2502,10.2502,10.2502,10.2502,10.2502,10.2502,10.2502,10.2502,10.2502,10.2502,10.2502,10.2502,10.2502,10.2502,10.2502,10.2502,10.2502,10.2502,10.2502,10.2502,10.2502,10.2502,10.2502,10.2502,10.2502,10.2502,10.2502,10.2502,10.2502,10.2536,10.2406,10.1783,10.1086,10.0171,9.9618,9.8917,9.8124,9.8124,9.8124,9.8124,9.8124,9.8124,9.8124,9.8124,9.8124,5.7679,6.617,7.3646,7.8889,8.0209,8.0175,8.0073,8.1291,8.2509,8.2813,8.4708,8.6399,8.6839,8.8091,8.9207,8.9512,9.056,9.1406,9.1744,9.2827,9.3571,9.3571,9.3571,9.3571,9.3571,9.3571,9.3571,9.3571,9.4282,9.5026,9.577,9.6886,9.7664,9.8003,9.8409,9.8409,9.8003,9.8003,9.8003,9.8003,9.8003,9.8003,9.8003,9.8003,9.8003,9.8003,9.8003,9.8003,9.8003,9.8003,9.8003,9.8003,9.8003,9.824,9.8612,9.8612,9.8882,9.939,10.0506,10.0878,10.1081,10.213,10.2502,10.2502,10.2502,10.2502,10.2502,10.2502,10.2502,10.2502,10.2502,10.2502,10.2502,10.2502,10.2502,10.2502,10.2502,10.2502,10.2502,10.2502,10.2502,10.2502,10.2502,10.2502,10.2502,10.2502,10.2502,10.2502,10.2502,10.2502,10.2502,10.2502,10.2502,10.2502,10.2502,10.2502,10.2339,10.1948,10.1982,10.1253,9.9757,9.9757,9.9199,9.8124,9.8124,9.8124,9.8124,9.8124,9.8124,9.8124,9.8124,9.8124,5.8727,6.5189,7.0026,7.6589,7.8348,7.8686,7.9498,8.1088,8.2475,8.2644,8.4505,8.623,8.6805,8.7955,8.8937,8.9309,9.0459,9.1372,9.1541,9.2725,9.3571,9.3571,9.3571,9.3571,9.3571,9.3571,9.3571,9.3571,9.4451,9.5229,9.577,9.7563,9.8409,9.8037,9.8916,9.895,9.8037,9.8003,9.8003,9.8003,9.8003,9.8003,9.8003,9.8003,9.8003,9.8003,9.8003,9.8003,9.8003,9.8003,9.8003,9.8003,9.8003,9.8341,9.8848,9.9018,9.9322,9.9796,10.0777,10.1081,10.1183,10.1995,10.2299,10.2502,10.2502,10.2502,10.2502,10.2502,10.2502,10.2502,10.2502,10.2502,10.2502,10.2502,10.2502,10.2502,10.2502,10.2502,10.2502,10.2502,10.2502,10.2502,10.2502,10.2502,10.2502,10.2502,10.2502,10.2502,10.2502,10.2502,10.2502,10.2502,10.2502,10.2502,10.2502,10.2339,10.1948,10.1353,10.1651,10.112,9.9339,9.9757,9.9339,9.8124,9.8124,9.8124,9.8124,9.8124,9.8124,9.8124,9.8124,9.8124,5.3179,5.6325,6.0047,7.0263,7.3308,7.5134,8.004,8.1832,8.2611,8.3287,8.5249,8.6873,8.6907,8.755,8.8497,8.9918,9.0797,9.1541,9.2252,9.3064,9.3571,9.3571,9.3571,9.3571,9.3571,9.3571,9.3571,9.3571,9.4924,9.577,9.5804,9.8544,9.9457,9.8037,9.939,9.9457,9.8037,9.8003,9.8003,9.8003,9.8003,9.8003,9.8003,9.8003,9.8003,9.8003,9.8003,9.8003,9.8003,9.8003,9.8003,9.8003,9.8003,9.8037,9.8138,9.8848,9.8679,9.8341,9.9762,10.0303,10.0405,10.1183,10.1893,10.2502,10.2502,10.2502,10.2502,10.2502,10.2502,10.2502,10.2502,10.2502,10.2502,10.2502,10.2502,10.2502,10.2502,10.2502,10.2502,10.2502,10.2502,10.2502,10.2502,10.2502,10.2502,10.2502,10.2502,10.2502,10.2502,10.2502,10.2502,10.2502,10.2502,10.2502,10.2502,10.185,10.1353,10.1387,10.0851,10.0,9.9199,9.9199,9.8917,9.8124,9.8124,9.8124,9.8124,9.8124,9.8124,9.8124,9.8124,9.8124,5.2638,5.5344,5.8051,6.6068,7.0466,7.3409,7.5743,7.9464,8.2611,8.3355,8.4945,8.6467,8.7414,8.8192,8.8869,8.941,9.0121,9.0865,9.1609,9.2353,9.303,9.3537,9.3571,9.3571,9.3571,9.3571,9.3571,9.3571,9.4958,9.6007,9.648,9.8409,9.9254,9.8713,9.9221,9.9018,9.8037,9.8003,9.8003,9.8003,9.8003,9.8003,9.8003,9.8003,9.8003,9.8003,9.8003,9.8003,9.8003,9.8003,9.8003,9.8003,9.8003,9.8307,9.8815,9.9525,9.9965,10.0303,10.1318,10.169,10.1724,10.1995,10.2299,10.2502,10.2502,10.2502,10.2502,10.2502,10.2502,10.2502,10.2502,10.2502,10.2502,10.2502,10.2502,10.2502,10.2502,10.2502,10.2502,10.2502,10.2502,10.2502,10.2502,10.2502,10.2502,10.2502,10.2502,10.2502,10.2502,10.2502,10.2502,10.2502,10.2502,10.2502,10.2502,10.1783,10.1253,10.0683,10.0411,9.9757,9.8523,9.8917,9.8775,9.8124,9.8124,9.8124,9.8124,9.8124,9.8124,9.8124,9.8124,9.8124,5.0101,5.2334,5.46,6.0791,6.5155,6.8876,7.2631,7.6758,8.0513,8.2983,8.4505,8.5858,8.7347,8.8226,8.8801,8.9038,8.9715,9.0391,9.0865,9.1575,9.2319,9.3098,9.3199,9.33,9.3571,9.3808,9.3842,9.3605,9.5195,9.6277,9.6514,9.8138,9.9085,9.9085,9.8848,9.851,9.8003,9.8003,9.8003,9.8003,9.8003,9.8003,9.8003,9.8003,9.8003,9.8003,9.8003,9.8003,9.8003,9.8003,9.8003,9.8003,9.8003,9.8307,9.8848,9.9863,10.0202,10.0405,10.169,10.1792,10.1419,10.1622,10.1724,10.1792,10.2028,10.2096,10.2198,10.2401,10.2502,10.2502,10.2502,10.2502,10.2502,10.2502,10.2502,10.2502,10.2502,10.2502,10.2502,10.2502,10.2502,10.2502,10.2502,10.2502,10.2502,10.2502,10.2502,10.2502,10.2502,10.2502,10.2502,10.2502,10.2502,10.2373,10.2277,10.142,10.0683,10.0034,9.9757,9.9058,9.8124,9.8523,9.8665,9.8124,9.8124,9.8124,9.8124,9.8124,9.8124,9.8124,9.8124,9.8124,0.0,0.0,0.0,5.4228,5.7239,6.1467,7.0906,7.3883,7.6284,8.2069,8.3998,8.5114,8.6602,8.7482,8.8192,8.8937,8.9681,9.0188,9.0222,9.0865,9.1575,9.2353,9.2489,9.2793,9.3537,9.4282,9.4451,9.3706,9.5635,9.6582,9.5905,9.7901,9.9085,9.9051,9.8375,9.8003,9.8003,9.8003,9.8003,9.8003,9.8003,9.8003,9.8003,9.8003,9.8003,9.8003,9.8003,9.8003,9.8003,9.8003,9.8003,9.8003,9.8003,9.8003,9.8172,9.966,9.9288,9.8375,10.0608,10.0405,9.9322,10.0032,10.0303,10.0405,10.1183,10.1386,10.1589,10.2299,10.2502,10.2502,10.2502,10.2502,10.2502,10.2502,10.2502,10.2502,10.2502,10.2502,10.2502,10.2502,10.2502,10.2502,10.2502,10.2502,10.2502,10.2502,10.2502,10.2502,10.2502,10.2502,10.2502,10.2502,10.2502,10.2209,10.1553,10.0683,10.0034,9.9199,9.8523,9.8124,9.8124,9.8124,9.8124,9.8124,9.8124,9.8124,9.8124,9.8124,9.8124,9.8124,9.8124,9.8124,4.4621,0.0,0.0,0.0,0.0,0.0,6.2279,6.9451,7.5845,7.7502,8.19,8.5587,8.6027,8.6704,8.7448,8.8158,8.8903,8.9782,9.0865,9.1169,9.1778,9.3098,9.374,9.4146,9.4383,9.506,9.5398,0.0,9.6244,9.7022,9.736,9.8476,9.8848,9.8341,9.8104,9.8003,9.8003,9.8003,9.8003,9.8003,9.8003,9.8003,9.8003,9.8003,9.8003,9.8003,9.8003,9.8003,9.8003,9.8003,9.8003,9.8003,9.8003,9.8003,9.8104,9.9051,9.9491,9.9762,10.098,10.1487,10.1589,10.1825,10.1893,10.1927,10.2096,10.2198,10.2198,10.2401,10.2502,10.2502,10.2502,10.2502,10.2502,10.2502,10.2502,10.2502,10.2502,10.2502,10.2502,10.2502,10.2502,10.2502,10.2502,10.2502,10.2502,10.2502,10.2502,10.2502,10.2502,10.2502,10.2502,10.2502,10.2502,10.2209,10.1553,10.0683,10.0034,9.9199,9.8523,9.8124,9.8124,9.8124,9.8124,9.8124,9.8124,9.8124,9.8124,9.8124,9.8124,9.8124,9.8124,9.8124,4.4451,4.5603,4.6771,4.7319,0.0,0.0,6.1104,6.7557,7.3781,7.845,8.2543,8.5384,8.5723,8.6399,8.7042,8.7482,8.8158,8.9038,9.0222,9.0662,9.1271,9.2489,9.33,9.3876,9.4214,9.5195,9.5669,9.5364,9.6582,9.7529,9.8003,9.8409,9.8442,9.8037,9.8003,9.8003,9.8003,9.8003,9.8003,9.8003,9.8003,9.8003,9.8003,9.8003,9.8003,9.8003,9.8003,9.8003,9.8003,9.8003,9.8003,9.8003,9.8003,9.8003,9.8138,9.9187,9.966,9.9965,10.1386,10.169,10.1622,10.1893,10.1792,10.1622,10.1927,10.1995,10.2096,10.2401,10.2502,10.2502,10.2502,10.2502,10.2502,10.2502,10.2502,10.2502,10.2502,10.2502,10.2502,10.2502,10.2502,10.2502,10.2502,10.2502,10.2502,10.2502,10.2502,10.2502,10.2502,10.2502,10.2373,10.2112,10.2045,10.1651,10.058,10.0171,9.9479,9.8775,9.838,9.8124,9.8124,9.8124,9.8124,9.8124,9.8124,9.8124,9.8124,9.8124,9.8124,9.8124,9.8124,9.8124,4.4992,4.5665,4.6536,4.6758,4.8285,0.0,6.2595,6.5967,6.9755,7.9735,8.2306,8.2983,8.3659,8.4403,8.4945,8.5046,8.6163,8.7482,8.8869,8.9647,9.0391,9.1203,9.2049,9.2827,9.3503,9.4992,9.5635,9.4992,9.6853,9.8003,9.8003,9.807,9.8104,9.8003,9.807,9.8104,9.8003,9.8003,9.8003,9.8003,9.8003,9.8003,9.8003,9.8003,9.8003,9.8003,9.8003,9.8003,9.8003,9.8003,9.8003,9.8003,9.8003,9.8003,9.8172,9.9491,9.9593,9.939,10.1521,10.1419,10.0506,10.1284,10.1014,10.0608,10.1284,10.1487,10.169,10.2299,10.2502,10.2502,10.2502,10.2502,10.2502,10.2502,10.2502,10.2502,10.2502,10.2502,10.2502,10.2502,10.2502,10.2502,10.2502,10.2502,10.2502,10.2502,10.2502,10.2502,10.2502,10.2339,10.2079,10.1553,10.122,10.0683,9.9339,9.9199,9.8917,9.8124,9.8124,9.8124,9.8124,9.8124,9.8124,9.8124,9.8124,9.8124,9.8124,9.8124,9.8124,9.8124,9.8124,9.8124,4.7479,4.6335,4.6536,4.6758,4.7962,0.0,5.2738,5.7205,6.1366,6.3565,6.7827,7.121,7.1345,7.2022,7.2766,7.3341,7.7604,8.278,8.8294,8.9207,8.9816,9.1135,9.2522,9.3402,9.3571,9.5466,9.6616,9.648,9.7428,9.8003,9.8003,9.8578,9.8612,9.8037,9.8578,9.8612,9.8003,9.8003,9.8003,9.8003,9.8003,9.8003,9.8003,9.8003,9.8003,9.8003,9.8003,9.8003,9.8003,9.8003,9.8003,9.8003,9.8003,9.8003,9.8037,9.8341,9.8713,9.9254,10.0303,10.0912,10.1284,10.2028,10.2198,10.2096,10.2231,10.2299,10.2299,10.2502,10.2502,10.2502,10.2502,10.2502,10.2502,10.2502,10.2502,10.2502,10.2502,10.2502,10.2502,10.2502,10.2502,10.2502,10.2502,10.2502,10.2502,10.2502,10.2502,10.2502,10.2502,10.1948,10.1553,10.1387,10.0884,10.0204,9.9339,9.9199,9.8917,9.8124,9.8124,9.8124,9.8124,9.8124,9.8124,9.8124,9.8124,9.8124,9.8124,9.8124,9.8124,9.8124,9.8124,9.8124,4.9116,4.7492,4.7488,4.7729,4.8541,0.0,0.0,5.7117,6.0183,6.29,6.6136,6.8368,6.7963,6.8842,6.9654,6.9654,7.4661,7.8822,7.9566,8.5418,9.0053,9.1169,9.1981,9.259,9.2962,9.4349,9.5533,9.6277,9.7022,9.7428,9.7428,9.8138,9.8375,9.8037,9.8375,9.8375,9.8003,9.8003,9.8003,9.8003,9.8003,9.8003,9.8003,9.8003,9.8003,9.8003,9.8003,9.8003,9.8003,9.8003,9.8003,9.8003,9.8003,9.8003,9.8037,9.8409,9.8781,9.9254,10.0405,10.1081,10.1487,10.2299,10.2502,10.2502,10.2502,10.2502,10.2502,10.2502,10.2502,10.2502,10.2502,10.2502,10.2502,10.2502,10.2502,10.2502,10.2502,10.2502,10.2502,10.2502,10.2502,10.2502,10.2502,10.2502,10.2502,10.2502,10.2502,10.2502,10.2502,10.2243,10.1817,10.1353,10.0851,10.0171,9.9339,9.9058,9.8665,9.8124,9.8124,9.8124,9.8124,9.8124,9.8124,9.8124,9.8124,9.8124,9.8124,9.8124,9.8124,9.8124,9.8124,9.8124,5.1158,4.9078,4.8889,4.9104,4.9338,5.0871,0.0,0.0,0.0,6.3747,6.5149,6.542,6.4911,6.5963,0.0,6.5561,0.0,0.0,0.0,7.8822,0.0,8.755,8.9681,9.1,9.0729,9.1812,9.3436,9.5635,9.5533,9.5838,9.6819,9.7597,9.8003,9.8003,9.8138,9.8138,9.8003,9.8003,9.8003,9.8003,9.8003,9.8003,9.8003,9.8003,9.8003,9.8003,9.8003,9.8003,9.8003,9.8003,9.8003,9.8003,9.8003,9.8003,9.807,9.8679,9.8984,9.9288,10.0675,10.1284,10.1487,10.2299,10.2502,10.2502,10.2502,10.2502,10.2502,10.2502,10.2502,10.2502,10.2502,10.2502,10.2502,10.2502,10.2502,10.2502,10.2502,10.2502,10.2502,10.2502,10.2502,10.2536,10.2373,10.2373,10.2536,10.2373,10.2373,10.2536,10.2373,10.2339,10.2045,10.142,10.0851,10.0242,9.9339,9.8949,9.8555,9.8124,9.8124,9.8124,9.8124,9.8124,9.8124,9.8124,9.8124,9.8124,9.8124,9.8124,9.8124,9.8124,9.8124,9.8124,5.5186,5.1351,5.0311,5.0523,5.0066,4.98,0.0,0.0,5.1365,5.2619,0.0,5.3238,5.3788,0.0,0.0,0.0,0.0,0.0,6.1535,6.8301,7.3747,7.4458,8.3896,8.8801,8.4877,8.7008,9.0628,9.5432,9.2184,9.1981,9.6616,9.7597,9.8003,9.8003,9.8645,9.8645,9.8003,9.8003,9.8003,9.8003,9.8003,9.8003,9.8003,9.8003,9.8003,9.8003,9.8003,9.8003,9.8003,9.8003,9.8003,9.8003,9.8003,9.8003,9.8037,9.8104,9.8544,9.9221,10.0032,10.0811,10.1487,10.2299,10.2502,10.2502,10.2502,10.2502,10.2502,10.2502,10.2502,10.2502,10.2502,10.2502,10.2502,10.2502,10.2502,10.2502,10.2502,10.2502,10.2502,10.2502,10.2502,10.2243,10.1651,10.2112,10.2243,10.1651,10.2112,10.2373,10.2045,10.1651,10.142,10.0952,10.0209,9.9724,9.9199,9.8949,9.8555,9.8124,9.8124,9.8124,9.8124,9.8124,9.8124,9.8124,9.8124,9.8124,9.8124,9.8124,9.8124,9.8124,9.8124,9.8124,5.6284,5.5666,5.658,0.0,0.0,0.0,5.2529,0.0,5.156,0.0,0.0,0.0,0.0,0.0,0.0,0.0,5.6507,0.0,0.0,0.0,7.0974,0.0,0.0,0.0,8.2035,0.0,0.0,0.0,9.33,9.3943,9.6142,9.6954,9.7563,9.8003,9.8307,9.8307,9.8003,9.8003,9.8003,9.8003,9.8003,9.8003,9.8003,9.8003,9.8003,9.8003,9.8003,9.8003,9.8003,9.8003,9.8003,9.8003,9.8003,9.8003,9.8003,9.8003,9.8476,9.9221,9.9965,10.0709,10.1487,10.2299,10.2502,10.2502,10.2502,10.2502,10.2502,10.2502,10.2502,10.2502,10.2502,10.2502,10.2502,10.2502,10.2502,10.2502,10.2502,10.2502,10.2502,10.2502,10.2502,10.2243,10.1519,10.1685,10.1948,10.1948,10.1914,10.1817,10.1618,10.1948,10.1651,10.0547,10.0547,10.0275,9.9339,9.9058,9.8808,9.8555,9.8412,9.8412,9.8124,9.8124,9.8124,9.8124,9.8124,9.8124,9.8124,9.8124,9.8124,9.8124,9.8124,9.8124,5.9868,0.0,0.0,0.0,0.0,0.0,0.0,0.0,0.0,0.0,0.0,0.0,0.0,0.0,0.0,0.0,0.0,5.5654,0.0,5.8655,0.0,0.0,0.0,0.0,0.0,0.0,0.0,0.0,0.0,9.4214,9.5432,9.6176,9.692,9.7664,9.7901,9.8003,9.8003,9.8003,9.8003,9.8003,9.8003,9.8003,9.8003,9.8003,9.8003,9.8003,9.8003,9.8003,9.8003,9.8003,9.8003,9.8003,9.8003,9.8003,9.8003,9.8003,9.8476,9.9187,9.9728,10.0574,10.1487,10.2299,10.2502,10.2502,10.2502,10.2502,10.2502,10.2502,10.2502,10.2502,10.2502,10.2502,10.2502,10.2502,10.2502,10.2502,10.2502,10.2502,10.2502,10.2502,10.2502,10.2339,10.1817,10.1486,10.1553,10.2079,10.1553,10.1253,10.1519,10.1651,10.1519,10.0547,10.0683,10.0547,9.9479,9.9339,9.9058,9.8698,9.8555,9.838,9.8124,9.8124,9.8124,9.8124,9.8124,9.8124,9.8124,9.8124,9.8124,9.8124,9.8124,9.8124,0.0,0.0,0.0,5.7369,0.0,0.0,0.0,0.0,5.3758,0.0,0.0,0.0,0.0,0.0,0.0,0.0,0.0,0.0,0.0,0.0,0.0,0.0,0.0,0.0,0.0,0.0,0.0,0.0,0.0,0.0,9.4518,9.5432,9.6176,9.6886,9.7631,9.8003,9.8003,9.8003,9.8003,9.8003,9.8003,9.8003,9.8003,9.8003,9.8003,9.8003,9.8003,9.8003,9.8003,9.8003,9.8003,9.8003,9.8003,9.8003,9.8003,9.8003,9.8476,9.9085,9.9119,10.01,10.1487,10.2299,10.2502,10.2502,10.2502,10.2502,10.2502,10.2502,10.2502,10.2502,10.2502,10.2502,10.2502,10.2502,10.2502,10.2502,10.2502,10.2502,10.2502,10.2502,10.2502,10.2502,10.2536,10.1948,10.1387,10.1353,10.0851,10.0683,10.1783,10.0986,10.0444,10.0851,10.0138,9.9724,9.9757,9.9479,9.9058,9.8698,9.8412,9.8124,9.8124,9.8124,9.8124,9.8124,9.8124,9.8124,9.8124,9.8124,9.8124,9.8124,9.8124,9.8124,0.0,0.0,7.4138,6.5337,0.0,0.0,0.0,0.0,0.0,0.0,0.0,0.0,0.0,0.0,5.1847,0.0,0.0,0.0,0.0,0.0,0.0,0.0,0.0,0.0,0.0,0.0,0.0,0.0,0.0,0.0,0.0,9.5669,9.6345,9.7597,9.7867,9.8003,9.8003,9.8003,9.8003,9.8003,9.8003,9.8003,9.8003,9.8003,9.8003,9.8003,9.8003,9.8003,9.8003,9.8003,9.8003,9.8003,9.8003,9.8003,9.8003,9.8003,9.8476,9.9153,9.966,10.0506,10.1386,10.169,10.2096,10.2502,10.2502,10.2502,10.2502,10.2502,10.2502,10.2502,10.2502,10.2502,10.2401,10.1893,10.1792,10.1792,10.1792,10.1792,10.1893,10.2401,10.2502,10.2502,10.2502,10.1948,10.1387,10.1387,10.0749,10.0341,10.0105,10.0138,10.0034,9.9058,9.9618,9.9757,9.9091,9.9199,9.8917,9.8412,9.8412,9.8412,9.8124,9.8124,9.8124,9.8124,9.8124,9.8124,9.8124,9.8124,9.8124,9.8124,9.8124,9.8124,7.7869,7.9933,0.0,7.1639,7.1857,0.0,6.3382,0.0,5.9398,0.0,0.0,0.0,0.0,0.0,0.0,0.0,0.0,0.0,0.0,4.9971,0.0,0.0,0.0,0.0,0.0,0.0,0.0,0.0,0.0,0.0,0.0,0.0,9.6514,9.7191,9.7732,9.8003,9.8003,9.8003,9.8003,9.8003,9.8003,9.8003,9.8003,9.8003,9.8003,9.8003,9.8003,9.8003,9.8003,9.8003,9.8003,9.8003,9.8003,9.8003,9.8003,9.8003,9.8307,9.8815,9.9559,10.01,10.0675,10.1183,10.169,10.2198,10.2401,10.2299,10.2198,10.2705,10.2502,10.2198,10.2806,10.2502,10.2096,10.1792,10.1589,10.1487,10.169,10.1792,10.1893,10.2096,10.2096,10.1995,10.1724,10.1506,10.1514,10.1817,10.0683,9.9896,10.0034,9.9757,9.9199,9.8523,9.9058,9.9339,9.8949,9.8949,9.8949,9.8523,9.8523,9.8412,9.8124,9.8124,9.7865,9.7347,9.7865,9.7865,9.7347,9.7865,9.8124,9.8124,9.8124,9.8124]},{"header":{"parameterUnit":"m.s-1","parameterCategory":1,"la1":30.6,"la2":29.2853,"lo1":-89.7004,"lo2":-87.6739,"dx":0.0162,"dy":0.0183,"nx":112,"ny":82,"refTime":"2022-12-10T18:00:00:Z","depth":0,"parameterNumber":3,"parameterNumberName":"V-component_of_WINDS"},"data":[0.0,0.0,0.0,0.0,0.0,0.0,0.0,0.0,0.0,0.0,0.0,0.0,0.0,0.0,0.0,0.0,0.0,0.0,0.0,0.0,0.0,0.0,0.0,0.0,0.0,0.0,0.0,0.0,0.0,0.0,0.0,0.0,0.0,0.0,0.0,0.0,0.0,0.0,0.0,0.0,0.0,0.0,0.0,0.0,0.0,0.0,0.0,0.0,0.0,0.0,0.0,0.0,0.0,0.0,0.0,0.0,0.0,0.0,0.0,0.0,0.0,0.0,0.0,0.0,0.0,0.0,0.0,0.0,0.0,0.0,0.0,0.0,0.0,0.0,0.0,0.0,0.0,0.0,0.0,0.0,0.0,0.0,0.0,0.0,0.0,0.0,0.0,0.0,0.0,0.0,-3.0192,-3.1567,-3.596,-3.8859,-3.8947,-3.8117,-3.5381,-2.9985,0.0,0.0,0.0,0.0,0.0,0.0,0.0,0.0,0.0,0.0,0.0,0.0,0.0,0.0,0.0,0.0,0.0,0.0,0.0,0.0,0.0,0.0,0.0,0.0,0.0,0.0,0.0,0.0,0.0,0.0,0.0,0.0,0.0,0.0,0.0,0.0,0.0,0.0,0.0,0.0,0.0,0.0,0.0,0.0,0.0,0.0,0.0,0.0,0.0,0.0,0.0,0.0,0.0,0.0,0.0,0.0,0.0,0.0,0.0,0.0,0.0,0.0,0.0,0.0,0.0,0.0,0.0,0.0,0.0,0.0,0.0,0.0,0.0,0.0,0.0,0.0,0.0,0.0,0.0,0.0,0.0,0.0,0.0,0.0,0.0,0.0,0.0,0.0,0.0,0.0,0.0,0.0,0.0,0.0,0.0,0.0,0.0,0.0,0.0,0.0,0.0,0.0,0.0,0.0,-3.1823,-3.7536,-3.8597,-3.8991,-3.9406,-3.8925,-3.6134,-3.052,0.0,0.0,0.0,0.0,0.0,0.0,0.0,0.0,0.0,0.0,0.0,0.0,0.0,0.0,0.0,0.0,0.0,0.0,0.0,0.0,0.0,0.0,0.0,0.0,0.0,0.0,0.0,0.0,0.0,0.0,0.0,0.0,0.0,0.0,0.0,0.0,0.0,0.0,0.0,0.0,0.0,0.0,0.0,0.0,0.0,0.0,0.0,0.0,0.0,0.0,0.0,0.0,0.0,0.0,0.0,0.0,0.0,0.0,0.0,0.0,0.0,0.0,0.0,0.0,0.0,0.0,0.0,0.0,0.0,0.0,0.0,0.0,0.0,0.0,0.0,0.0,0.0,0.0,0.0,0.0,0.0,0.0,0.0,0.0,0.0,0.0,0.0,0.0,0.0,0.0,0.0,0.0,0.0,0.0,0.0,0.0,0.0,0.0,0.0,0.0,0.0,0.0,0.0,-2.9942,-3.3224,-3.9689,-3.9908,-3.9711,-3.993,-3.9493,-3.6839,-3.1013,-2.9385,0.0,0.0,0.0,0.0,0.0,0.0,0.0,0.0,0.0,0.0,0.0,0.0,0.0,0.0,0.0,0.0,0.0,0.0,0.0,0.0,0.0,0.0,0.0,0.0,0.0,0.0,0.0,0.0,0.0,0.0,0.0,0.0,0.0,0.0,0.0,0.0,0.0,0.0,0.0,0.0,0.0,0.0,0.0,0.0,0.0,0.0,0.0,0.0,0.0,0.0,0.0,0.0,0.0,0.0,0.0,0.0,0.0,0.0,0.0,0.0,0.0,0.0,0.0,0.0,0.0,0.0,0.0,0.0,0.0,0.0,0.0,0.0,0.0,0.0,0.0,0.0,0.0,0.0,0.0,0.0,0.0,0.0,0.0,0.0,0.0,0.0,0.0,0.0,0.0,0.0,0.0,0.0,0.0,0.0,0.0,0.0,0.0,0.0,0.0,0.0,0.0,0.0,-3.2921,-3.5561,-4.0367,-4.0498,-4.0279,-4.0279,-3.993,-3.734,-3.1505,-3.0285,0.0,0.0,0.0,0.0,0.0,0.0,0.0,0.0,0.0,0.0,0.0,0.0,0.0,0.0,0.0,0.0,0.0,0.0,0.0,0.0,0.0,0.0,0.0,0.0,0.0,0.0,0.0,0.0,0.0,0.0,0.0,0.0,0.0,0.0,0.0,0.0,0.0,0.0,0.0,0.0,0.0,0.0,0.0,0.0,0.0,0.0,0.0,0.0,0.0,0.0,0.0,0.0,0.0,0.0,0.0,0.0,0.0,0.0,0.0,0.0,0.0,0.0,0.0,0.0,0.0,0.0,0.0,0.0,0.0,0.0,0.0,0.0,0.0,0.0,0.0,0.0,0.0,0.0,0.0,0.0,0.0,0.0,0.0,0.0,0.0,0.0,0.0,0.0,0.0,0.0,0.0,0.0,0.0,0.0,0.0,0.0,0.0,0.0,0.0,0.0,0.0,0.0,-3.6438,-3.9886,-4.0279,-4.0301,-4.0279,-4.0279,-4.0236,-3.7718,-3.1785,-3.0696,0.0,0.0,0.0,0.0,0.0,0.0,0.0,0.0,0.0,0.0,0.0,0.0,0.0,0.0,0.0,0.0,0.0,0.0,0.0,0.0,0.0,0.0,0.0,0.0,0.0,0.0,0.0,0.0,0.0,0.0,0.0,0.0,0.0,0.0,0.0,0.0,0.0,0.0,0.0,0.0,0.0,0.0,0.0,0.0,0.0,0.0,0.0,0.0,0.0,0.0,0.0,0.0,0.0,0.0,0.0,0.0,0.0,0.0,0.0,0.0,0.0,0.0,0.0,0.0,0.0,0.0,0.0,0.0,0.0,0.0,0.0,0.0,0.0,0.0,0.0,0.0,0.0,0.0,0.0,0.0,0.0,0.0,0.0,0.0,0.0,0.0,0.0,0.0,0.0,0.0,0.0,0.0,0.0,0.0,0.0,0.0,0.0,0.0,0.0,0.0,0.0,0.0,-3.6037,-3.9365,-4.1,-4.1153,-4.1044,-4.076,-4.0738,-3.8087,-3.1955,0.0,0.0,0.0,0.0,0.0,0.0,0.0,0.0,0.0,0.0,0.0,0.0,0.0,0.0,0.0,0.0,0.0,0.0,0.0,0.0,0.0,0.0,0.0,0.0,0.0,0.0,0.0,0.0,0.0,0.0,0.0,0.0,0.0,0.0,0.0,0.0,0.0,0.0,0.0,0.0,0.0,0.0,0.0,0.0,0.0,0.0,0.0,0.0,0.0,0.0,0.0,0.0,0.0,0.0,0.0,0.0,0.0,0.0,0.0,0.0,0.0,0.0,0.0,0.0,0.0,0.0,0.0,0.0,0.0,0.0,0.0,0.0,0.0,0.0,0.0,0.0,0.0,0.0,0.0,0.0,0.0,0.0,0.0,0.0,0.0,0.0,0.0,0.0,0.0,0.0,0.0,0.0,0.0,0.0,0.0,0.0,0.0,0.0,0.0,0.0,0.0,0.0,-3.2319,-3.6427,-3.9735,-4.1524,-4.1699,-4.1568,-4.1262,-4.1087,-3.8412,-3.2295,0.0,0.0,0.0,0.0,0.0,0.0,0.0,0.0,0.0,0.0,0.0,0.0,0.0,0.0,0.0,0.0,0.0,0.0,0.0,0.0,0.0,0.0,0.0,0.0,0.0,0.0,0.0,0.0,0.0,0.0,0.0,0.0,0.0,0.0,0.0,0.0,0.0,0.0,0.0,0.0,0.0,0.0,0.0,0.0,0.0,0.0,0.0,0.0,0.0,0.0,0.0,0.0,0.0,0.0,0.0,0.0,0.0,0.0,0.0,0.0,0.0,0.0,0.0,0.0,0.0,0.0,0.0,0.0,0.0,0.0,0.0,0.0,0.0,0.0,0.0,0.0,0.0,0.0,0.0,0.0,0.0,0.0,0.0,0.0,0.0,0.0,0.0,0.0,0.0,0.0,0.0,0.0,0.0,0.0,0.0,0.0,0.0,0.0,0.0,0.0,0.0,0.0,-3.3005,-3.8174,-4.1721,-4.1721,-4.1721,-4.1699,-4.1699,-4.1284,-3.8568,0.0,0.0,0.0,0.0,0.0,0.0,0.0,0.0,0.0,0.0,0.0,0.0,0.0,0.0,0.0,0.0,0.0,0.0,0.0,0.0,0.0,0.0,0.0,0.0,0.0,0.0,0.0,0.0,0.0,0.0,0.0,0.0,0.0,0.0,0.0,0.0,0.0,0.0,0.0,0.0,0.0,0.0,0.0,0.0,0.0,0.0,0.0,0.0,0.0,0.0,0.0,0.0,0.0,0.0,0.0,0.0,0.0,0.0,0.0,0.0,0.0,0.0,0.0,0.0,0.0,0.0,0.0,0.0,0.0,0.0,0.0,0.0,0.0,0.0,0.0,0.0,0.0,0.0,0.0,0.0,0.0,0.0,0.0,0.0,0.0,0.0,0.0,0.0,0.0,0.0,0.0,0.0,0.0,0.0,0.0,0.0,0.0,0.0,0.0,0.0,0.0,0.0,0.0,-3.3583,-3.9259,-4.3228,-4.3228,-4.3228,-4.3097,-4.2769,-4.2617,-3.978,-3.3071,0.0,0.0,0.0,0.0,0.0,0.0,0.0,0.0,0.0,0.0,0.0,0.0,0.0,0.0,0.0,0.0,0.0,0.0,0.0,0.0,0.0,0.0,0.0,0.0,0.0,0.0,0.0,0.0,0.0,0.0,0.0,0.0,0.0,0.0,0.0,0.0,0.0,0.0,0.0,0.0,0.0,0.0,0.0,0.0,0.0,0.0,0.0,0.0,0.0,0.0,0.0,0.0,0.0,0.0,0.0,0.0,0.0,0.0,0.0,0.0,0.0,0.0,0.0,0.0,0.0,0.0,0.0,0.0,0.0,0.0,0.0,0.0,0.0,0.0,0.0,0.0,0.0,0.0,0.0,0.0,0.0,0.0,0.0,0.0,0.0,0.0,0.0,0.0,0.0,0.0,0.0,0.0,0.0,0.0,0.0,0.0,0.0,0.0,0.0,0.0,0.0,0.0,-3.4354,-4.0127,-4.4233,-4.443,-4.4255,-4.4036,-4.3752,-4.3403,-4.0753,-3.5086,0.0,0.0,0.0,0.0,0.0,0.0,0.0,0.0,0.0,0.0,0.0,0.0,0.0,0.0,0.0,0.0,0.0,0.0,0.0,0.0,0.0,0.0,0.0,0.0,0.0,0.0,0.0,0.0,0.0,0.0,0.0,0.0,0.0,0.0,0.0,0.0,0.0,0.0,0.0,0.0,0.0,0.0,0.0,0.0,0.0,0.0,0.0,0.0,0.0,0.0,0.0,0.0,0.0,0.0,0.0,0.0,0.0,0.0,0.0,0.0,0.0,0.0,0.0,0.0,0.0,0.0,0.0,0.0,0.0,0.0,0.0,0.0,0.0,0.0,0.0,0.0,0.0,0.0,0.0,0.0,0.0,0.0,0.0,0.0,0.0,0.0,0.0,0.0,0.0,0.0,0.0,0.0,0.0,0.0,0.0,0.0,0.0,0.0,0.0,0.0,0.0,0.0,-3.5232,-4.0821,-4.4845,-4.5325,-4.4976,-4.4713,-4.467,-4.3905,-4.1943,-3.813,0.0,0.0,0.0,0.0,0.0,0.0,0.0,0.0,0.0,0.0,0.0,0.0,0.0,0.0,0.0,0.0,0.0,0.0,0.0,0.0,0.0,0.0,0.0,0.0,0.0,0.0,0.0,0.0,0.0,0.0,0.0,0.0,0.0,0.0,0.0,0.0,0.0,0.0,0.0,0.0,0.0,0.0,0.0,0.0,0.0,0.0,0.0,0.0,0.0,0.0,0.0,0.0,0.0,0.0,0.0,0.0,0.0,0.0,0.0,0.0,-2.5449,-2.2663,0.0,0.0,0.0,0.0,0.0,0.0,0.0,0.0,0.0,0.0,0.0,0.0,0.0,0.0,0.0,0.0,0.0,0.0,0.0,0.0,0.0,0.0,0.0,0.0,0.0,0.0,0.0,0.0,0.0,0.0,0.0,0.0,0.0,0.0,0.0,0.0,0.0,0.0,0.0,0.0,-3.5789,-4.1299,-4.5347,-4.5806,-4.5762,-4.5544,-4.5194,-4.5303,-4.3751,-3.9939,-3.8895,0.0,0.0,0.0,0.0,0.0,0.0,0.0,0.0,0.0,0.0,0.0,0.0,0.0,0.0,0.0,0.0,0.0,0.0,0.0,0.0,0.0,0.0,0.0,0.0,0.0,0.0,0.0,0.0,0.0,0.0,0.0,0.0,0.0,0.0,0.0,0.0,0.0,0.0,0.0,0.0,0.0,0.0,0.0,0.0,0.0,0.0,0.0,0.0,0.0,0.0,0.0,0.0,0.0,0.0,0.0,0.0,0.0,0.0,0.0,-2.832,-2.6426,0.0,0.0,0.0,0.0,0.0,0.0,0.0,0.0,0.0,0.0,0.0,0.0,0.0,0.0,0.0,0.0,0.0,0.0,0.0,0.0,0.0,0.0,0.0,0.0,0.0,0.0,0.0,0.0,0.0,0.0,0.0,0.0,0.0,0.0,0.0,0.0,0.0,0.0,0.0,0.0,-3.6903,-4.2297,-4.6264,-4.6963,-4.6854,-4.6614,-4.6374,-4.6352,-4.5205,-4.2685,-4.1173,0.0,0.0,0.0,0.0,0.0,0.0,0.0,0.0,0.0,0.0,0.0,0.0,0.0,0.0,0.0,0.0,0.0,0.0,0.0,0.0,0.0,0.0,0.0,0.0,0.0,0.0,0.0,0.0,0.0,0.0,0.0,0.0,0.0,0.0,0.0,0.0,0.0,0.0,0.0,0.0,0.0,0.0,0.0,0.0,0.0,0.0,0.0,0.0,0.0,0.0,0.0,0.0,0.0,-3.003,-3.0463,-3.1151,-3.1035,-3.2129,-3.4043,-3.1211,-3.0723,-3.166,-2.7715,0.0,0.0,0.0,0.0,0.0,0.0,0.0,0.0,0.0,0.0,0.0,0.0,0.0,0.0,0.0,0.0,0.0,0.0,0.0,0.0,0.0,0.0,-3.3833,-3.3883,-3.6295,-3.7612,-3.3501,0.0,0.0,0.0,0.0,0.0,0.0,0.0,0.0,0.0,0.0,0.0,-3.8616,-4.3556,-4.716,-4.7968,-4.7793,-4.7575,-4.7488,-4.7182,-4.6485,-4.5405,-4.3236,-4.0985,0.0,0.0,0.0,0.0,0.0,0.0,0.0,0.0,0.0,0.0,0.0,0.0,0.0,0.0,0.0,0.0,0.0,0.0,0.0,0.0,0.0,0.0,0.0,0.0,0.0,0.0,0.0,0.0,0.0,0.0,0.0,0.0,-2.519,-2.5785,0.0,0.0,0.0,0.0,0.0,0.0,0.0,0.0,0.0,0.0,0.0,0.0,0.0,-2.886,-2.9141,-3.1484,-3.3085,-3.3737,-3.5323,-3.6561,-3.7225,-3.6543,-3.666,-3.7305,-3.6855,0.0,-3.3691,-3.3066,0.0,0.0,0.0,0.0,0.0,0.0,0.0,0.0,0.0,0.0,0.0,0.0,0.0,0.0,0.0,0.0,0.0,0.0,0.0,0.0,0.0,0.0,-3.9342,-4.0498,-4.0688,-4.0738,-4.138,-3.6708,-3.2595,-3.3424,-3.3555,-3.2834,0.0,0.0,0.0,0.0,0.0,0.0,-4.1813,-4.5244,-4.7444,-4.7575,-4.7881,-4.7924,-4.7531,-4.7793,-4.7793,-4.716,-4.6376,-4.4402,-4.0822,-3.9277,0.0,0.0,0.0,0.0,0.0,0.0,0.0,0.0,0.0,0.0,0.0,0.0,0.0,0.0,0.0,0.0,0.0,0.0,0.0,0.0,0.0,0.0,0.0,0.0,0.0,0.0,0.0,0.0,0.0,-2.3432,-2.4609,-2.5664,-2.4751,-2.3541,0.0,0.0,0.0,0.0,0.0,0.0,0.0,0.0,0.0,-3.1094,-3.1762,-3.267,-3.3887,-3.4805,-3.5622,-3.6384,-3.7249,-3.8034,-3.8793,-3.8779,-3.8984,-3.9375,-3.9375,-3.8887,-3.7891,-3.5723,-3.3711,-3.1875,0.0,0.0,0.0,0.0,-2.9629,-2.9941,-3.209,-3.2851,-3.2656,-3.1523,0.0,0.0,0.0,0.0,0.0,0.0,0.0,-3.2615,-3.5963,-3.7893,-3.9528,-4.2158,-4.2897,-4.3278,-4.3863,-4.2068,-3.9647,-3.7634,-3.656,-3.5248,-3.2658,-3.418,0.0,0.0,0.0,-4.1216,-4.3305,-4.6093,-4.7968,-4.8252,-4.8471,-4.8492,-4.8296,-4.8471,-4.8383,-4.7903,-4.7924,-4.6616,-4.3611,-4.1635,-3.8603,0.0,0.0,0.0,0.0,0.0,0.0,0.0,0.0,0.0,0.0,0.0,0.0,0.0,0.0,0.0,0.0,0.0,0.0,0.0,0.0,0.0,0.0,0.0,0.0,0.0,0.0,0.0,0.0,-2.503,-2.5952,-2.6558,-2.6927,-2.63,0.0,0.0,0.0,0.0,0.0,0.0,-3.0195,-3.1054,-3.2505,-3.4668,-3.5191,-3.625,-3.7949,-3.7754,-3.7969,-3.8594,-3.8809,-3.9199,-3.9726,-4.0176,-4.0547,-4.084,-4.084,-4.1094,-4.125,-3.8144,-3.6543,-3.5879,-3.4277,-3.3301,-3.2891,-3.3437,-3.3574,-3.3789,-3.5957,-3.6562,-3.625,-3.5605,-3.5019,-3.4453,-3.3828,0.0,0.0,0.0,0.0,-3.4527,-3.8036,-3.9065,-3.98,-4.2647,-4.3949,-4.4842,-4.4994,-4.5078,-4.4337,-4.1813,-4.0672,-3.9163,-3.6146,-3.7933,0.0,-3.7423,-4.0394,-4.3465,-4.5227,-4.7094,-4.8492,-4.8864,-4.8907,-4.8907,-4.8907,-4.8907,-4.8689,-4.8208,-4.8514,-4.7874,-4.5741,-4.3803,-4.1686,-3.9226,0.0,0.0,0.0,0.0,0.0,0.0,0.0,0.0,0.0,0.0,0.0,0.0,0.0,0.0,0.0,0.0,0.0,0.0,0.0,0.0,0.0,0.0,0.0,0.0,0.0,0.0,0.0,0.0,0.0,-3.0852,-3.3098,0.0,0.0,0.0,0.0,-3.0643,-3.0703,-3.166,-3.3711,-3.4863,-3.6316,-3.8242,-3.8918,-3.9539,-3.9746,-4.0137,-4.0351,-4.041,-4.1211,-4.1426,-4.1094,-4.1504,-4.1719,-4.1738,-4.1738,-4.1973,-4.2285,-4.1289,-3.9668,-3.7793,-3.7676,-3.6387,-3.4824,-3.6875,-3.7383,-3.7344,-3.9512,-3.9707,-3.8613,-3.6191,-3.4004,-3.2988,-3.6562,-3.5918,0.0,0.0,-3.8184,-3.8269,-4.1334,-4.243,-4.2792,-4.3049,-4.4058,-4.519,-4.599,-4.3973,-4.2879,-4.6399,-4.7173,-4.6386,-4.3982,0.0,-4.3889,-4.376,-4.3933,-4.5248,-4.8318,-4.8798,-4.8864,-4.8907,-4.8907,-4.8907,-4.8907,-4.8907,-4.8689,-4.8208,-4.8187,-4.7657,-4.6209,-4.6018,-4.3865,-3.9232,-3.9832,0.0,0.0,0.0,0.0,0.0,0.0,0.0,0.0,0.0,0.0,0.0,0.0,0.0,0.0,0.0,0.0,0.0,0.0,0.0,0.0,0.0,0.0,0.0,0.0,0.0,0.0,0.0,0.0,-3.0126,-3.2717,0.0,-3.0829,-3.1663,-3.2647,-3.3281,-3.4375,-3.5703,-3.7285,-3.8078,-3.8885,-3.9785,-4.04,-4.0695,-4.0723,-4.0586,-4.0664,-4.0937,-4.125,-4.1465,-4.1582,-4.2012,-4.2207,-4.2207,-4.2207,-4.2285,-4.2402,-4.2109,-4.1523,-4.0801,-4.0527,-3.9941,-3.9336,-3.9824,-3.9922,-3.9902,-4.0684,-4.0742,-4.0371,-3.9726,-3.918,-3.9023,-4.041,-4.0176,-3.9648,-4.0873,-4.1436,-4.2076,-4.3637,-4.403,-4.4197,-4.5283,-4.5636,-4.6149,-4.6944,-4.7226,-4.754,-4.8597,-4.7156,-4.5256,-4.4387,-4.6095,-4.7051,-4.4906,-4.6073,-4.7595,-4.8776,-4.917,-4.9257,-4.8929,-4.917,-4.9235,-4.8929,-4.8691,-4.835,-4.7856,-4.8135,-4.7305,-4.5119,-4.6656,-4.5948,-4.2511,-4.4753,-4.2183,0.0,0.0,0.0,0.0,0.0,0.0,0.0,0.0,0.0,0.0,0.0,0.0,0.0,0.0,0.0,0.0,0.0,0.0,0.0,0.0,0.0,0.0,0.0,0.0,0.0,-3.085,-3.2954,-3.0181,-3.3618,-3.5087,-3.2446,-3.4103,-3.5618,-3.6367,-3.7656,-3.8828,-3.9824,-4.043,-4.0801,-4.0937,-4.1367,-4.1523,-4.1387,-4.123,-4.1308,-4.1601,-4.1738,-4.1953,-4.2246,-4.2676,-4.2851,-4.2851,-4.2851,-4.2851,-4.2851,-4.2851,-4.2851,-4.2793,-4.2226,-4.2012,-4.1973,-4.1699,-4.1504,-4.1367,-4.123,-4.1172,-4.1269,-4.1836,-4.2207,-4.248,-4.2773,-4.2851,-4.2891,-4.3352,-4.3778,-4.4361,-4.5147,-4.5492,-4.5818,-4.6123,-4.6554,-4.6883,-4.7385,-4.8315,-4.9329,-4.9533,-4.8026,-4.6419,-4.5621,-4.7961,-4.8727,-4.5256,-4.7419,-4.9082,-4.8118,-4.901,-4.9737,-4.941,-4.9672,-4.9737,-4.941,-4.8424,-4.8061,-4.8543,-4.8104,-4.7048,-4.5291,-4.6605,-4.5983,-4.3022,-4.5022,-4.3676,-3.8833,0.0,0.0,0.0,0.0,0.0,0.0,0.0,0.0,0.0,0.0,0.0,0.0,0.0,0.0,0.0,0.0,0.0,0.0,0.0,0.0,0.0,0.0,0.0,-2.9473,-3.2615,-3.4153,-3.1446,-3.6091,-3.8539,-3.6348,-3.7947,-3.9241,-3.9863,-4.0312,-4.0742,-4.1211,-4.1992,-4.2246,-4.1855,-4.2226,-4.2246,-4.1836,-4.2246,-4.2461,-4.248,-4.2891,-4.3086,-4.3105,-4.3516,-4.3711,-4.3711,-4.3711,-4.3711,-4.3711,-4.3711,-4.3711,-4.3613,-4.2773,-4.2461,-4.2461,-4.2461,-4.2207,-4.1816,-4.1406,-4.1289,-4.1426,-4.2246,-4.25,-4.2656,-4.3496,-4.375,-4.3994,-4.5237,-4.5388,-4.5247,-4.6132,-4.7196,-4.779,-4.5599,-4.6373,-4.7589,-4.7154,-4.7072,-4.7564,-4.9394,-5.048,-5.0479,-4.867,-4.9513,-4.8886,-4.5053,-4.7748,0.0,-4.6723,-4.8771,-5.0349,-5.0262,-5.0262,-5.0262,-5.024,-4.8243,-4.7826,-5.0218,-4.8287,-4.709,-4.6968,-4.6257,-4.4273,-4.0837,-4.0586,-4.1877,-4.4399,0.0,0.0,0.0,0.0,0.0,0.0,0.0,0.0,0.0,0.0,0.0,0.0,0.0,0.0,0.0,0.0,0.0,0.0,0.0,0.0,0.0,-3.2773,-3.4219,-3.2441,-3.5261,-3.6989,-3.574,-3.7967,-3.9389,-3.8935,-3.9288,-4.0033,-4.1191,-4.1113,-4.1445,-4.25,-4.248,-4.2519,-4.2715,-4.2832,-4.2851,-4.2734,-4.2851,-4.3047,-4.3359,-4.3164,-4.3242,-4.3535,-4.3652,-4.3711,-4.3711,-4.3711,-4.3711,-4.3711,-4.3711,-4.3711,-4.3652,-4.3105,-4.3086,-4.332,-4.3008,-4.3242,-4.3672,-4.3555,-4.3711,-4.4004,-4.4238,-4.4316,-4.4355,-4.459,-4.4668,-4.4687,-4.5143,-4.5589,-4.6052,-4.6293,-4.6608,-4.711,-4.8086,-4.7852,-4.7576,-4.9112,-4.9765,-5.0167,-5.0505,-5.1167,-5.1229,-4.9903,-5.0055,-4.9881,-4.8756,-4.9947,-5.0633,-4.9816,-5.1048,-5.0926,-4.8337,-4.8583,-4.8648,-4.7985,-4.7315,-4.7869,-4.9753,-4.9668,-4.8959,-4.7693,-4.8478,-4.8233,-4.667,-4.2861,-4.1748,0.0,0.0,0.0,0.0,0.0,0.0,0.0,0.0,0.0,0.0,0.0,0.0,0.0,0.0,0.0,0.0,0.0,0.0,0.0,0.0,0.0,0.0,-3.5586,-3.7012,-3.625,-3.7845,-3.8813,-3.8379,-3.9121,-3.9978,-4.0586,-4.0527,-4.0879,-4.1973,-4.2168,-4.248,-4.3047,-4.3183,-4.3203,-4.3086,-4.3086,-4.3086,-4.3086,-4.3086,-4.3203,-4.3437,-4.3574,-4.3652,-4.3711,-4.4082,-4.4258,-4.4258,-4.4258,-4.4258,-4.4258,-4.4258,-4.4258,-4.4199,0.0,0.0,0.0,0.0,-4.3672,-4.4141,-4.4336,-4.4668,-4.5058,-4.5234,-4.541,-4.5566,-4.5566,-4.5449,-4.5371,-4.5723,-4.6253,-4.6606,-4.6803,-4.7319,-4.7793,-4.8605,-4.8383,-4.8056,-4.9135,-4.9708,-5.0068,-5.0931,-5.1336,0.0,-5.1514,-5.1195,-5.045,-4.9243,-5.0652,-5.1594,-5.0426,-5.1667,-5.1971,-4.9804,-5.0033,-5.0262,-4.9653,-4.867,0.0,0.0,0.0,-4.94,-4.7975,-4.806,0.0,0.0,0.0,-4.3792,-4.585,-4.368,0.0,0.0,-4.2348,-4.1362,0.0,0.0,0.0,0.0,0.0,0.0,0.0,0.0,0.0,0.0,0.0,0.0,0.0,0.0,0.0,0.0,-3.8418,-4.0117,-4.0176,-4.0176,-4.0137,-4.0059,-4.0078,-4.0586,-4.1816,-4.1601,-4.1719,-4.25,-4.3281,-4.3535,-4.3164,-4.3848,0.0,0.0,0.0,-4.3223,-4.3223,-4.332,-4.3379,-4.3379,-4.416,-4.4355,-4.4023,-4.4805,-4.5195,-4.5234,-4.5234,-4.5273,-4.5312,-4.5312,-4.5312,-4.5215,-4.4297,-4.3926,-4.3926,-4.3984,-4.4004,-4.4062,-4.4473,0.0,0.0,-4.5703,-4.6113,-4.6445,-4.6445,-4.6191,-4.6035,-4.6797,-4.699,-4.7175,-4.7464,-4.851,-4.9033,-4.8077,-4.8554,-4.9009,-4.8687,-4.8803,-4.9331,-5.0965,-5.1507,-5.1808,-5.3105,-5.2649,-5.0975,-4.828,-5.0925,-5.2342,-4.9881,-5.1841,-5.3276,-5.2821,-5.2799,0.0,-5.2799,-5.1065,-5.0913,-5.3167,-5.1303,-4.9631,-4.8586,-4.6816,-4.6405,-4.7401,-4.6183,-4.6983,-4.9891,-4.938,-4.8867,-4.8572,-4.3372,-4.175,0.0,0.0,0.0,0.0,0.0,0.0,0.0,0.0,0.0,0.0,0.0,0.0,0.0,0.0,0.0,-3.7344,-3.9746,-4.1543,-4.1894,-4.1933,-4.168,-4.1016,-4.123,-4.1797,-4.2734,-4.2754,-4.291,-4.3418,-4.3613,-4.3672,-4.3594,-4.3418,-4.3418,-4.3574,-4.3945,-4.4141,-4.4141,-4.4824,-4.5176,-4.5176,-4.5351,0.0,-4.5801,-4.5976,-4.625,-4.6562,-4.6562,-4.6758,-4.709,-4.709,-4.709,-4.6973,-4.5762,-4.5293,-4.5332,-4.5683,-4.5801,-4.582,-4.5898,-4.6211,-4.6582,-4.666,-4.6973,-4.7324,-4.7324,-4.7266,0.0,-4.7402,-4.7522,-4.7444,-4.7519,-4.7878,-4.8276,-4.9072,-4.9352,-4.9873,-5.1409,-5.2277,-5.2743,-5.2757,-5.3387,-5.4156,-5.4241,-5.3533,-5.2671,-5.2106,-5.3017,-5.3626,-5.2995,-5.3844,-5.3452,-5.0843,-5.0795,-5.0963,-5.0649,-5.045,-5.139,-5.3669,-5.308,-5.2407,-5.2211,-5.0312,-4.9396,-4.9276,-4.8339,-4.752,-4.7161,-4.8351,-4.8351,-4.6793,-4.7106,-4.7486,0.0,0.0,0.0,0.0,0.0,0.0,0.0,0.0,0.0,0.0,0.0,-3.3066,-3.5,0.0,-3.8184,-3.9902,-4.1445,-4.2441,-4.2422,-4.2988,-4.3086,-4.2226,-4.2305,-4.2773,-4.3652,-4.3535,-4.3574,-4.4023,-4.4043,-4.4043,-4.4043,-4.4258,-4.4375,-4.4355,-4.4805,-4.5039,-4.5039,-4.5469,-4.5781,-4.5996,-4.6191,-4.6523,-4.6953,-4.7168,-4.7363,-4.7558,-4.7558,-4.7578,-4.7598,-4.7812,-4.8027,-4.8164,-4.7519,-4.7012,-4.666,-4.6875,-4.6933,-4.6933,-4.6933,-4.7207,-4.7558,-4.7558,-4.7871,-4.8223,-4.8223,-4.8223,-4.8262,-4.8496,-4.8555,-4.8613,-4.8828,-4.8887,-4.911,-4.9697,-4.9921,-5.0225,-5.1222,-5.1695,-5.2127,-5.2331,-5.2765,-5.3322,-5.3692,-5.3847,-5.3922,-5.3922,-5.4137,-5.4288,-5.4288,-5.4862,-5.4737,-5.3191,-5.3235,-5.3235,-5.3061,-5.3235,-5.3822,-5.4958,-5.4805,-5.4434,-5.3953,-5.3056,-5.2187,-5.1464,-5.1118,-4.9949,-4.8345,-4.9374,-4.885,-4.6933,-4.8325,-4.8554,0.0,0.0,0.0,0.0,0.0,0.0,0.0,-3.0156,-3.0781,-3.3809,-3.4746,-3.582,-3.834,-3.916,-4.0137,-4.2207,-4.291,-4.3105,-4.2851,-4.373,-4.416,-4.3535,-4.3457,-4.3711,-4.4336,-4.4141,-4.4121,-4.4492,-4.4512,-4.4551,-4.4648,-4.5215,-4.543,-4.5156,-4.5644,-4.5957,-4.6055,-4.6133,-4.6328,-4.668,-4.6933,-4.7285,-4.7715,-4.8047,-4.8301,-4.8457,-4.8555,-4.8398,-4.8105,-4.8457,-4.8789,-4.9121,-4.9121,-4.8691,-4.8066,-4.7891,-4.7832,-4.7832,-4.7832,-4.8105,-4.8457,-4.8457,-4.8769,-4.9121,-4.9121,-4.9121,-4.918,-4.9551,-4.9648,-4.9726,-5.0098,-5.0176,-5.0176,-5.0176,-5.0365,-5.0574,-5.0653,-5.0672,-5.1071,-5.1717,-5.2094,-5.2699,-5.3343,-5.4276,-5.4932,-5.4655,-5.4796,-5.4796,-5.4796,-5.5548,-5.6138,-5.6247,-5.6247,-5.629,-5.6378,-5.6378,-5.6378,-5.6378,-5.6378,-5.6028,-5.5242,-5.4754,-5.4164,-5.3582,-5.3277,-5.2358,-5.0586,-5.0682,-4.9749,-4.7969,-4.8753,-4.8256,-2.4941,-2.6348,-2.8926,-3.0664,-3.1387,-3.2773,0.0,-3.6816,-3.6582,-3.9609,-4.0566,-4.1074,-4.1797,-4.2285,-4.2676,-4.2969,-4.3359,-4.3769,-4.4121,-4.4316,-4.4492,-4.4766,-4.4805,-4.4707,-4.4433,-4.4687,-4.4902,-4.4961,-4.4961,-4.5117,-4.5508,-4.5254,-4.5254,-4.5586,-4.6367,-4.6973,-4.7363,-4.7734,-4.7949,-4.7988,-4.7656,-4.7734,-4.8144,-4.8183,-4.8633,-4.9394,-4.9785,-4.9922,-4.9883,-4.9941,-4.998,-5.0019,-5.0019,-4.9961,-4.9785,-4.9004,-4.8711,-4.8711,-4.8711,-4.9004,-4.9375,-4.9375,-4.9668,-5.0019,-5.0019,-5.0019,-5.0039,-5.0098,-5.0098,-5.0117,-5.0176,-5.0176,-5.0176,-5.0176,-5.0912,-5.1577,-5.1938,-5.2775,-5.3296,-5.2963,-5.4358,-5.543,-5.5088,-5.5703,-5.6038,-5.4804,-5.5366,-5.5934,-5.5934,-5.6116,-5.6269,-5.6684,-5.6727,-5.6902,-5.7339,-5.7361,-5.7361,-5.7361,-5.7361,-5.7317,-5.7208,-5.5108,-5.4276,-5.5095,-5.3751,-5.2621,-5.1529,-5.2046,-5.1311,-4.9297,-4.9091,-4.8463,-3.1016,-3.1035,-3.1484,-3.3906,-3.4844,-3.5742,-3.7949,-3.8105,-3.8555,-4.1328,-4.2246,-4.2598,-4.2773,-4.3144,-4.3437,-4.3437,-4.3808,-4.418,-4.4375,-4.4824,-4.5117,-4.5039,-4.5469,-4.5605,-4.5176,-4.5293,-4.541,-4.541,-4.5176,-4.5215,-4.5644,-4.5957,-4.6211,-4.6406,-4.7226,-4.7637,-4.7578,-4.7988,-4.834,-4.8594,-4.8672,-4.9062,-4.9726,-4.9726,-4.9922,-5.0273,-5.0215,-5.0312,-5.0547,-5.0547,-5.0683,-5.0898,-5.0898,-5.0898,-5.0801,-4.9941,-4.9629,-4.9629,-4.9629,-4.9746,-4.9902,-4.9902,-5.0039,-5.0176,-5.0176,-5.0351,-5.0547,-5.0547,-5.0723,-5.0898,-5.0898,-5.0898,-5.0898,-5.0898,-5.1864,-5.2852,-5.3033,-5.4025,-5.4849,-5.3891,-5.4515,-5.5026,-5.5107,-5.5952,-5.682,-5.7102,-5.6992,-5.6838,-5.6838,-5.7402,-5.7841,-5.8038,-5.806,-5.8147,-5.8344,-5.8366,-5.8366,-5.8366,-5.8366,-5.8256,-5.7972,-5.7005,-5.658,-5.6652,-5.6086,-5.5235,-5.4299,-5.4485,-5.3778,-5.1956,-5.2329,-5.1788,-3.4101,-3.416,-3.4101,-3.6582,-3.7949,-3.8789,-3.9101,-3.959,-4.0527,-4.2402,-4.3125,-4.3476,-4.3594,-4.3769,-4.3926,-4.4043,-4.4355,-4.457,-4.457,-4.5098,-4.543,-4.5234,-4.5762,-4.6113,-4.6035,-4.582,-4.5781,-4.5996,-4.5625,-4.5664,-4.6328,-4.6836,-4.7168,-4.7285,-4.8008,-4.8359,-4.8301,-4.8594,-4.8965,-4.9394,-4.9609,-5.0098,-5.0801,-5.0918,-5.0976,-5.0957,-5.0664,-5.0703,-5.0976,-5.0976,-5.1152,-5.1426,-5.1426,-5.1426,-5.1367,-5.0742,-5.0527,-5.0527,-5.0527,-5.0527,-5.0527,-5.0527,-5.0527,-5.0527,-5.0527,-5.082,-5.1152,-5.1152,-5.1465,-5.1777,-5.1777,-5.1777,-5.1777,-5.1777,-5.2699,-5.3606,-5.3606,-5.4618,-5.5419,-5.4624,-5.4724,-5.5105,-5.5447,-5.6491,-5.7435,-5.8715,-5.8429,-5.8055,-5.8256,-5.9094,-5.9567,-5.9567,-5.9676,-5.9764,-5.9764,-5.9764,-5.9764,-5.9764,-5.9764,-5.9611,-5.9283,-5.8939,-5.8699,-5.8519,-5.8068,-5.7414,-5.6783,-5.6527,-5.5679,-5.3978,-5.476,-5.4552,-3.1055,-3.3437,-3.582,-3.7988,-4.041,-4.2285,-4.2285,-4.2949,-4.3574,-4.3652,-4.4043,-4.4492,-4.4883,-4.4648,-4.4512,-4.4922,-4.5,-4.5,-4.5,-4.5039,-4.5195,-4.5605,-4.5683,-4.6016,-4.6816,-4.6152,-4.6016,-4.6836,-4.6504,-4.6816,-4.8066,-4.7773,-4.7754,-4.8164,-4.8613,-4.9238,-5.0098,-5.0117,-5.0332,-5.0742,-5.0351,-5.0391,-5.082,-5.123,-5.1406,-5.1406,-5.1406,-5.1406,-5.1406,-5.1406,-5.1426,-5.1426,-5.1426,-5.1426,-5.1426,-5.1406,-5.1387,-5.1387,-5.1387,-5.1387,-5.1387,-5.1387,-5.1387,-5.1387,-5.1387,-5.1699,-5.2051,-5.2051,-5.2344,-5.2676,-5.2676,-5.2676,-5.2676,-5.2676,-5.3008,-5.332,-5.332,-5.4208,-5.4835,-5.4609,-5.575,-5.6855,-5.6875,-5.7679,-5.8438,-5.9119,-5.916,-5.9277,-6.0158,-6.0768,-6.1052,-6.1052,-6.1489,-6.1773,-6.1751,-6.1751,-6.1751,-6.1773,-6.1751,-6.1751,-6.173,-6.0276,-6.0018,-6.0987,-5.9094,-5.8272,-5.874,-5.7825,-5.6641,-5.4904,-5.4904,-5.4904,-3.3926,-3.6172,-3.8496,-4.0957,-4.2422,-4.3359,-4.3672,-4.418,-4.459,-4.459,-4.334,-4.2383,-4.2812,-4.2539,-4.2402,-4.2812,-4.4336,-4.5449,-4.5449,-4.5937,-4.6133,-4.5723,-4.6426,-4.6933,-4.6933,-4.668,-4.6738,-4.7324,-4.7226,-4.7461,-4.8164,-4.834,-4.8633,-4.9062,-4.9512,-4.9883,-5.0176,-5.0449,-5.0664,-5.0801,-5.0937,-5.1094,-5.123,-5.1367,-5.1582,-5.1855,-5.1855,-5.2031,-5.2285,-5.2285,-5.2285,-5.2285,-5.2285,-5.2285,-5.2324,-5.2598,-5.2715,-5.2676,-5.2383,-5.2656,-5.3164,-5.3164,-5.2949,-5.2715,-5.2715,-5.2812,-5.293,-5.293,-5.3242,-5.3652,-5.3945,-5.3808,-5.373,-5.4297,-5.5148,-5.5658,-5.5658,-5.6735,-5.7284,-5.6382,-5.6662,-5.7378,-5.7378,-5.7849,-5.8699,-5.9469,-5.949,-5.9844,-6.0517,-6.0762,-6.1144,-6.1421,-6.1751,-6.1839,-6.1839,-6.1839,-6.1839,-6.1839,-6.1839,-6.1839,-6.1839,-6.1286,-6.1199,-6.1598,-6.0874,-6.0588,-6.0761,-6.0437,-5.9905,-5.8942,-5.8942,-5.8702,-3.6836,-3.8633,-4.0254,-4.2695,-4.3496,-4.3789,-4.4082,-4.4492,-4.4805,-4.4805,-4.2871,-4.1308,-4.1719,-4.1582,-4.1289,-4.0937,-4.3047,-4.4687,-4.4531,-4.5117,-4.5644,-4.5879,-4.6894,-4.7539,-4.7402,-4.7676,-4.7969,-4.8262,-4.8125,-4.8281,-4.8887,-4.9316,-4.9687,-4.998,-5.041,-5.0625,-5.0625,-5.0898,-5.1113,-5.1269,-5.1836,-5.2129,-5.2129,-5.2285,-5.2519,-5.2773,-5.2773,-5.293,-5.3183,-5.3183,-5.3183,-5.3183,-5.3183,-5.3281,-5.3437,-5.373,-5.4121,-5.4375,-5.3496,-5.3555,-5.4023,-5.4023,-5.3828,-5.3594,-5.3594,-5.3808,-5.4062,-5.4062,-5.4492,-5.5,-5.5293,-5.5039,-5.4844,-5.541,-5.6274,-5.6792,-5.6792,-5.7811,-5.8616,-5.756,-5.7608,-5.7807,-5.7508,-5.7687,-5.808,-5.8909,-5.9475,-5.9774,-6.0404,-6.0548,-6.0627,-6.1147,-6.1105,-6.1105,-6.1105,-6.1532,-6.1735,-6.1735,-6.2139,-6.2363,-6.2363,-6.2363,-6.2139,-6.1735,-6.1562,-6.1273,-6.0869,-6.0698,-6.0154,-5.9427,-5.9594,-5.9409,-3.9414,-4.0586,-4.1152,-4.3223,-4.373,-4.3711,-4.3769,-4.4141,-4.4433,-4.4297,-4.2539,-4.1133,-4.1426,-4.1543,-4.1074,-3.9453,-4.1465,-4.3066,-4.2676,-4.3027,-4.4062,-4.6133,-4.7148,-4.7851,-4.8262,-4.9062,-4.959,-4.9648,-4.9199,-4.9297,-5.0176,-5.0586,-5.082,-5.084,-5.123,-5.1426,-5.1426,-5.1445,-5.168,-5.2129,-5.293,-5.3359,-5.3418,-5.3828,-5.4062,-5.4121,-5.4121,-5.4141,-5.416,-5.416,-5.416,-5.416,-5.416,-5.4414,-5.4785,-5.4805,-5.5566,-5.6387,-5.4785,-5.4219,-5.4219,-5.4219,-5.4219,-5.4199,-5.4199,-5.4746,-5.5371,-5.5371,-5.5976,-5.6621,-5.664,-5.6348,-5.6035,-5.6094,-5.6387,-5.664,-5.664,-5.7598,-5.832,-5.7871,-5.8144,-5.8164,-5.7344,-5.7403,-5.7384,-5.7187,-5.8603,-5.9639,-5.9861,-5.9947,-5.9947,-6.0135,-6.0135,-6.0135,-6.0135,-6.099,-6.1612,-6.1612,-6.2665,-6.3076,-6.328,-6.328,-6.2665,-6.1612,-6.1187,-6.0543,-5.9512,-5.8871,-5.8233,-5.7223,-5.7647,-5.7849,-4.0215,-4.1445,-4.2715,-4.3926,-4.3965,-4.3867,-4.4531,-4.5039,-4.4805,-4.2871,-4.0742,-3.8789,-3.7305,-3.8066,-3.8984,-3.918,-4.248,-4.5078,-4.5293,-4.5957,-4.6641,-4.7187,-4.8301,-4.9199,-4.9629,-4.9883,-5.041,-5.1367,-5.0449,-5.0078,-5.0625,-5.0742,-5.0957,-5.1269,-5.1367,-5.1426,-5.1426,-5.1758,-5.2129,-5.2558,-5.2773,-5.3223,-5.3867,-5.3984,-5.4551,-5.5449,-5.5449,-5.5625,-5.5937,-5.5937,-5.5937,-5.5937,-5.5937,-5.5996,-5.6133,-5.6445,-5.6777,-5.7031,-5.6933,-5.6894,-5.6894,-5.6894,-5.666,-5.6406,-5.6406,-5.6328,-5.6269,-5.6269,-5.664,-5.7129,-5.7461,-5.7461,-5.7539,-5.8203,-5.791,-5.7539,-5.7539,-5.7539,-5.7422,-5.6992,-5.7637,-5.8399,-5.8479,-5.8859,-5.8828,-5.8232,-5.8332,-5.9071,-6.0212,-6.1076,-6.1787,-6.2481,-6.2438,-6.2438,-6.2438,-6.1819,-6.1612,-6.1612,-6.0969,-6.1176,-6.2026,-6.2026,-6.2253,-6.287,-6.274,-6.247,-6.2265,-6.2136,-6.1888,-6.1661,-6.0965,-6.1007,-4.1445,-4.248,-4.3418,-4.375,-4.375,-4.3594,-4.3144,-4.3242,-4.2734,-4.0312,-3.8105,-3.623,-3.5039,-3.6523,-3.7832,-3.7578,-4.1308,-4.4394,-4.4824,-4.5625,-4.6523,-4.7461,-4.873,-4.9629,-4.9863,-5.0234,-5.0742,-5.1465,-5.0859,-5.0723,-5.1328,-5.1367,-5.1387,-5.1426,-5.1621,-5.1719,-5.1719,-5.2344,-5.2754,-5.3008,-5.375,-5.4297,-5.4609,-5.5176,-5.582,-5.6504,-5.6504,-5.6738,-5.7148,-5.7148,-5.7148,-5.7148,-5.7148,-5.7265,-5.7461,-5.7715,-5.791,-5.8125,-5.8379,-5.8437,-5.8379,-5.7988,-5.7695,-5.75,-5.75,-5.7461,-5.7441,-5.7441,-5.7617,-5.7851,-5.8086,-5.7851,-5.7715,-5.8203,-5.791,-5.7578,-5.7578,-5.7539,-5.758,-5.7578,-5.8404,-5.8978,-5.9222,-5.9271,-5.8897,-5.8284,-5.8284,-5.8576,-5.9454,-6.0129,-6.0657,-6.1011,-6.1612,-6.1612,-6.1198,-6.1405,-6.1612,-6.1612,-6.1405,-6.1612,-6.2232,-6.2459,-6.2438,-6.2438,-6.2026,-6.1612,-6.1198,-6.0553,-6.0344,-6.0344,-5.9738,-5.9738,-4.2754,-4.3379,-4.3555,-4.3242,-4.3437,-4.3144,-4.1016,-4.0605,-3.9961,-3.7402,-3.543,-3.4062,-3.3711,-3.5703,-3.707,-3.5996,-3.9531,-4.2676,-4.3398,-4.4297,-4.5566,-4.7441,-4.8769,-4.957,-4.9687,-5.0371,-5.0859,-5.0957,-5.0918,-5.1211,-5.1953,-5.1992,-5.1855,-5.1523,-5.1933,-5.2226,-5.2344,-5.3008,-5.3476,-5.3711,-5.5098,-5.5723,-5.5683,-5.6738,-5.7305,-5.748,-5.748,-5.7695,-5.8027,-5.8027,-5.8027,-5.8027,-5.7969,-5.8203,-5.8535,-5.8476,-5.8672,-5.9004,-5.9004,-5.9004,-5.8887,-5.8203,-5.7969,-5.793,-5.7871,-5.8086,-5.8359,-5.8359,-5.8359,-5.8359,-5.8359,-5.7832,-5.7305,-5.7305,-5.7246,-5.7207,-5.7207,-5.7461,-5.8013,-5.8907,-5.9564,-5.9926,-5.9926,-5.9318,-5.8706,-5.8284,-5.8284,-5.8284,-5.8284,-5.8495,-5.8706,-5.8706,-5.9717,-5.9926,-5.8917,-6.0365,-6.1405,-6.1405,-6.2232,-6.287,-6.3076,-6.3076,-6.2665,-6.1819,-6.0761,-5.9926,-5.8917,-5.8052,-5.7415,-5.7222,-5.7222,-5.7009,-4.3516,-4.3398,-4.3262,-4.3535,-4.3652,-4.3144,-4.1016,-4.1074,-4.0254,-3.5586,-3.4609,-3.3945,-3.1836,-3.3242,-3.5469,-3.7676,-4.0508,-4.3203,-4.543,-4.6777,-4.7676,-4.8047,-4.8945,-4.9805,-5.0508,-5.0723,-5.1094,-5.1816,-5.1523,-5.1387,-5.1543,-5.1543,-5.168,-5.1953,-5.2383,-5.2949,-5.3691,-5.3476,-5.4082,-5.5488,-5.5078,-5.5781,-5.7422,-5.7265,-5.7793,-5.8828,-5.8828,-5.8887,-5.8945,-5.8945,-5.8945,-5.8906,-5.8555,-5.8476,-5.8476,-5.8144,-5.8027,-5.8086,-5.8086,-5.8086,-5.8144,-5.8359,-5.8418,-5.8359,-5.7969,-5.7656,-5.7441,-5.7441,-5.7441,-5.7441,-5.7441,-5.7598,-5.7754,-5.7754,-5.748,-5.7207,-5.7207,-5.6992,-5.742,-5.942,-5.9758,-5.9926,-5.9926,-6.0574,-6.0365,-5.8495,-5.8284,-5.8284,-5.8284,-5.9947,-6.099,-6.099,-6.2026,-6.2232,-6.1198,-6.0553,-6.0135,-6.0135,-5.9528,-5.9947,-6.1819,-6.1819,-6.2232,-6.3076,-6.2849,-6.2643,-6.2438,-6.2232,-6.1612,-6.0782,-5.9717,-5.9297,-4.3437,-4.3398,-4.3398,-4.3379,-4.3555,-4.2851,-3.959,-3.916,-3.8125,-3.3398,-3.2578,-3.2344,-3.1113,-3.2637,-3.4609,-3.6289,-3.9863,-4.3027,-4.4707,-4.6836,-4.8281,-4.8516,-4.9121,-4.9785,-5.041,-5.0683,-5.1074,-5.1699,-5.1543,-5.1523,-5.1758,-5.1777,-5.1973,-5.2402,-5.3047,-5.3594,-5.4023,-5.4473,-5.5,-5.5605,-5.6113,-5.664,-5.7207,-5.7695,-5.8242,-5.8828,-5.8828,-5.8945,-5.918,-5.8945,-5.8828,-5.8828,-5.8359,-5.8203,-5.8144,-5.793,-5.7871,-5.7871,-5.7871,-5.7871,-5.7851,-5.7851,-5.8008,-5.8144,-5.793,-5.7715,-5.7539,-5.7539,-5.7383,-5.7207,-5.7207,-5.7207,-5.7207,-5.7207,-5.7031,-5.6894,-5.6894,-5.7147,-5.786,-5.8897,-5.9507,-5.9926,-5.9926,-5.9947,-5.9528,-5.8495,-5.786,-5.7648,-5.8284,-5.9738,-6.0761,-6.0761,-6.2232,-6.287,-6.1612,-6.1409,-6.1243,-6.1612,-6.0804,-6.1034,-6.2459,-6.2459,-6.2665,-6.328,-6.2665,-6.2459,-6.2438,-6.1819,-6.1176,-6.0761,-6.0135,-5.9926,-4.3183,-4.3457,-4.3633,-4.3301,-4.3535,-4.2676,-3.8184,-3.7226,-3.6016,-3.1523,-3.0605,-3.0644,-3.0723,-3.2109,-3.3555,-3.4531,-3.8281,-4.168,-4.3457,-4.5898,-4.7851,-4.875,-4.9258,-4.9707,-5.0137,-5.0566,-5.0976,-5.1406,-5.1523,-5.1719,-5.207,-5.2344,-5.2656,-5.2988,-5.3848,-5.4394,-5.457,-5.539,-5.582,-5.5879,-5.7031,-5.7383,-5.7031,-5.8066,-5.8594,-5.8652,-5.8652,-5.8887,-5.9121,-5.8711,-5.8535,-5.8476,-5.791,-5.7715,-5.7715,-5.7617,-5.7598,-5.7598,-5.7598,-5.7598,-5.7539,-5.7187,-5.7363,-5.7695,-5.7617,-5.7598,-5.7598,-5.7598,-5.7344,-5.707,-5.707,-5.6836,-5.6582,-5.6582,-5.6582,-5.6582,-5.7009,-5.7435,-5.8072,-5.8495,-5.9108,-5.9507,-5.9507,-5.8897,-5.8284,-5.8072,-5.7222,-5.7009,-5.786,-5.9108,-5.9717,-5.9507,-6.1819,-6.287,-6.1612,-6.1953,-6.2432,-6.2892,-6.239,-6.2432,-6.3302,-6.328,-6.328,-6.328,-6.2459,-6.2026,-6.2026,-6.0969,-6.0553,-6.0344,-6.0344,-6.0135,-4.3125,-4.3672,-4.3691,-4.3652,-4.3984,-4.2988,-3.7891,-3.7031,-3.5859,-3.0742,-2.9687,-2.9805,-3.0195,-3.043,-3.1465,-3.4258,-3.5781,-3.8262,-4.3027,-4.4629,-4.6191,-4.8574,-4.9258,-4.9707,-5.0137,-5.0566,-5.0976,-5.1406,-5.1797,-5.2031,-5.209,-5.3203,-5.3867,-5.3906,-5.4746,-5.5566,-5.6348,-5.5703,-5.6133,-5.7617,-5.6992,-5.7285,-5.8359,-5.8476,-5.8769,-5.9121,-5.9121,-5.9121,-5.9121,-5.8711,-5.8535,-5.8476,-5.7598,-5.7265,-5.7226,-5.6836,-5.6699,-5.6699,-5.6699,-5.6699,-5.6699,-5.666,-5.6933,-5.7207,-5.6816,-5.6699,-5.6699,-5.6699,-5.668,-5.664,-5.664,-5.6621,-5.6582,-5.6582,-5.6582,-5.6796,-5.786,-5.7435,-5.7415,-5.9297,-5.9108,-5.8495,-5.8495,-5.8284,-5.786,-5.7009,-5.6582,-5.6582,-5.6796,-5.8666,-5.9507,-5.8495,-6.1405,-6.287,-6.1612,-6.1655,-6.1655,-6.184,-6.1655,-6.209,-6.328,-6.328,-6.328,-6.328,-6.328,-6.3076,-6.3076,-6.3076,-6.2438,-6.1405,-6.1405,-6.099,-4.3125,-4.3711,-4.3711,-4.3711,-4.2695,-4.0801,-3.7441,-3.5586,-3.3633,-3.0254,-2.957,-2.9629,-2.9785,-3.0019,-3.0586,-3.1797,-3.4043,-3.6543,-3.9101,-4.291,-4.5801,-4.6816,-4.9141,-5.0547,-5.0215,-5.0781,-5.1367,-5.1797,-5.2461,-5.2969,-5.3242,-5.375,-5.4375,-5.5156,-5.5762,-5.625,-5.6582,-5.6758,-5.7051,-5.748,-5.7656,-5.8027,-5.8535,-5.8828,-5.9004,-5.918,-5.918,-5.918,-5.9121,-5.8711,-5.8359,-5.8086,-5.7461,-5.7051,-5.6816,-5.664,-5.6582,-5.6582,-5.6582,-5.6582,-5.6582,-5.6582,-5.6699,-5.6797,-5.664,-5.6582,-5.6582,-5.6582,-5.6582,-5.6582,-5.6582,-5.6582,-5.6582,-5.6582,-5.6582,-5.6796,-5.7222,-5.7435,-5.7648,-5.784,-5.8686,-5.9108,-5.8495,-5.8284,-5.8284,-5.8455,-5.8052,-5.8072,-5.9528,-6.0344,-6.099,-6.1198,-6.2438,-6.287,-6.1612,-6.1889,-6.2139,-6.2665,-6.2304,-6.2325,-6.328,-6.328,-6.328,-6.328,-6.328,-6.328,-6.328,-6.328,-6.3076,-6.2665,-6.2665,-6.2438,-4.2187,-4.3223,-4.3711,-4.3711,-4.1777,-3.9297,-3.6992,-3.4473,-3.1953,-2.9668,-2.9199,-2.9238,-2.9355,-2.9726,-3.0059,-3.0176,-3.248,-3.4824,-3.6445,-4.043,-4.3633,-4.4766,-4.7422,-4.9219,-4.9394,-5.0762,-5.1797,-5.2226,-5.2949,-5.3672,-5.4375,-5.4531,-5.5058,-5.6094,-5.668,-5.7031,-5.7168,-5.7637,-5.7793,-5.7617,-5.8242,-5.8535,-5.8535,-5.9004,-5.918,-5.918,-5.918,-5.9121,-5.8945,-5.8535,-5.8086,-5.7637,-5.7187,-5.6855,-5.6582,-5.6582,-5.6582,-5.6582,-5.6582,-5.6582,-5.6582,-5.6582,-5.6582,-5.6582,-5.6582,-5.6582,-5.6582,-5.6582,-5.6582,-5.6582,-5.6582,-5.6582,-5.6582,-5.6582,-5.6582,-5.6582,-5.6582,-5.7222,-5.7648,-5.7222,-5.8264,-5.9297,-5.8897,-5.8686,-5.9108,-5.9717,-5.9318,-5.9318,-6.099,-6.1405,-6.1819,-6.2232,-6.287,-6.3076,-6.2232,-6.2347,-6.2804,-6.3302,-6.2761,-6.2804,-6.328,-6.328,-6.328,-6.328,-6.328,-6.328,-6.328,-6.328,-6.328,-6.328,-6.328,-6.328,-3.9961,-4.209,-4.3711,-4.3711,-4.1777,-3.9219,-3.6621,-3.4023,-3.1445,-2.8848,-2.8301,-2.8437,-2.8848,-2.9277,-2.9707,-3.0137,-3.0957,-3.2754,-3.6191,-3.709,-3.8809,-4.2656,-4.3496,-4.4785,-4.7363,-5.0312,-5.2246,-5.2676,-5.3105,-5.3926,-5.5234,-5.5683,-5.6113,-5.6562,-5.7402,-5.8086,-5.8535,-5.8086,-5.8086,-5.8535,-5.8535,-5.8535,-5.8535,-5.9004,-5.918,-5.918,-5.918,-5.8945,-5.8476,-5.8027,-5.7617,-5.7187,-5.6758,-5.6582,-5.6582,-5.6582,-5.6582,-5.6582,-5.6582,-5.6582,-5.6582,-5.6582,-5.6582,-5.6582,-5.6582,-5.6582,-5.6582,-5.6582,-5.6582,-5.6582,-5.6582,-5.6582,-5.6582,-5.6582,-5.6582,-5.6582,-5.6582,-5.6582,-5.7009,-5.8072,-5.8284,-5.8706,-5.9717,-5.9926,-5.9926,-5.9926,-5.9926,-5.9926,-5.9926,-6.0969,-6.1198,-6.0135,-6.2004,-6.328,-6.328,-6.328,-6.328,-6.328,-6.328,-6.328,-6.328,-6.328,-6.328,-6.328,-6.328,-6.328,-6.328,-6.328,-6.328,-6.328,-6.328,-6.328,-3.6855,-3.793,-3.8457,-3.8457,-3.6523,-3.4394,-3.3574,-3.1152,-2.8945,-2.8398,-2.8066,-2.7988,-2.8418,-2.9082,-2.9609,-2.9746,-3.0762,-3.2012,-3.3398,-3.75,-4.0723,-4.166,-4.5527,-4.8789,-5.0488,-5.1777,-5.2695,-5.3125,-5.3574,-5.4258,-5.5254,-5.5996,-5.6719,-5.7441,-5.7715,-5.8086,-5.8535,-5.8086,-5.8086,-5.8535,-5.8535,-5.8711,-5.9004,-5.9121,-5.9004,-5.8711,-5.8711,-5.8476,-5.8086,-5.791,-5.7598,-5.7207,-5.707,-5.6836,-5.6582,-5.6582,-5.6582,-5.6582,-5.6582,-5.6582,-5.6582,-5.6582,-5.6582,-5.6582,-5.6582,-5.6582,-5.6582,-5.6582,-5.6582,-5.6582,-5.6582,-5.6582,-5.6582,-5.6582,-5.6582,-5.6582,-5.6582,-5.7222,-5.7648,-5.7222,-5.8264,-5.9297,-5.8897,-5.9507,-6.0135,-6.099,-6.099,-6.1405,-6.2026,-6.2438,-6.2643,-6.2232,-6.287,-6.3076,-6.2232,-6.287,-6.328,-6.328,-6.328,-6.328,-6.328,-6.328,-6.328,-6.328,-6.328,-6.328,-6.328,-6.328,-6.328,-6.328,-6.328,-6.328,-3.4082,-3.5391,-3.6016,-3.6016,-3.4082,-3.2168,-3.2168,-2.9961,-2.7988,-2.8242,-2.8086,-2.8027,-2.8457,-2.9101,-2.9629,-2.9785,-3.0762,-3.207,-3.3652,-3.7461,-4.0605,-4.1973,-4.6445,-4.9805,-5.0781,-5.1992,-5.2891,-5.332,-5.3769,-5.4394,-5.5254,-5.6113,-5.6973,-5.7851,-5.8203,-5.8496,-5.8769,-5.8496,-5.8496,-5.8769,-5.8769,-5.8945,-5.918,-5.9004,-5.8769,-5.8535,-5.8359,-5.8027,0.0,-5.7617,-5.7363,-5.6973,-5.6973,-5.6816,-5.6582,-5.6582,-5.6582,-5.6582,-5.6582,-5.6582,-5.6582,-5.6582,-5.6582,-5.6582,-5.6582,-5.6582,-5.6582,-5.6582,-5.6582,-5.6582,-5.6582,-5.6582,-5.6582,-5.6582,-5.6582,-5.6582,-5.6582,-5.7222,-5.7648,-5.7222,-5.8264,-5.9318,-5.8897,-5.9507,-6.0135,-6.0761,-6.099,-6.1198,-6.2026,-6.2438,-6.2665,-6.2665,-6.3076,-6.3076,-6.2253,-6.287,-6.328,-6.328,-6.328,-6.328,-6.328,-6.328,-6.328,-6.328,-6.328,-6.328,-6.328,-6.328,-6.328,-6.328,-6.328,-6.328,0.0,-3.3926,-3.5469,-3.5469,-3.3672,-3.1894,-3.1894,-3.0,0.0,-2.8281,-2.8301,-2.8418,-2.8848,-2.9297,-2.9746,-3.0137,-3.0976,-3.2754,-3.6152,-3.7363,-3.9394,-4.3457,-4.6582,-4.8535,-4.8867,-5.1211,-5.291,-5.3379,-5.3789,-5.4394,-5.5254,-5.6113,-5.6973,-5.7851,-5.8672,-5.914,-5.918,-5.9121,-5.9121,-5.918,-5.918,-5.918,-5.9121,-5.8711,-5.8476,-5.8418,-5.7969,-5.7578,-5.7168,-5.7168,-5.6933,-5.6582,-5.6582,-5.6582,-5.6582,-5.6582,-5.6582,-5.6582,-5.6582,-5.6582,-5.6582,-5.6582,-5.6582,-5.6582,-5.6582,-5.6582,-5.6582,-5.6582,-5.6582,-5.6582,-5.6582,-5.6582,-5.6582,-5.6582,-5.6582,-5.6582,-5.6582,-5.6582,-5.7009,-5.8072,-5.8072,-5.8495,-5.9507,-5.9717,-5.9717,-5.9717,-5.9926,-5.9926,-5.9926,-6.0969,-6.1612,-6.1612,-6.2665,-6.328,-6.328,-6.328,-6.328,-6.328,-6.328,-6.328,-6.328,-6.328,-6.328,-6.328,-6.328,-6.328,-6.328,-6.328,-6.328,-6.328,-6.328,-6.328,-2.8652,0.0,-3.0117,-3.0117,-2.9648,-2.9199,0.0,-2.8476,-2.791,-2.8223,-2.8301,-2.8418,-2.8848,-2.9531,-3.0078,-3.0176,-3.1211,-3.2988,-3.5781,-4.0527,-4.4316,-4.5976,-4.8555,-4.998,-4.9414,-5.1387,-5.3027,-5.3808,-5.3965,-5.4394,-5.5254,-5.6113,-5.6973,-5.7851,-5.8379,-5.8828,-5.918,-5.8496,-5.8496,-5.918,-5.918,-5.9004,-5.8711,-5.8594,-5.8183,-5.7519,-5.7402,-5.7129,-5.6738,-5.6738,-5.668,-5.6582,-5.6582,-5.6582,-5.6582,-5.6582,-5.6582,-5.6582,-5.6582,-5.6582,-5.6582,-5.6582,-5.6582,-5.6582,-5.6582,-5.6582,-5.6582,-5.6582,-5.6582,-5.6582,-5.6582,-5.6582,-5.6582,-5.6582,-5.6582,-5.6582,-5.6582,-5.6582,-5.6582,-5.7009,-5.7009,-5.7009,-5.7415,-5.8052,-5.8706,-5.8706,-5.9297,-5.9926,-5.9926,-6.0969,-6.1612,-6.1612,-6.2665,-6.328,-6.328,-6.328,-6.328,-6.328,-6.328,-6.328,-6.328,-6.328,-6.328,-6.328,-6.328,-6.328,-6.328,-6.328,-6.328,-6.328,-6.328,-6.328,-2.7559,-2.7969,-2.8301,-2.8301,-2.8301,-2.8301,-2.8301,-2.8125,-2.8066,-2.8496,-2.8574,-2.8769,-2.9394,-3.0859,-3.1719,-3.0937,-3.3555,-3.6465,-3.8652,-4.25,-4.5625,-4.7051,-4.8808,-5.0195,-5.0918,-5.2207,-5.3281,-5.3984,-5.4023,-5.4394,-5.5254,-5.5937,-5.6777,-5.7812,-5.791,-5.8242,-5.8887,-5.8203,-5.8203,-5.8887,-5.8672,-5.8555,-5.8535,-5.8125,-5.7676,-5.7207,-5.7012,-5.6797,-5.6582,-5.6582,-5.6465,-5.6308,-5.6504,-5.6465,-5.6308,-5.6504,-5.6582,-5.6582,-5.6582,-5.6582,-5.6582,-5.6582,-5.6582,-5.6582,-5.6582,-5.6582,-5.6582,-5.6582,-5.6582,-5.6582,-5.6582,-5.6582,-5.6582,-5.6582,-5.6582,-5.6582,-5.6582,-5.6582,-5.6582,-5.6582,-5.6582,-5.6582,-5.6582,-5.7009,-5.7435,-5.7435,-5.8052,-5.8455,-5.8455,-5.9318,-6.0365,-6.0761,-6.1819,-6.2665,-6.328,-6.328,-6.328,-6.328,-6.328,-6.328,-6.328,-6.328,-6.328,-6.328,-6.328,-6.328,-6.328,-6.328,-6.328,-6.328,-6.328,-6.328,-2.7344,-2.8203,-2.8789,-2.8398,-2.8301,-2.832,-2.8379,-2.8398,-2.8516,-2.8926,-2.9062,-2.9453,-3.0586,-3.2383,-3.334,-3.2285,-3.6601,-4.0762,-4.2656,-4.4336,-4.5918,-4.7402,-4.8633,-5.0098,-5.2031,-5.291,-5.3555,-5.4004,-5.4023,-5.4433,-5.5351,-5.5801,-5.6621,-5.791,-5.7617,-5.7773,-5.8535,-5.8086,-5.8027,-5.8418,-5.8144,-5.8086,-5.8301,-5.7558,-5.7187,-5.709,-5.6738,-5.6582,-5.6582,-5.6504,-5.6269,-5.5957,-5.6269,-5.6211,-5.5976,-5.6348,-5.6523,-5.6582,-5.6582,-5.6582,-5.6582,-5.6582,-5.6582,-5.6582,-5.6582,-5.6582,-5.6582,-5.6582,-5.6582,-5.6582,-5.6582,-5.6582,-5.6582,-5.6582,-5.6582,-5.6582,-5.6582,-5.6582,-5.6582,-5.6582,-5.6582,-5.6582,-5.6582,-5.6582,-5.6582,-5.6582,-5.6582,-5.6601,-5.668,-5.7747,-5.8828,-5.9903,-6.12,-6.2261,-6.3499,-6.3499,-6.3499,-6.3499,-6.3368,-6.328,-6.328,-6.328,-6.328,-6.328,-6.328,-6.328,-6.328,-6.328,-6.328,-6.328,-6.328,-6.328,-2.6992,-2.9297,-3.1055,-2.8848,-2.8301,-2.8379,-2.875,-2.8828,-2.8945,-2.9375,-2.9746,-3.0703,-3.3047,-3.2617,-3.2539,-3.4492,-3.8281,-4.1953,-4.4785,-4.7851,-4.9258,-4.7754,-4.9961,-5.1172,-5.0117,-5.2051,-5.3555,-5.4004,-5.4023,-5.457,-5.5781,-5.625,-5.709,-5.8379,-5.8359,-5.8418,-5.8535,-5.8086,-5.791,-5.7969,-5.8262,-5.8066,-5.7422,-5.7265,-5.7012,-5.668,-5.6621,-5.6582,-5.6562,-5.6191,-5.5996,-5.5898,-5.5625,-5.5683,-5.5937,-5.6015,-5.6269,-5.6582,-5.6582,-5.6582,-5.6582,-5.6582,-5.6582,-5.6582,-5.6582,-5.6582,-5.6582,-5.6582,-5.6582,-5.6582,-5.6582,-5.6582,-5.6582,-5.6582,-5.6582,-5.6582,-5.6582,-5.6582,-5.6582,-5.6582,-5.6582,-5.6582,-5.6582,-5.6582,-5.6582,-5.6582,-5.6582,-5.6719,-5.707,-5.8185,-5.9395,-6.0831,-6.2169,-6.3246,-6.4295,-6.4504,-6.4504,-6.4504,-6.3739,-6.328,-6.328,-6.328,-6.328,-6.328,-6.328,-6.328,-6.328,-6.328,-6.328,-6.328,-6.328,-6.328,-2.6894,-2.834,-2.9902,-3.0566,-3.1953,-3.3203,-3.3398,-3.3457,-3.3164,-3.2207,-3.2148,-3.2812,-3.4473,-3.5273,-3.7129,-4.1582,-4.2051,-4.291,-4.5918,-4.6933,-4.748,-4.7871,-4.957,-5.084,-5.1211,-5.2754,-5.3808,-5.4023,-5.4023,-5.4394,-5.5215,-5.5664,-5.6387,-5.7441,-5.7695,-5.7832,-5.7832,-5.7851,-5.7871,-5.7871,-5.7598,-5.7383,-5.7207,-5.6973,-5.6758,-5.6582,-5.6582,-5.6445,-5.6211,-5.6015,-5.5664,-5.5254,-5.5293,-5.543,-5.5644,-5.6113,-5.6406,-5.6582,-5.6582,-5.6582,-5.6582,-5.6582,-5.6582,-5.6582,-5.6582,-5.6582,-5.6582,-5.6582,-5.6582,-5.6582,-5.6582,-5.6582,-5.6582,-5.6582,-5.6582,-5.6582,-5.6582,-5.6582,-5.6582,-5.6582,-5.6777,-5.6914,-5.6914,-5.7109,-5.7285,-5.7285,-5.7285,-5.7344,-5.7539,-5.7993,-5.8938,-6.0219,-6.1313,-6.2592,-6.3672,-6.4324,-6.4744,-6.4744,-6.4307,-6.3958,-6.3674,-6.3674,-6.3543,-6.328,-6.328,-6.328,-6.328,-6.328,-6.328,-6.328,-6.328,-6.3411,-2.6894,-2.793,-2.9531,-3.2266,-3.4141,-3.5703,-3.7129,-3.6615,-3.5585,-3.5293,-3.4774,-3.47,-3.5977,-3.8047,-4.1113,-4.6055,-4.4883,-4.4394,-4.7402,-4.6797,-4.6816,-4.8867,-4.9805,-5.0957,-5.2695,-5.3574,-5.4023,-5.4023,-5.4023,-5.4297,-5.4941,-5.5273,-5.5937,-5.7012,-5.7246,-5.7422,-5.7519,-5.7656,-5.7656,-5.7558,-5.6992,-5.6797,-5.6914,-5.668,-5.6523,-5.6445,-5.6543,-5.6328,-5.5918,-5.582,-5.5351,-5.4707,-5.4922,-5.5078,-5.5254,-5.6113,-5.6426,-5.6445,-5.6543,-5.6582,-5.6582,-5.6582,-5.6582,-5.6582,-5.6582,-5.6582,-5.6582,-5.6582,-5.6582,-5.6582,-5.6582,-5.6582,-5.6582,-5.6582,-5.666,-5.6738,-5.6738,-5.6816,-5.6894,-5.6894,-5.7148,-5.7363,-5.7363,-5.7637,-5.7871,-5.7871,-5.809,-5.8347,-5.7988,-5.8227,-5.8922,-5.9893,-6.0761,-6.1839,-6.3144,-6.4206,-6.465,-6.5072,-6.4853,-6.4569,-6.4198,-6.4176,-6.4001,-6.363,-6.363,-6.363,-6.363,-6.363,-6.363,-6.363,-6.363,-6.3826,-2.6894,-2.9668,-3.2578,-3.3223,-3.1445,-3.0996,-3.6601,-3.4327,-3.2556,-3.7332,-3.6614,-3.585,-3.8476,-3.9746,-4.0957,-4.2578,-4.4629,-4.707,-5.0098,-5.0762,-5.1152,-5.1738,-5.2207,-5.2695,-5.3262,-5.375,-5.4023,-5.4023,-5.4023,-5.457,-5.5781,-5.5879,-5.666,-5.8359,-5.8027,-5.8027,-5.8418,-5.7656,-5.707,-5.668,-5.7012,-5.6758,-5.6035,-5.6406,-5.6367,-5.5996,-5.6406,-5.6328,-5.5898,-5.5508,-5.5078,-5.4648,-5.4258,-5.4375,-5.4824,-5.5664,-5.5976,-5.6035,-5.6445,-5.6582,-5.6582,-5.6582,-5.6582,-5.6582,-5.6582,-5.6582,-5.6582,-5.6582,-5.6582,-5.6582,-5.6582,-5.6582,-5.6582,-5.6582,-5.6875,-5.7168,-5.7168,-5.748,-5.7754,-5.7754,-5.7793,-5.7812,-5.7812,-5.7851,-5.7871,-5.7871,-5.8704,-5.9298,-5.8638,-5.9338,-6.0356,-6.0798,-6.0819,-6.1919,-6.4098,-6.4314,-6.4982,-6.6076,-6.5224,-6.4722,-6.4678,-6.4678,-6.4678,-6.4635,-6.4635,-6.4635,-6.4635,-6.4635,-6.4635,-6.4635,-6.4635,-6.4657,-2.7305,-3.0059,-3.2969,-3.3652,-3.2325,-3.2592,-3.9265,-3.9028,-3.7792,-3.8759,-3.8141,-3.7586,-3.8173,-4.2288,-4.5508,-4.4922,-4.7012,-4.9199,-5.0605,-5.1406,-5.1894,-5.207,-5.2695,-5.3183,-5.334,-5.3769,-5.4023,-5.4023,-5.4023,-5.4355,-5.5117,-5.541,-5.5957,-5.6894,-5.7265,-5.7422,-5.7324,-5.6992,-5.6738,-5.6582,-5.6465,-5.6387,-5.6328,-5.623,-5.623,-5.6348,-5.6504,-5.6191,-5.5527,-5.5371,-5.4902,-5.4277,-5.4394,-5.4531,-5.4785,-5.5625,-5.5762,-5.5644,-5.6348,-5.6406,-5.623,-5.6504,-5.6582,-5.6582,-5.6582,-5.6758,-5.6973,-5.6973,-5.7168,-5.7324,-5.7051,-5.6973,-5.7051,-5.7324,-5.75,-5.7617,-5.7617,-5.7734,-5.7871,-5.7871,-5.8086,-5.8262,-5.8262,-5.8496,-5.8672,-5.8672,-5.9115,-5.9174,-5.8906,-5.9351,-5.9671,-5.9829,-6.0496,-6.1581,-6.3116,-6.3335,-6.3552,-6.3987,-6.496,-6.5487,-6.5181,-6.5159,-6.5028,-6.4744,-6.4744,-6.4744,-6.4744,-6.4744,-6.4744,-6.4744,-6.4744,-6.4897,-2.8487,-3.0761,-3.3359,-3.4902,-3.4087,-3.4444,-4.0216,-4.0325,-3.9311,-4.0349,-4.0186,-3.9778,-3.9894,-4.3974,-4.7126,-4.6503,-4.8672,-5.0527,-5.0937,-5.1621,-5.2129,-5.2266,-5.291,-5.3418,-5.3555,-5.3848,-5.4023,-5.4023,-5.4023,-5.4277,-5.4844,-5.5156,-5.5625,-5.6308,-5.6777,-5.6933,-5.6777,-5.666,-5.6582,-5.6582,-5.6133,-5.6094,-5.6367,-5.6211,-5.623,-5.6387,-5.6387,-5.5976,-5.5293,-5.5156,-5.4765,-5.4277,-5.4707,-5.4883,-5.4961,-5.5664,-5.5762,-5.5605,-5.6328,-5.6387,-5.6211,-5.664,-5.6777,-5.6816,-5.6953,-5.7187,-5.7422,-5.7422,-5.7637,-5.7812,-5.7676,-5.7519,-5.748,-5.7793,-5.7969,-5.8086,-5.8086,-5.8203,-5.8262,-5.8262,-5.8535,-5.8711,-5.8711,-5.9004,-5.918,-5.918,-5.9403,-5.9607,-5.9199,-5.9403,-5.9607,-5.9199,-5.981,-6.0899,-6.2022,-6.2221,-6.2221,-6.2679,-6.4637,-6.5369,-6.5023,-6.5449,-6.5508,-6.5203,-6.5181,-6.5181,-6.5181,-6.5181,-6.5181,-6.5181,-6.5181,-6.5356,-3.0522,-3.1884,-3.418,-3.7148,-3.6328,-3.5547,-3.8816,-3.6355,-3.5243,-4.1978,-4.2396,-4.2352,-4.4508,-4.4303,-4.4392,-4.6578,-4.9121,-5.0957,-5.1387,-5.1816,-5.2246,-5.2656,-5.3105,-5.3535,-5.3984,-5.4023,-5.4023,-5.4023,-5.4043,-5.4414,-5.5254,-5.5312,-5.5898,-5.7168,-5.6797,-5.6777,-5.7187,-5.6777,-5.6582,-5.6582,-5.6133,-5.5937,-5.5957,-5.6387,-5.6348,-5.5937,-5.5937,-5.5703,-5.5273,-5.4844,-5.4687,-5.4726,-5.5137,-5.5312,-5.5351,-5.5781,-5.5937,-5.5996,-5.6445,-5.6582,-5.666,-5.707,-5.7226,-5.7305,-5.7734,-5.7871,-5.7871,-5.7871,-5.7871,-5.7969,-5.8418,-5.8203,-5.7871,-5.7871,-5.8203,-5.8535,-5.8535,-5.8887,-5.918,-5.918,-5.918,-5.918,-5.918,-5.918,-5.918,-5.918,-6.0052,-6.0496,-5.9403,-6.0294,-6.0496,-5.9403,-5.918,-5.9607,-6.0718,-6.0919,-6.1361,-6.27,-6.377,-6.442,-6.442,-6.552,-6.6186,-6.6186,-6.6186,-6.6186,-6.6186,-6.6186,-6.6186,-6.6186,-6.6186,-6.6186,-2.8757,-3.268,-3.6445,-3.5801,-3.7402,-3.9306,-3.9502,-3.8689,-3.879,-4.1506,-4.1889,-4.2097,-4.328,-4.5792,-4.7703,-4.7359,-4.9316,-5.1055,-5.1797,-5.2266,-5.2676,-5.3125,-5.3555,-5.3887,-5.4023,-5.4023,-5.4023,-5.4023,-5.4316,-5.4726,-5.5273,-5.5586,-5.6055,-5.6758,-5.664,-5.6504,-5.6308,-5.6191,-5.6133,-5.6133,-5.5996,-5.6094,-5.6387,-5.6211,-5.6055,-5.5937,-5.5937,-5.5527,-5.4863,-5.4726,-5.4863,-5.5137,-5.5254,-5.5312,-5.5351,-5.5781,-5.5742,-5.5644,-5.666,-5.6836,-5.6699,-5.7441,-5.7676,-5.7695,-5.7812,-5.8086,-5.832,-5.832,-5.8555,-5.8828,-5.8945,-5.8887,-5.8789,-5.8789,-5.8887,-5.9004,-5.9004,-5.9062,-5.918,-5.918,-5.918,-5.918,-5.918,-5.918,-5.918,-5.918,-5.9403,-5.9646,-5.9199,-5.9403,-5.9646,-5.9199,-5.918,-5.9403,-5.9626,-5.9626,-5.9849,-6.0294,-6.1381,-6.2679,-6.442,-6.552,-6.6186,-6.6186,-6.6186,-6.6186,-6.6186,-6.6186,-6.6186,-6.6186,-6.6186,-6.6186,-3.1884,-3.5085,-3.7949,-3.9043,-4.0567,-4.1876,-4.1886,-4.1805,-4.1996,-4.3651,-4.396,-4.4141,-4.5337,-4.7496,-4.9186,-4.8857,-5.0098,-5.1289,-5.1992,-5.2441,-5.2871,-5.3301,-5.375,-5.4023,-5.4023,-5.4023,-5.4023,-5.4023,-5.4433,-5.4863,-5.5293,-5.5547,-5.5957,-5.6562,-5.625,-5.6113,-5.6191,-5.6015,-5.6015,-5.6191,-5.6191,-5.6328,-5.6562,-5.6133,-5.5937,-5.5937,-5.5937,-5.5547,-5.4941,-5.5117,-5.5332,-5.5566,-5.5742,-5.582,-5.584,-5.6094,-5.6035,-5.5957,-5.6894,-5.7051,-5.6973,-5.7851,-5.8144,-5.8144,-5.832,-5.8594,-5.8769,-5.8769,-5.9004,-5.918,-5.918,-5.918,-5.918,-5.918,-5.918,-5.918,-5.918,-5.918,-5.918,-5.918,-5.918,-5.918,-5.918,-5.918,-5.918,-5.918,-5.918,-5.918,-5.918,-5.918,-5.918,-5.918,-5.918,-5.918,-5.918,-5.918,-5.9403,-5.9849,-6.0456,-6.2001,-6.4204,-6.5068,-6.5735,-6.6186,-6.6186,-6.6186,-6.6186,-6.6186,-6.6186,-6.6186,-6.6186,-6.6186,-3.7255,-3.8303,-3.9043,-4.457,-4.4648,-4.3774,-4.5426,-4.4985,-4.492,-4.7076,-4.7084,-4.7239,-4.9253,-4.9101,-4.93,-5.0591,-5.1211,-5.1641,-5.209,-5.25,-5.293,-5.3359,-5.3789,-5.4023,-5.4023,-5.4023,-5.4023,-5.4023,-5.4433,-5.4863,-5.5293,-5.5312,-5.5703,-5.6562,-5.5781,-5.5742,-5.6523,-5.6172,-5.6172,-5.6523,-5.6562,-5.6562,-5.6504,-5.6152,-5.5976,-5.5937,-5.5898,-5.5683,-5.539,-5.5781,-5.5957,-5.6035,-5.6426,-5.6582,-5.6582,-5.6582,-5.6582,-5.666,-5.7109,-5.7265,-5.7422,-5.8301,-5.8594,-5.8652,-5.9062,-5.918,-5.918,-5.918,-5.918,-5.918,-5.918,-5.918,-5.918,-5.918,-5.918,-5.918,-5.918,-5.918,-5.918,-5.918,-5.918,-5.918,-5.918,-5.918,-5.918,-5.918,-5.918,-5.918,-5.918,-5.918,-5.918,-5.918,-5.918,-5.918,-5.918,-5.918,-5.9607,-6.0678,-6.0899,-6.1802,-6.4204,-6.442,-6.5068,-6.6186,-6.6186,-6.6186,-6.6186,-6.6186,-6.6186,-6.6186,-6.6186,-6.6186,-3.3165,-3.7241,-4.123,-4.2851,-4.4433,-4.5744,-4.6516,-4.6645,-4.681,-4.656,-4.6495,-4.7208,-4.9602,-5.0222,-5.0533,-5.1076,-5.166,-5.209,-5.2519,-5.2949,-5.3379,-5.3828,-5.3965,-5.4023,-5.4023,-5.4023,-5.4023,-5.4023,-5.4433,-5.4863,-5.5293,-5.5312,-5.5703,-5.6562,-5.6074,-5.5898,-5.6074,-5.6328,-5.6328,-5.6074,-5.6426,-5.6406,-5.6074,-5.6328,-5.625,-5.5918,-5.5586,-5.5586,-5.5801,-5.5898,-5.6133,-5.6445,-5.6543,-5.6582,-5.6582,-5.6582,-5.6582,-5.6699,-5.7461,-5.7715,-5.7851,-5.8769,-5.9062,-5.9062,-5.918,-5.918,-5.918,-5.918,-5.918,-5.918,-5.918,-5.918,-5.918,-5.918,-5.918,-5.918,-5.918,-5.918,-5.918,-5.918,-5.918,-5.918,-5.918,-5.918,-5.918,-5.918,-5.918,-5.918,-5.918,-5.918,-5.918,-5.918,-5.918,-5.918,-5.918,-5.918,-5.9383,-5.9626,-6.0476,-6.1581,-6.3116,-6.3987,-6.5068,-6.6186,-6.6186,-6.6186,-6.6186,-6.6186,-6.6186,-6.6186,-6.6186,-6.6186,-3.4746,-3.7871,-4.0391,-4.3496,-4.5293,-4.6406,-4.6836,-4.7266,-4.7451,-4.7174,-4.7837,-4.8747,-4.9947,-5.0683,-5.1172,-5.1406,-5.1797,-5.2226,-5.2656,-5.3086,-5.3535,-5.3965,-5.4023,-5.4023,-5.4023,-5.4023,-5.4023,-5.4023,-5.4433,-5.4863,-5.5293,-5.5312,-5.5703,-5.6562,-5.5957,-5.582,-5.625,-5.6269,-5.6269,-5.625,-5.6484,-5.6465,-5.625,-5.6269,-5.6152,-5.5937,-5.5918,-5.6035,-5.625,-5.625,-5.6387,-5.6582,-5.6582,-5.6582,-5.6582,-5.6582,-5.6582,-5.6699,-5.7558,-5.7871,-5.8027,-5.8906,-5.918,-5.918,-5.918,-5.918,-5.918,-5.918,-5.918,-5.918,-5.918,-5.918,-5.918,-5.918,-5.918,-5.918,-5.918,-5.918,-5.918,-5.918,-5.918,-5.918,-5.918,-5.918,-5.918,-5.918,-5.918,-5.918,-5.918,-5.918,-5.918,-5.918,-5.918,-5.918,-5.918,-5.918,-5.9383,-6.0052,-6.0032,-6.116,-6.3335,-6.3552,-6.442,-6.6186,-6.6186,-6.6186,-6.6186,-6.6186,-6.6186,-6.6186,-6.6186,-6.6186,-3.6758,-3.8535,-3.9394,-4.4922,-4.6308,-4.6406,-4.6836,-4.7266,-4.7695,-4.8125,-4.9258,-5.0176,-5.0176,-5.0859,-5.1465,-5.1523,-5.1914,-5.2344,-5.2754,-5.3203,-5.3613,-5.3984,-5.4023,-5.4023,-5.4023,-5.4023,-5.4023,-5.4023,-5.4433,-5.4863,-5.5293,-5.5371,-5.5781,-5.6562,-5.5898,-5.5879,-5.6582,-5.623,-5.623,-5.6582,-5.6582,-5.6582,-5.6582,-5.6211,-5.6055,-5.6055,-5.6426,-5.6582,-5.6582,-5.6582,-5.6582,-5.6582,-5.6582,-5.6582,-5.6582,-5.6582,-5.6582,-5.6699,-5.7558,-5.7871,-5.8027,-5.8906,-5.918,-5.918,-5.918,-5.918,-5.918,-5.918,-5.918,-5.918,-5.918,-5.918,-5.918,-5.918,-5.918,-5.918,-5.918,-5.918,-5.918,-5.918,-5.918,-5.918,-5.918,-5.918,-5.918,-5.918,-5.918,-5.918,-5.918,-5.918,-5.918,-5.918,-5.918,-5.918,-5.918,-5.918,-5.9607,-6.0476,-5.981,-6.0919,-6.3987,-6.3335,-6.3987,-6.6186,-6.6186,-6.6186,-6.6186,-6.6186,-6.6186,-6.6186,-6.6186,-6.6186,-3.1973,-3.6875,-4.2012,-4.5449,-4.6308,-4.6406,-4.6836,-4.7266,-4.7695,-4.8125,-4.9258,-5.0176,-5.0176,-5.0859,-5.1562,-5.1933,-5.2344,-5.2773,-5.3203,-5.3652,-5.3965,-5.4023,-5.4023,-5.4023,-5.4023,-5.4023,-5.4023,-5.4023,-5.4433,-5.4863,-5.5293,-5.5644,-5.6074,-5.6562,-5.6484,-5.6465,-5.6582,-5.6523,-5.6523,-5.6582,-5.6582,-5.6582,-5.6582,-5.6523,-5.6504,-5.6504,-5.6562,-5.6582,-5.6582,-5.6582,-5.6582,-5.6582,-5.6582,-5.6582,-5.6582,-5.6582,-5.6582,-5.6699,-5.7558,-5.7871,-5.8027,-5.8906,-5.918,-5.918,-5.918,-5.918,-5.918,-5.918,-5.918,-5.918,-5.918,-5.918,-5.918,-5.918,-5.918,-5.918,-5.918,-5.918,-5.918,-5.918,-5.918,-5.918,-5.918,-5.918,-5.918,-5.918,-5.918,-5.918,-5.918,-5.918,-5.918,-5.918,-5.918,-5.918,-5.918,-5.918,-5.9199,-5.9423,-6.0254,-6.1341,-6.2898,-6.377,-6.4853,-6.6186,-6.6186,-6.6186,-6.6186,-6.6186,-6.6186,-6.6186,-6.6186,-6.6186,-3.3301,-3.8203,-4.2519,-4.5547,-4.6308,-4.6289,-4.623,-4.6933,-4.7637,-4.7812,-4.8906,-4.9883,-5.0137,-5.0859,-5.1504,-5.168,-5.2285,-5.2773,-5.2969,-5.3594,-5.4023,-5.4023,-5.4023,-5.4023,-5.4023,-5.4023,-5.4023,-5.4023,-5.4433,-5.4863,-5.5293,-5.5937,-5.6387,-5.6582,-5.6816,-5.6816,-5.6582,-5.6582,-5.6582,-5.6582,-5.6582,-5.6582,-5.6582,-5.6582,-5.6582,-5.6582,-5.6582,-5.6582,-5.6582,-5.6582,-5.6582,-5.6582,-5.6582,-5.6719,-5.6933,-5.6933,-5.709,-5.7383,-5.8027,-5.8242,-5.8359,-5.8965,-5.918,-5.918,-5.918,-5.918,-5.918,-5.918,-5.918,-5.918,-5.918,-5.918,-5.918,-5.918,-5.918,-5.918,-5.918,-5.918,-5.918,-5.918,-5.918,-5.918,-5.918,-5.918,-5.918,-5.918,-5.918,-5.918,-5.918,-5.918,-5.918,-5.918,-5.918,-5.918,-5.918,-5.918,-5.9383,-6.0052,-6.0072,-6.114,-6.3552,-6.3552,-6.442,-6.6186,-6.6186,-6.6186,-6.6186,-6.6186,-6.6186,-6.6186,-6.6186,-6.6186,-3.3906,-3.7637,-4.043,-4.4219,-4.5234,-4.543,-4.5898,-4.6816,-4.7617,-4.7715,-4.8789,-4.9785,-5.0117,-5.0781,-5.1348,-5.1562,-5.2226,-5.2754,-5.2851,-5.3535,-5.4023,-5.4023,-5.4023,-5.4023,-5.4023,-5.4023,-5.4023,-5.4023,-5.4531,-5.498,-5.5293,-5.6328,-5.6816,-5.6601,-5.7109,-5.7129,-5.6601,-5.6582,-5.6582,-5.6582,-5.6582,-5.6582,-5.6582,-5.6582,-5.6582,-5.6582,-5.6582,-5.6582,-5.6582,-5.6582,-5.6582,-5.6582,-5.6582,-5.6777,-5.707,-5.7168,-5.7344,-5.7617,-5.8183,-5.8359,-5.8418,-5.8887,-5.9062,-5.918,-5.918,-5.918,-5.918,-5.918,-5.918,-5.918,-5.918,-5.918,-5.918,-5.918,-5.918,-5.918,-5.918,-5.918,-5.918,-5.918,-5.918,-5.918,-5.918,-5.918,-5.918,-5.918,-5.918,-5.918,-5.918,-5.918,-5.918,-5.918,-5.918,-5.918,-5.918,-5.9383,-6.0052,-6.0899,-6.0476,-6.1361,-6.4204,-6.3552,-6.4204,-6.6186,-6.6186,-6.6186,-6.6186,-6.6186,-6.6186,-6.6186,-6.6186,-6.6186,-3.0703,-3.2519,-3.4668,-4.0566,-4.2324,-4.3379,-4.6211,-4.7246,-4.7695,-4.8086,-4.9219,-5.0156,-5.0176,-5.0547,-5.1094,-5.1914,-5.2422,-5.2851,-5.3262,-5.373,-5.4023,-5.4023,-5.4023,-5.4023,-5.4023,-5.4023,-5.4023,-5.4023,-5.4805,-5.5293,-5.5312,-5.6894,-5.7422,-5.6601,-5.7383,-5.7422,-5.6601,-5.6582,-5.6582,-5.6582,-5.6582,-5.6582,-5.6582,-5.6582,-5.6582,-5.6582,-5.6582,-5.6582,-5.6582,-5.6582,-5.6582,-5.6582,-5.6582,-5.6601,-5.666,-5.707,-5.6973,-5.6777,-5.7598,-5.791,-5.7969,-5.8418,-5.8828,-5.918,-5.918,-5.918,-5.918,-5.918,-5.918,-5.918,-5.918,-5.918,-5.918,-5.918,-5.918,-5.918,-5.918,-5.918,-5.918,-5.918,-5.918,-5.918,-5.918,-5.918,-5.918,-5.918,-5.918,-5.918,-5.918,-5.918,-5.918,-5.918,-5.918,-5.918,-5.918,-6.0294,-6.0899,-6.0919,-6.1802,-6.3096,-6.442,-6.442,-6.4853,-6.6186,-6.6186,-6.6186,-6.6186,-6.6186,-6.6186,-6.6186,-6.6186,-6.6186,-3.0391,-3.1953,-3.3516,-3.8144,-4.0684,-4.2383,-4.373,-4.5879,-4.7695,-4.8125,-4.9043,-4.9922,-5.0469,-5.0918,-5.1308,-5.1621,-5.2031,-5.2461,-5.2891,-5.332,-5.3711,-5.4004,-5.4023,-5.4023,-5.4023,-5.4023,-5.4023,-5.4023,-5.4824,-5.543,-5.5703,-5.6816,-5.7305,-5.6992,-5.7285,-5.7168,-5.6601,-5.6582,-5.6582,-5.6582,-5.6582,-5.6582,-5.6582,-5.6582,-5.6582,-5.6582,-5.6582,-5.6582,-5.6582,-5.6582,-5.6582,-5.6582,-5.6582,-5.6758,-5.7051,-5.7461,-5.7715,-5.791,-5.8496,-5.8711,-5.873,-5.8887,-5.9062,-5.918,-5.918,-5.918,-5.918,-5.918,-5.918,-5.918,-5.918,-5.918,-5.918,-5.918,-5.918,-5.918,-5.918,-5.918,-5.918,-5.918,-5.918,-5.918,-5.918,-5.918,-5.918,-5.918,-5.918,-5.918,-5.918,-5.918,-5.918,-5.918,-5.918,-5.918,-5.918,-6.0254,-6.114,-6.2001,-6.244,-6.3552,-6.552,-6.4853,-6.5068,-6.6186,-6.6186,-6.6186,-6.6186,-6.6186,-6.6186,-6.6186,-6.6186,-6.6186,-2.8926,-3.0215,-3.1523,-3.5098,-3.7617,-3.9766,-4.1933,-4.4316,-4.6484,-4.791,-4.8789,-4.957,-5.043,-5.0937,-5.1269,-5.1406,-5.1797,-5.2187,-5.2461,-5.2871,-5.3301,-5.375,-5.3808,-5.3867,-5.4023,-5.416,-5.418,-5.4043,-5.4961,-5.5586,-5.5723,-5.666,-5.7207,-5.7207,-5.707,-5.6875,-5.6582,-5.6582,-5.6582,-5.6582,-5.6582,-5.6582,-5.6582,-5.6582,-5.6582,-5.6582,-5.6582,-5.6582,-5.6582,-5.6582,-5.6582,-5.6582,-5.6582,-5.6758,-5.707,-5.7656,-5.7851,-5.7969,-5.8711,-5.8769,-5.8555,-5.8672,-5.873,-5.8769,-5.8906,-5.8945,-5.9004,-5.9121,-5.918,-5.918,-5.918,-5.918,-5.918,-5.918,-5.918,-5.918,-5.918,-5.918,-5.918,-5.918,-5.918,-5.918,-5.918,-5.918,-5.918,-5.918,-5.918,-5.918,-5.918,-5.918,-5.918,-5.918,-5.918,-5.9403,-5.9646,-6.0939,-6.2001,-6.3116,-6.3552,-6.4637,-6.6186,-6.552,-6.5305,-6.6186,-6.6186,-6.6186,-6.6186,-6.6186,-6.6186,-6.6186,-6.6186,-6.6186,0.0,0.0,0.0,-3.1309,-3.3047,-3.5488,-4.0937,-4.2656,-4.4043,-4.7383,-4.8496,-4.9141,-5.0,-5.0508,-5.0918,-5.1348,-5.1777,-5.207,-5.209,-5.2461,-5.2871,-5.332,-5.3398,-5.3574,-5.4004,-5.4433,-5.4531,-5.4101,-5.5215,-5.5762,-5.5371,-5.6523,-5.7207,-5.7187,-5.6797,-5.6582,-5.6582,-5.6582,-5.6582,-5.6582,-5.6582,-5.6582,-5.6582,-5.6582,-5.6582,-5.6582,-5.6582,-5.6582,-5.6582,-5.6582,-5.6582,-5.6582,-5.6582,-5.6582,-5.668,-5.7539,-5.7324,-5.6797,-5.8086,-5.7969,-5.7344,-5.7754,-5.791,-5.7969,-5.8418,-5.8535,-5.8652,-5.9062,-5.918,-5.918,-5.918,-5.918,-5.918,-5.918,-5.918,-5.918,-5.918,-5.918,-5.918,-5.918,-5.918,-5.918,-5.918,-5.918,-5.918,-5.918,-5.918,-5.918,-5.918,-5.918,-5.918,-5.918,-5.918,-5.9607,-6.0718,-6.2001,-6.3116,-6.442,-6.552,-6.6186,-6.6186,-6.6186,-6.6186,-6.6186,-6.6186,-6.6186,-6.6186,-6.6186,-6.6186,-6.6186,-6.6186,-6.6186,-2.5762,0.0,0.0,0.0,0.0,0.0,-3.5957,-4.0098,-4.3789,-4.4746,-4.7285,-4.9414,-4.9668,-5.0058,-5.0488,-5.0898,-5.1328,-5.1836,-5.2461,-5.2637,-5.2988,-5.375,-5.4121,-5.4355,-5.4492,-5.4883,-5.5078,0.0,-5.5566,-5.6015,-5.6211,-5.6855,-5.707,-5.6777,-5.664,-5.6582,-5.6582,-5.6582,-5.6582,-5.6582,-5.6582,-5.6582,-5.6582,-5.6582,-5.6582,-5.6582,-5.6582,-5.6582,-5.6582,-5.6582,-5.6582,-5.6582,-5.6582,-5.6582,-5.664,-5.7187,-5.7441,-5.7598,-5.8301,-5.8594,-5.8652,-5.8789,-5.8828,-5.8848,-5.8945,-5.9004,-5.9004,-5.9121,-5.918,-5.918,-5.918,-5.918,-5.918,-5.918,-5.918,-5.918,-5.918,-5.918,-5.918,-5.918,-5.918,-5.918,-5.918,-5.918,-5.918,-5.918,-5.918,-5.918,-5.918,-5.918,-5.918,-5.918,-5.918,-5.9607,-6.0718,-6.2001,-6.3116,-6.442,-6.552,-6.6186,-6.6186,-6.6186,-6.6186,-6.6186,-6.6186,-6.6186,-6.6186,-6.6186,-6.6186,-6.6186,-6.6186,-6.6186,-2.5664,-2.5932,-2.6327,-2.7182,0.0,0.0,-3.5101,-3.9004,-4.2598,-4.5293,-4.7656,-4.9297,-4.9492,-4.9883,-5.0254,-5.0508,-5.0898,-5.1406,-5.209,-5.2344,-5.2695,-5.3398,-5.3867,-5.4199,-5.4394,-5.4961,-5.5234,-5.5058,-5.5762,-5.6308,-5.6582,-5.6816,-5.6836,-5.6601,-5.6582,-5.6582,-5.6582,-5.6582,-5.6582,-5.6582,-5.6582,-5.6582,-5.6582,-5.6582,-5.6582,-5.6582,-5.6582,-5.6582,-5.6582,-5.6582,-5.6582,-5.6582,-5.6582,-5.6582,-5.666,-5.7265,-5.7539,-5.7715,-5.8535,-5.8711,-5.8672,-5.8828,-5.8769,-5.8672,-5.8848,-5.8887,-5.8945,-5.9121,-5.918,-5.918,-5.918,-5.918,-5.918,-5.918,-5.918,-5.918,-5.918,-5.918,-5.918,-5.918,-5.918,-5.918,-5.918,-5.918,-5.918,-5.918,-5.918,-5.918,-5.918,-5.918,-5.9403,-5.9849,-5.981,-6.0476,-6.2241,-6.2898,-6.3987,-6.5068,-6.5735,-6.6186,-6.6186,-6.6186,-6.6186,-6.6186,-6.6186,-6.6186,-6.6186,-6.6186,-6.6186,-6.6186,-6.6186,-6.6186,-2.5585,-2.5182,-2.5136,-2.6589,-2.6902,0.0,-3.5957,-3.8086,-4.0273,-4.6035,-4.7519,-4.791,-4.8301,-4.873,-4.9043,-4.9101,-4.9746,-5.0508,-5.1308,-5.1758,-5.2187,-5.2656,-5.3144,-5.3594,-5.3984,-5.4844,-5.5215,-5.4844,-5.5918,-5.6582,-5.6582,-5.6621,-5.664,-5.6582,-5.6621,-5.664,-5.6582,-5.6582,-5.6582,-5.6582,-5.6582,-5.6582,-5.6582,-5.6582,-5.6582,-5.6582,-5.6582,-5.6582,-5.6582,-5.6582,-5.6582,-5.6582,-5.6582,-5.6582,-5.668,-5.7441,-5.75,-5.7383,-5.8613,-5.8555,-5.8027,-5.8476,-5.832,-5.8086,-5.8476,-5.8594,-5.8711,-5.9062,-5.918,-5.918,-5.918,-5.918,-5.918,-5.918,-5.918,-5.918,-5.918,-5.918,-5.918,-5.918,-5.918,-5.918,-5.918,-5.918,-5.918,-5.918,-5.918,-5.918,-5.918,-5.9383,-5.9829,-6.0718,-6.112,-6.2001,-6.4204,-6.442,-6.4853,-6.6186,-6.6186,-6.6186,-6.6186,-6.6186,-6.6186,-6.6186,-6.6186,-6.6186,-6.6186,-6.6186,-6.6186,-6.6186,-6.6186,-6.6186,-2.5112,-2.4767,-2.5136,-2.6589,-2.7552,0.0,-3.0295,-3.3027,-3.543,-3.6699,-3.916,-4.1113,-4.1191,-4.1582,-4.2012,-4.2344,-4.4805,-4.7793,-5.0976,-5.1504,-5.1855,-5.2617,-5.3418,-5.3926,-5.4023,-5.5117,-5.5781,-5.5703,-5.625,-5.6582,-5.6582,-5.6914,-5.6933,-5.6601,-5.6914,-5.6933,-5.6582,-5.6582,-5.6582,-5.6582,-5.6582,-5.6582,-5.6582,-5.6582,-5.6582,-5.6582,-5.6582,-5.6582,-5.6582,-5.6582,-5.6582,-5.6582,-5.6582,-5.6582,-5.6601,-5.6777,-5.6992,-5.7305,-5.791,-5.8262,-5.8476,-5.8906,-5.9004,-5.8945,-5.9023,-5.9062,-5.9062,-5.918,-5.918,-5.918,-5.918,-5.918,-5.918,-5.918,-5.918,-5.918,-5.918,-5.918,-5.918,-5.918,-5.918,-5.918,-5.918,-5.918,-5.918,-5.918,-5.918,-5.918,-5.918,-6.0052,-6.0718,-6.0919,-6.1822,-6.2919,-6.4204,-6.442,-6.4853,-6.6186,-6.6186,-6.6186,-6.6186,-6.6186,-6.6186,-6.6186,-6.6186,-6.6186,-6.6186,-6.6186,-6.6186,-6.6186,-6.6186,-6.6186,-2.4489,-2.4068,-2.4589,-2.605,-2.6356,0.0,0.0,-3.2315,-3.3877,-3.6132,-3.8184,-3.9473,-3.9238,-3.9746,-4.0215,-4.0215,-4.3105,-4.5508,-4.5937,-4.9316,-5.1992,-5.2637,-5.3105,-5.3457,-5.3672,-5.4473,-5.5156,-5.5586,-5.6015,-5.625,-5.625,-5.666,-5.6797,-5.6601,-5.6797,-5.6797,-5.6582,-5.6582,-5.6582,-5.6582,-5.6582,-5.6582,-5.6582,-5.6582,-5.6582,-5.6582,-5.6582,-5.6582,-5.6582,-5.6582,-5.6582,-5.6582,-5.6582,-5.6582,-5.6601,-5.6816,-5.7031,-5.7305,-5.7969,-5.8359,-5.8594,-5.9062,-5.918,-5.918,-5.918,-5.918,-5.918,-5.918,-5.918,-5.918,-5.918,-5.918,-5.918,-5.918,-5.918,-5.918,-5.918,-5.918,-5.918,-5.918,-5.918,-5.918,-5.918,-5.918,-5.918,-5.918,-5.918,-5.918,-5.918,-5.9626,-6.0274,-6.0899,-6.1802,-6.2898,-6.4204,-6.4637,-6.5305,-6.6186,-6.6186,-6.6186,-6.6186,-6.6186,-6.6186,-6.6186,-6.6186,-6.6186,-6.6186,-6.6186,-6.6186,-6.6186,-6.6186,-6.6186,-2.4128,-2.3409,-2.3713,-2.529,-2.5004,-2.5781,0.0,0.0,0.0,-3.6066,-3.7236,-3.7391,-3.71,-3.7701,0.0,-3.7851,0.0,0.0,0.0,-4.5508,0.0,-5.0547,-5.1777,-5.2539,-5.2383,-5.3008,-5.3945,-5.5215,-5.5156,-5.5332,-5.5898,-5.6348,-5.6582,-5.6582,-5.666,-5.666,-5.6582,-5.6582,-5.6582,-5.6582,-5.6582,-5.6582,-5.6582,-5.6582,-5.6582,-5.6582,-5.6582,-5.6582,-5.6582,-5.6582,-5.6582,-5.6582,-5.6582,-5.6582,-5.6621,-5.6973,-5.7148,-5.7324,-5.8125,-5.8476,-5.8594,-5.9062,-5.918,-5.918,-5.918,-5.918,-5.918,-5.918,-5.918,-5.918,-5.918,-5.918,-5.918,-5.918,-5.918,-5.918,-5.918,-5.918,-5.918,-5.918,-5.918,-5.9199,-5.9403,-5.9403,-5.9199,-5.9403,-5.9403,-5.9199,-5.9403,-5.9383,-5.981,-6.0939,-6.1802,-6.2638,-6.4204,-6.4874,-6.5542,-6.6186,-6.6186,-6.6186,-6.6186,-6.6186,-6.6186,-6.6186,-6.6186,-6.6186,-6.6186,-6.6186,-6.6186,-6.6186,-6.6186,-6.6186,-2.4139,-2.2863,-2.2796,-2.437,-2.4419,-2.4694,0.0,0.0,-2.7455,-2.8422,0.0,-2.8756,-2.9053,0.0,0.0,0.0,0.0,0.0,-3.5527,-3.9434,-4.2578,-4.2988,-4.8437,-5.1269,-4.9004,-5.0234,-5.2324,-5.5098,-5.3223,-5.3105,-5.5781,-5.6348,-5.6582,-5.6582,-5.6953,-5.6953,-5.6582,-5.6582,-5.6582,-5.6582,-5.6582,-5.6582,-5.6582,-5.6582,-5.6582,-5.6582,-5.6582,-5.6582,-5.6582,-5.6582,-5.6582,-5.6582,-5.6582,-5.6582,-5.6601,-5.664,-5.6894,-5.7285,-5.7754,-5.8203,-5.8594,-5.9062,-5.918,-5.918,-5.918,-5.918,-5.918,-5.918,-5.918,-5.918,-5.918,-5.918,-5.918,-5.918,-5.918,-5.918,-5.918,-5.918,-5.918,-5.918,-5.918,-5.9626,-6.0476,-5.9849,-5.9626,-6.0476,-5.9849,-5.9403,-5.981,-6.0476,-6.0939,-6.1561,-6.2617,-6.3531,-6.442,-6.4874,-6.5542,-6.6186,-6.6186,-6.6186,-6.6186,-6.6186,-6.6186,-6.6186,-6.6186,-6.6186,-6.6186,-6.6186,-6.6186,-6.6186,-6.6186,-6.6186,-2.3458,-2.3916,-2.5043,0.0,0.0,0.0,-2.6047,0.0,-2.5008,0.0,0.0,0.0,0.0,0.0,0.0,0.0,-3.1807,0.0,0.0,0.0,-3.9951,0.0,0.0,0.0,-4.7363,0.0,0.0,0.0,-5.3867,-5.4238,-5.5508,-5.5976,-5.6328,-5.6582,-5.6758,-5.6758,-5.6582,-5.6582,-5.6582,-5.6582,-5.6582,-5.6582,-5.6582,-5.6582,-5.6582,-5.6582,-5.6582,-5.6582,-5.6582,-5.6582,-5.6582,-5.6582,-5.6582,-5.6582,-5.6582,-5.6582,-5.6855,-5.7285,-5.7715,-5.8144,-5.8594,-5.9062,-5.918,-5.918,-5.918,-5.918,-5.918,-5.918,-5.918,-5.918,-5.918,-5.918,-5.918,-5.918,-5.918,-5.918,-5.918,-5.918,-5.918,-5.918,-5.918,-5.9626,-6.0698,-6.0496,-6.0052,-6.0052,-6.0032,-6.0274,-6.0456,-6.0052,-6.0476,-6.2221,-6.2221,-6.2659,-6.4204,-6.4637,-6.509,-6.5542,-6.5757,-6.5757,-6.6186,-6.6186,-6.6186,-6.6186,-6.6186,-6.6186,-6.6186,-6.6186,-6.6186,-6.6186,-6.6186,-6.6186,-2.4188,0.0,0.0,0.0,0.0,0.0,0.0,0.0,0.0,0.0,0.0,0.0,0.0,0.0,0.0,0.0,0.0,-3.085,0.0,-3.2848,0.0,0.0,0.0,0.0,0.0,0.0,0.0,0.0,0.0,-5.4394,-5.5098,-5.5527,-5.5957,-5.6387,-5.6523,-5.6582,-5.6582,-5.6582,-5.6582,-5.6582,-5.6582,-5.6582,-5.6582,-5.6582,-5.6582,-5.6582,-5.6582,-5.6582,-5.6582,-5.6582,-5.6582,-5.6582,-5.6582,-5.6582,-5.6582,-5.6582,-5.6855,-5.7265,-5.7578,-5.8066,-5.8594,-5.9062,-5.918,-5.918,-5.918,-5.918,-5.918,-5.918,-5.918,-5.918,-5.918,-5.918,-5.918,-5.918,-5.918,-5.918,-5.918,-5.918,-5.918,-5.918,-5.918,-5.9383,-6.0274,-6.0678,-6.0718,-5.9829,-6.0718,-6.114,-6.0698,-6.0476,-6.0698,-6.2221,-6.2001,-6.2221,-6.3987,-6.4204,-6.4637,-6.5327,-6.5542,-6.5735,-6.6186,-6.6186,-6.6186,-6.6186,-6.6186,-6.6186,-6.6186,-6.6186,-6.6186,-6.6186,-6.6186,-6.6186,0.0,0.0,0.0,-2.3179,0.0,0.0,0.0,0.0,-2.3794,0.0,0.0,0.0,0.0,0.0,0.0,0.0,0.0,0.0,0.0,0.0,0.0,0.0,0.0,0.0,0.0,0.0,0.0,0.0,0.0,0.0,-5.457,-5.5098,-5.5527,-5.5937,-5.6367,-5.6582,-5.6582,-5.6582,-5.6582,-5.6582,-5.6582,-5.6582,-5.6582,-5.6582,-5.6582,-5.6582,-5.6582,-5.6582,-5.6582,-5.6582,-5.6582,-5.6582,-5.6582,-5.6582,-5.6582,-5.6582,-5.6855,-5.7207,-5.7226,-5.7793,-5.8594,-5.9062,-5.918,-5.918,-5.918,-5.918,-5.918,-5.918,-5.918,-5.918,-5.918,-5.918,-5.918,-5.918,-5.918,-5.918,-5.918,-5.918,-5.918,-5.918,-5.918,-5.918,-5.9199,-6.0052,-6.0919,-6.0899,-6.1802,-6.2001,-6.0254,-6.1581,-6.246,-6.1802,-6.2877,-6.3531,-6.3552,-6.3987,-6.4637,-6.5327,-6.5757,-6.6186,-6.6186,-6.6186,-6.6186,-6.6186,-6.6186,-6.6186,-6.6186,-6.6186,-6.6186,-6.6186,-6.6186,-6.6186,0.0,0.0,-2.9954,-2.6398,0.0,0.0,0.0,0.0,0.0,0.0,0.0,0.0,0.0,0.0,-2.4591,0.0,0.0,0.0,0.0,0.0,0.0,0.0,0.0,0.0,0.0,0.0,0.0,0.0,0.0,0.0,0.0,-5.5234,-5.5625,-5.6348,-5.6504,-5.6582,-5.6582,-5.6582,-5.6582,-5.6582,-5.6582,-5.6582,-5.6582,-5.6582,-5.6582,-5.6582,-5.6582,-5.6582,-5.6582,-5.6582,-5.6582,-5.6582,-5.6582,-5.6582,-5.6582,-5.6582,-5.6855,-5.7246,-5.7539,-5.8027,-5.8535,-5.8711,-5.8945,-5.918,-5.918,-5.918,-5.918,-5.918,-5.918,-5.918,-5.918,-5.918,-5.9121,-5.8828,-5.8769,-5.8769,-5.8769,-5.8769,-5.8828,-5.9121,-5.918,-5.918,-5.918,-6.0052,-6.0919,-6.0919,-6.2042,-6.27,-6.2857,-6.2877,-6.3116,-6.4637,-6.377,-6.3552,-6.4658,-6.442,-6.4853,-6.5757,-6.5757,-6.5757,-6.6186,-6.6186,-6.6186,-6.6186,-6.6186,-6.6186,-6.6186,-6.6186,-6.6186,-6.6186,-6.6186,-6.6186,-3.1461,-3.2295,0.0,-2.8944,-2.9032,0.0,-2.5608,0.0,-2.3998,0.0,0.0,0.0,0.0,0.0,0.0,0.0,0.0,0.0,0.0,-2.5051,0.0,0.0,0.0,0.0,0.0,0.0,0.0,0.0,0.0,0.0,0.0,0.0,-5.5723,-5.6113,-5.6426,-5.6582,-5.6582,-5.6582,-5.6582,-5.6582,-5.6582,-5.6582,-5.6582,-5.6582,-5.6582,-5.6582,-5.6582,-5.6582,-5.6582,-5.6582,-5.6582,-5.6582,-5.6582,-5.6582,-5.6582,-5.6582,-5.6758,-5.7051,-5.748,-5.7793,-5.8125,-5.8418,-5.8711,-5.9004,-5.9121,-5.9062,-5.9004,-5.9297,-5.918,-5.9004,-5.9355,-5.918,-5.8945,-5.8769,-5.8652,-5.8594,-5.8711,-5.8769,-5.8828,-5.8945,-5.8945,-5.8887,-5.873,-5.9494,-6.0095,-6.0274,-6.2001,-6.3335,-6.3116,-6.3552,-6.442,-6.552,-6.4637,-6.4204,-6.4874,-6.4874,-6.4874,-6.552,-6.552,-6.5757,-6.6186,-6.6186,-6.6011,-6.5661,-6.6011,-6.6011,-6.5661,-6.6011,-6.6186,-6.6186,-6.6186,-6.6186]}]]